<?xml version="1.0" encoding="utf-8"?>
<gpx xmlns="http://www.topografix.com/GPX/1/1" xmlns:xsd="http://www.w3.org/2001/XMLSchema" xmlns:xsi="http://www.w3.org/2001/XMLSchema-instance" version="1.1" creator="Fugawi 4,1,10,1453 http://www.fugawi.com/" xsi:schemaLocation="http://www.topografix.com/GPX/1/1 http://www.topografix.com/GPX/1/1/gpx.xsd">
  <trk>
    <name>1 Königliche Pfade</name>
    <desc></desc>
    <trkseg>
      <trkpt lat="47.56737" lon="10.69497">
        <ele>803.32</ele>
        <time>2009-06-03T07:48:45.000Z</time>
      </trkpt>
      <trkpt lat="47.56717" lon="10.69499">
        <ele>804.28</ele>
        <time>2009-06-03T07:49:42.000Z</time>
      </trkpt>
      <trkpt lat="47.56702" lon="10.69473">
        <ele>805.24</ele>
        <time>2009-06-03T07:49:56.000Z</time>
      </trkpt>
      <trkpt lat="47.56688" lon="10.69442">
        <ele>807.16</ele>
        <time>2009-06-03T07:50:09.000Z</time>
      </trkpt>
      <trkpt lat="47.56674" lon="10.69407">
        <ele>807.16</ele>
        <time>2009-06-03T07:50:28.000Z</time>
      </trkpt>
      <trkpt lat="47.56665" lon="10.69372">
        <ele>810.05</ele>
        <time>2009-06-03T07:50:44.000Z</time>
      </trkpt>
      <trkpt lat="47.56647" lon="10.69349">
        <ele>811.49</ele>
        <time>2009-06-03T07:50:52.000Z</time>
      </trkpt>
      <trkpt lat="47.56615" lon="10.69347">
        <ele>814.37</ele>
        <time>2009-06-03T07:51:05.000Z</time>
      </trkpt>
      <trkpt lat="47.56573" lon="10.69309">
        <ele>812.45</ele>
        <time>2009-06-03T07:51:19.000Z</time>
      </trkpt>
      <trkpt lat="47.56555" lon="10.69300">
        <ele>811.49</ele>
        <time>2009-06-03T07:51:32.000Z</time>
      </trkpt>
      <trkpt lat="47.56547" lon="10.69286">
        <ele>811.49</ele>
        <time>2009-06-03T07:52:28.000Z</time>
      </trkpt>
      <trkpt lat="47.56541" lon="10.69284">
        <ele>810.05</ele>
        <time>2009-06-03T07:53:02.000Z</time>
      </trkpt>
      <trkpt lat="47.56521" lon="10.69292">
        <ele>805.72</ele>
        <time>2009-06-03T07:53:06.000Z</time>
      </trkpt>
      <trkpt lat="47.56516" lon="10.69298">
        <ele>804.76</ele>
        <time>2009-06-03T07:53:07.000Z</time>
      </trkpt>
      <trkpt lat="47.56506" lon="10.69311">
        <ele>804.28</ele>
        <time>2009-06-03T07:53:09.000Z</time>
      </trkpt>
      <trkpt lat="47.56497" lon="10.69322">
        <ele>803.32</ele>
        <time>2009-06-03T07:53:11.000Z</time>
      </trkpt>
      <trkpt lat="47.56473" lon="10.69322">
        <ele>802.36</ele>
        <time>2009-06-03T07:53:16.000Z</time>
      </trkpt>
      <trkpt lat="47.56454" lon="10.69301">
        <ele>806.20</ele>
        <time>2009-06-03T07:53:27.000Z</time>
      </trkpt>
      <trkpt lat="47.56435" lon="10.69292">
        <ele>809.09</ele>
        <time>2009-06-03T07:53:37.000Z</time>
      </trkpt>
      <trkpt lat="47.56389" lon="10.69306">
        <ele>809.57</ele>
        <time>2009-06-03T07:53:51.000Z</time>
      </trkpt>
      <trkpt lat="47.56338" lon="10.69314">
        <ele>811.49</ele>
        <time>2009-06-03T07:54:06.000Z</time>
      </trkpt>
      <trkpt lat="47.56322" lon="10.69350">
        <ele>814.85</ele>
        <time>2009-06-03T07:54:19.000Z</time>
      </trkpt>
      <trkpt lat="47.56316" lon="10.69363">
        <ele>817.26</ele>
        <time>2009-06-03T07:54:25.000Z</time>
      </trkpt>
      <trkpt lat="47.56296" lon="10.69370">
        <ele>820.14</ele>
        <time>2009-06-03T07:54:37.000Z</time>
      </trkpt>
      <trkpt lat="47.56281" lon="10.69367">
        <ele>822.06</ele>
        <time>2009-06-03T07:54:45.000Z</time>
      </trkpt>
      <trkpt lat="47.56247" lon="10.69361">
        <ele>825.43</ele>
        <time>2009-06-03T07:55:04.000Z</time>
      </trkpt>
      <trkpt lat="47.56239" lon="10.69358">
        <ele>825.91</ele>
        <time>2009-06-03T07:55:27.000Z</time>
      </trkpt>
      <trkpt lat="47.56229" lon="10.69361">
        <ele>824.95</ele>
        <time>2009-06-03T07:55:33.000Z</time>
      </trkpt>
      <trkpt lat="47.56211" lon="10.69387">
        <ele>822.55</ele>
        <time>2009-06-03T07:55:41.000Z</time>
      </trkpt>
      <trkpt lat="47.56211" lon="10.69391">
        <ele>821.10</ele>
        <time>2009-06-03T07:55:43.000Z</time>
      </trkpt>
      <trkpt lat="47.56208" lon="10.69404">
        <ele>818.22</ele>
        <time>2009-06-03T07:55:55.000Z</time>
      </trkpt>
      <trkpt lat="47.56208" lon="10.69419">
        <ele>815.34</ele>
        <time>2009-06-03T07:56:09.000Z</time>
      </trkpt>
      <trkpt lat="47.56209" lon="10.69447">
        <ele>812.93</ele>
        <time>2009-06-03T07:56:21.000Z</time>
      </trkpt>
      <trkpt lat="47.56211" lon="10.69464">
        <ele>811.49</ele>
        <time>2009-06-03T07:56:24.000Z</time>
      </trkpt>
      <trkpt lat="47.56198" lon="10.69494">
        <ele>811.01</ele>
        <time>2009-06-03T07:56:36.000Z</time>
      </trkpt>
      <trkpt lat="47.56197" lon="10.69503">
        <ele>811.49</ele>
        <time>2009-06-03T07:57:20.000Z</time>
      </trkpt>
      <trkpt lat="47.56196" lon="10.69512">
        <ele>812.93</ele>
        <time>2009-06-03T07:57:36.000Z</time>
      </trkpt>
      <trkpt lat="47.56199" lon="10.69513">
        <ele>815.34</ele>
        <time>2009-06-03T07:57:43.000Z</time>
      </trkpt>
      <trkpt lat="47.56202" lon="10.69515">
        <ele>817.26</ele>
        <time>2009-06-03T07:57:49.000Z</time>
      </trkpt>
      <trkpt lat="47.56205" lon="10.69525">
        <ele>818.22</ele>
        <time>2009-06-03T07:58:06.000Z</time>
      </trkpt>
      <trkpt lat="47.56197" lon="10.69538">
        <ele>817.26</ele>
        <time>2009-06-03T08:01:19.000Z</time>
      </trkpt>
      <trkpt lat="47.56186" lon="10.69581">
        <ele>819.66</ele>
        <time>2009-06-03T08:01:32.000Z</time>
      </trkpt>
      <trkpt lat="47.56174" lon="10.69618">
        <ele>823.03</ele>
        <time>2009-06-03T08:01:48.000Z</time>
      </trkpt>
      <trkpt lat="47.56170" lon="10.69637">
        <ele>825.91</ele>
        <time>2009-06-03T08:01:56.000Z</time>
      </trkpt>
      <trkpt lat="47.56170" lon="10.69657">
        <ele>828.31</ele>
        <time>2009-06-03T08:02:03.000Z</time>
      </trkpt>
      <trkpt lat="47.56183" lon="10.69671">
        <ele>828.79</ele>
        <time>2009-06-03T08:02:07.000Z</time>
      </trkpt>
      <trkpt lat="47.56206" lon="10.69673">
        <ele>830.72</ele>
        <time>2009-06-03T08:02:25.000Z</time>
      </trkpt>
      <trkpt lat="47.56229" lon="10.69685">
        <ele>833.60</ele>
        <time>2009-06-03T08:02:40.000Z</time>
      </trkpt>
      <trkpt lat="47.56232" lon="10.69689">
        <ele>834.56</ele>
        <time>2009-06-03T08:02:42.000Z</time>
      </trkpt>
      <trkpt lat="47.56248" lon="10.69723">
        <ele>837.93</ele>
        <time>2009-06-03T08:02:58.000Z</time>
      </trkpt>
      <trkpt lat="47.56249" lon="10.69729">
        <ele>836.96</ele>
        <time>2009-06-03T08:03:31.000Z</time>
      </trkpt>
      <trkpt lat="47.56250" lon="10.69737">
        <ele>837.45</ele>
        <time>2009-06-03T08:04:01.000Z</time>
      </trkpt>
      <trkpt lat="47.56252" lon="10.69756">
        <ele>839.85</ele>
        <time>2009-06-03T08:04:10.000Z</time>
      </trkpt>
      <trkpt lat="47.56252" lon="10.69759">
        <ele>839.85</ele>
        <time>2009-06-03T08:04:11.000Z</time>
      </trkpt>
      <trkpt lat="47.56249" lon="10.69790">
        <ele>843.69</ele>
        <time>2009-06-03T08:04:24.000Z</time>
      </trkpt>
      <trkpt lat="47.56233" lon="10.69808">
        <ele>846.58</ele>
        <time>2009-06-03T08:04:38.000Z</time>
      </trkpt>
      <trkpt lat="47.56221" lon="10.69812">
        <ele>848.98</ele>
        <time>2009-06-03T08:04:44.000Z</time>
      </trkpt>
      <trkpt lat="47.56212" lon="10.69818">
        <ele>850.90</ele>
        <time>2009-06-03T08:04:49.000Z</time>
      </trkpt>
      <trkpt lat="47.56182" lon="10.69814">
        <ele>853.79</ele>
        <time>2009-06-03T08:05:06.000Z</time>
      </trkpt>
      <trkpt lat="47.56163" lon="10.69813">
        <ele>854.75</ele>
        <time>2009-06-03T08:05:16.000Z</time>
      </trkpt>
      <trkpt lat="47.56144" lon="10.69835">
        <ele>857.15</ele>
        <time>2009-06-03T08:05:30.000Z</time>
      </trkpt>
      <trkpt lat="47.56125" lon="10.69867">
        <ele>859.56</ele>
        <time>2009-06-03T08:05:46.000Z</time>
      </trkpt>
      <trkpt lat="47.56099" lon="10.69896">
        <ele>862.92</ele>
        <time>2009-06-03T08:06:01.000Z</time>
      </trkpt>
      <trkpt lat="47.56089" lon="10.69912">
        <ele>862.92</ele>
        <time>2009-06-03T08:06:07.000Z</time>
      </trkpt>
      <trkpt lat="47.56079" lon="10.69930">
        <ele>863.40</ele>
        <time>2009-06-03T08:06:14.000Z</time>
      </trkpt>
      <trkpt lat="47.56070" lon="10.69939">
        <ele>864.36</ele>
        <time>2009-06-03T08:06:18.000Z</time>
      </trkpt>
      <trkpt lat="47.56061" lon="10.69951">
        <ele>867.25</ele>
        <time>2009-06-03T08:06:24.000Z</time>
      </trkpt>
      <trkpt lat="47.56035" lon="10.69998">
        <ele>867.25</ele>
        <time>2009-06-03T08:06:41.000Z</time>
      </trkpt>
      <trkpt lat="47.56034" lon="10.70000">
        <ele>866.77</ele>
        <time>2009-06-03T08:06:42.000Z</time>
      </trkpt>
      <trkpt lat="47.56023" lon="10.70019">
        <ele>869.17</ele>
        <time>2009-06-03T08:06:50.000Z</time>
      </trkpt>
      <trkpt lat="47.56020" lon="10.70025">
        <ele>868.69</ele>
        <time>2009-06-03T08:07:16.000Z</time>
      </trkpt>
      <trkpt lat="47.56020" lon="10.70026">
        <ele>870.13</ele>
        <time>2009-06-03T08:08:28.000Z</time>
      </trkpt>
      <trkpt lat="47.56016" lon="10.70038">
        <ele>870.61</ele>
        <time>2009-06-03T08:08:33.000Z</time>
      </trkpt>
      <trkpt lat="47.56013" lon="10.70084">
        <ele>874.46</ele>
        <time>2009-06-03T08:08:49.000Z</time>
      </trkpt>
      <trkpt lat="47.56018" lon="10.70118">
        <ele>877.82</ele>
        <time>2009-06-03T08:09:00.000Z</time>
      </trkpt>
      <trkpt lat="47.56022" lon="10.70177">
        <ele>878.78</ele>
        <time>2009-06-03T08:09:18.000Z</time>
      </trkpt>
      <trkpt lat="47.56033" lon="10.70249">
        <ele>881.19</ele>
        <time>2009-06-03T08:09:40.000Z</time>
      </trkpt>
      <trkpt lat="47.56034" lon="10.70255">
        <ele>881.67</ele>
        <time>2009-06-03T08:09:42.000Z</time>
      </trkpt>
      <trkpt lat="47.56051" lon="10.70327">
        <ele>882.63</ele>
        <time>2009-06-03T08:10:06.000Z</time>
      </trkpt>
      <trkpt lat="47.56069" lon="10.70396">
        <ele>881.67</ele>
        <time>2009-06-03T08:10:24.000Z</time>
      </trkpt>
      <trkpt lat="47.56075" lon="10.70427">
        <ele>885.03</ele>
        <time>2009-06-03T08:10:33.000Z</time>
      </trkpt>
      <trkpt lat="47.56095" lon="10.70496">
        <ele>886.47</ele>
        <time>2009-06-03T08:10:55.000Z</time>
      </trkpt>
      <trkpt lat="47.56111" lon="10.70570">
        <ele>886.95</ele>
        <time>2009-06-03T08:11:16.000Z</time>
      </trkpt>
      <trkpt lat="47.56105" lon="10.70639">
        <ele>885.03</ele>
        <time>2009-06-03T08:11:33.000Z</time>
      </trkpt>
      <trkpt lat="47.56105" lon="10.70655">
        <ele>883.59</ele>
        <time>2009-06-03T08:11:36.000Z</time>
      </trkpt>
      <trkpt lat="47.56106" lon="10.70680">
        <ele>881.67</ele>
        <time>2009-06-03T08:11:40.000Z</time>
      </trkpt>
      <trkpt lat="47.56105" lon="10.70725">
        <ele>879.74</ele>
        <time>2009-06-03T08:11:46.000Z</time>
      </trkpt>
      <trkpt lat="47.56109" lon="10.70766">
        <ele>876.38</ele>
        <time>2009-06-03T08:11:50.000Z</time>
      </trkpt>
      <trkpt lat="47.56117" lon="10.70800">
        <ele>873.98</ele>
        <time>2009-06-03T08:11:53.000Z</time>
      </trkpt>
      <trkpt lat="47.56136" lon="10.70831">
        <ele>875.90</ele>
        <time>2009-06-03T08:11:57.000Z</time>
      </trkpt>
      <trkpt lat="47.56139" lon="10.70877">
        <ele>875.90</ele>
        <time>2009-06-03T08:12:03.000Z</time>
      </trkpt>
      <trkpt lat="47.56121" lon="10.70927">
        <ele>871.09</ele>
        <time>2009-06-03T08:12:09.000Z</time>
      </trkpt>
      <trkpt lat="47.56103" lon="10.70968">
        <ele>867.25</ele>
        <time>2009-06-03T08:12:13.000Z</time>
      </trkpt>
      <trkpt lat="47.56092" lon="10.70989">
        <ele>863.88</ele>
        <time>2009-06-03T08:12:15.000Z</time>
      </trkpt>
      <trkpt lat="47.56080" lon="10.71012">
        <ele>862.44</ele>
        <time>2009-06-03T08:12:17.000Z</time>
      </trkpt>
      <trkpt lat="47.56057" lon="10.71089">
        <ele>857.63</ele>
        <time>2009-06-03T08:12:22.000Z</time>
      </trkpt>
      <trkpt lat="47.56049" lon="10.71159">
        <ele>850.42</ele>
        <time>2009-06-03T08:12:26.000Z</time>
      </trkpt>
      <trkpt lat="47.56045" lon="10.71193">
        <ele>847.54</ele>
        <time>2009-06-03T08:12:28.000Z</time>
      </trkpt>
      <trkpt lat="47.56038" lon="10.71242">
        <ele>843.69</ele>
        <time>2009-06-03T08:12:31.000Z</time>
      </trkpt>
      <trkpt lat="47.56035" lon="10.71275">
        <ele>839.37</ele>
        <time>2009-06-03T08:12:33.000Z</time>
      </trkpt>
      <trkpt lat="47.56031" lon="10.71324">
        <ele>836.48</ele>
        <time>2009-06-03T08:12:36.000Z</time>
      </trkpt>
      <trkpt lat="47.56029" lon="10.71363">
        <ele>836.48</ele>
        <time>2009-06-03T08:12:39.000Z</time>
      </trkpt>
      <trkpt lat="47.56011" lon="10.71358">
        <ele>833.12</ele>
        <time>2009-06-03T08:12:44.000Z</time>
      </trkpt>
      <trkpt lat="47.56010" lon="10.71347">
        <ele>830.72</ele>
        <time>2009-06-03T08:12:45.000Z</time>
      </trkpt>
      <trkpt lat="47.56006" lon="10.71325">
        <ele>830.24</ele>
        <time>2009-06-03T08:12:47.000Z</time>
      </trkpt>
      <trkpt lat="47.55993" lon="10.71262">
        <ele>828.31</ele>
        <time>2009-06-03T08:12:53.000Z</time>
      </trkpt>
      <trkpt lat="47.55976" lon="10.71264">
        <ele>823.99</ele>
        <time>2009-06-03T08:12:58.000Z</time>
      </trkpt>
      <trkpt lat="47.55975" lon="10.71272">
        <ele>824.47</ele>
        <time>2009-06-03T08:12:59.000Z</time>
      </trkpt>
      <trkpt lat="47.55974" lon="10.71292">
        <ele>823.03</ele>
        <time>2009-06-03T08:13:01.000Z</time>
      </trkpt>
      <trkpt lat="47.55973" lon="10.71315">
        <ele>820.62</ele>
        <time>2009-06-03T08:13:03.000Z</time>
      </trkpt>
      <trkpt lat="47.55966" lon="10.71367">
        <ele>816.30</ele>
        <time>2009-06-03T08:13:07.000Z</time>
      </trkpt>
      <trkpt lat="47.55960" lon="10.71391">
        <ele>813.41</ele>
        <time>2009-06-03T08:13:09.000Z</time>
      </trkpt>
      <trkpt lat="47.55960" lon="10.71447">
        <ele>808.13</ele>
        <time>2009-06-03T08:13:13.000Z</time>
      </trkpt>
      <trkpt lat="47.55959" lon="10.71460">
        <ele>806.68</ele>
        <time>2009-06-03T08:13:14.000Z</time>
      </trkpt>
      <trkpt lat="47.55952" lon="10.71507">
        <ele>805.24</ele>
        <time>2009-06-03T08:13:17.000Z</time>
      </trkpt>
      <trkpt lat="47.55942" lon="10.71593">
        <ele>800.92</ele>
        <time>2009-06-03T08:13:26.000Z</time>
      </trkpt>
      <trkpt lat="47.55941" lon="10.71598">
        <ele>800.44</ele>
        <time>2009-06-03T08:13:27.000Z</time>
      </trkpt>
      <trkpt lat="47.55931" lon="10.71614">
        <ele>800.44</ele>
        <time>2009-06-03T08:13:39.000Z</time>
      </trkpt>
      <trkpt lat="47.55931" lon="10.71604">
        <ele>800.92</ele>
        <time>2009-06-03T08:15:38.000Z</time>
      </trkpt>
      <trkpt lat="47.55937" lon="10.71565">
        <ele>800.44</ele>
        <time>2009-06-03T08:15:47.000Z</time>
      </trkpt>
      <trkpt lat="47.55926" lon="10.71545">
        <ele>800.44</ele>
        <time>2009-06-03T08:15:53.000Z</time>
      </trkpt>
      <trkpt lat="47.55880" lon="10.71523">
        <ele>800.44</ele>
        <time>2009-06-03T08:16:10.000Z</time>
      </trkpt>
      <trkpt lat="47.55807" lon="10.71538">
        <ele>799.95</ele>
        <time>2009-06-03T08:16:31.000Z</time>
      </trkpt>
      <trkpt lat="47.55747" lon="10.71581">
        <ele>798.99</ele>
        <time>2009-06-03T08:16:49.000Z</time>
      </trkpt>
      <trkpt lat="47.55716" lon="10.71605">
        <ele>799.47</ele>
        <time>2009-06-03T08:16:57.000Z</time>
      </trkpt>
      <trkpt lat="47.55697" lon="10.71612">
        <ele>799.47</ele>
        <time>2009-06-03T08:17:01.000Z</time>
      </trkpt>
      <trkpt lat="47.55688" lon="10.71645">
        <ele>800.44</ele>
        <time>2009-06-03T08:17:08.000Z</time>
      </trkpt>
      <trkpt lat="47.55682" lon="10.71719">
        <ele>799.95</ele>
        <time>2009-06-03T08:17:21.000Z</time>
      </trkpt>
      <trkpt lat="47.55682" lon="10.71726">
        <ele>799.95</ele>
        <time>2009-06-03T08:17:22.000Z</time>
      </trkpt>
      <trkpt lat="47.55674" lon="10.71768">
        <ele>799.47</ele>
        <time>2009-06-03T08:17:29.000Z</time>
      </trkpt>
      <trkpt lat="47.55648" lon="10.71843">
        <ele>800.44</ele>
        <time>2009-06-03T08:17:43.000Z</time>
      </trkpt>
      <trkpt lat="47.55636" lon="10.71907">
        <ele>800.44</ele>
        <time>2009-06-03T08:17:55.000Z</time>
      </trkpt>
      <trkpt lat="47.55635" lon="10.71913">
        <ele>799.95</ele>
        <time>2009-06-03T08:17:56.000Z</time>
      </trkpt>
      <trkpt lat="47.55625" lon="10.71947">
        <ele>799.95</ele>
        <time>2009-06-03T08:18:01.000Z</time>
      </trkpt>
      <trkpt lat="47.55616" lon="10.71977">
        <ele>799.47</ele>
        <time>2009-06-03T08:18:07.000Z</time>
      </trkpt>
      <trkpt lat="47.55597" lon="10.72047">
        <ele>799.95</ele>
        <time>2009-06-03T08:18:20.000Z</time>
      </trkpt>
      <trkpt lat="47.55588" lon="10.72074">
        <ele>799.47</ele>
        <time>2009-06-03T08:18:25.000Z</time>
      </trkpt>
      <trkpt lat="47.55568" lon="10.72143">
        <ele>799.47</ele>
        <time>2009-06-03T08:18:39.000Z</time>
      </trkpt>
      <trkpt lat="47.55560" lon="10.72166">
        <ele>799.95</ele>
        <time>2009-06-03T08:18:44.000Z</time>
      </trkpt>
      <trkpt lat="47.55546" lon="10.72233">
        <ele>799.47</ele>
        <time>2009-06-03T08:18:56.000Z</time>
      </trkpt>
      <trkpt lat="47.55524" lon="10.72291">
        <ele>799.47</ele>
        <time>2009-06-03T08:19:09.000Z</time>
      </trkpt>
      <trkpt lat="47.55508" lon="10.72359">
        <ele>799.95</ele>
        <time>2009-06-03T08:19:21.000Z</time>
      </trkpt>
      <trkpt lat="47.55495" lon="10.72410">
        <ele>798.99</ele>
        <time>2009-06-03T08:19:30.000Z</time>
      </trkpt>
      <trkpt lat="47.55484" lon="10.72461">
        <ele>799.95</ele>
        <time>2009-06-03T08:19:39.000Z</time>
      </trkpt>
      <trkpt lat="47.55472" lon="10.72483">
        <ele>798.99</ele>
        <time>2009-06-03T08:19:45.000Z</time>
      </trkpt>
      <trkpt lat="47.55469" lon="10.72499">
        <ele>799.95</ele>
        <time>2009-06-03T08:19:50.000Z</time>
      </trkpt>
      <trkpt lat="47.55470" lon="10.72513">
        <ele>799.95</ele>
        <time>2009-06-03T08:20:08.000Z</time>
      </trkpt>
      <trkpt lat="47.55467" lon="10.72518">
        <ele>799.47</ele>
        <time>2009-06-03T08:21:37.000Z</time>
      </trkpt>
      <trkpt lat="47.55468" lon="10.72535">
        <ele>799.47</ele>
        <time>2009-06-03T08:21:40.000Z</time>
      </trkpt>
      <trkpt lat="47.55470" lon="10.72557">
        <ele>800.44</ele>
        <time>2009-06-03T08:21:53.000Z</time>
      </trkpt>
      <trkpt lat="47.55483" lon="10.72589">
        <ele>800.44</ele>
        <time>2009-06-03T08:21:57.000Z</time>
      </trkpt>
      <trkpt lat="47.55477" lon="10.72589">
        <ele>801.88</ele>
        <time>2009-06-03T08:22:06.000Z</time>
      </trkpt>
      <trkpt lat="47.55472" lon="10.72574">
        <ele>803.80</ele>
        <time>2009-06-03T08:22:13.000Z</time>
      </trkpt>
      <trkpt lat="47.55464" lon="10.72560">
        <ele>806.68</ele>
        <time>2009-06-03T08:22:22.000Z</time>
      </trkpt>
      <trkpt lat="47.55463" lon="10.72583">
        <ele>807.64</ele>
        <time>2009-06-03T08:22:26.000Z</time>
      </trkpt>
      <trkpt lat="47.55466" lon="10.72607">
        <ele>810.05</ele>
        <time>2009-06-03T08:22:43.000Z</time>
      </trkpt>
      <trkpt lat="47.55466" lon="10.72609">
        <ele>810.05</ele>
        <time>2009-06-03T08:22:44.000Z</time>
      </trkpt>
      <trkpt lat="47.55468" lon="10.72621">
        <ele>811.97</ele>
        <time>2009-06-03T08:22:50.000Z</time>
      </trkpt>
      <trkpt lat="47.55471" lon="10.72644">
        <ele>814.85</ele>
        <time>2009-06-03T08:23:03.000Z</time>
      </trkpt>
      <trkpt lat="47.55471" lon="10.72657">
        <ele>816.30</ele>
        <time>2009-06-03T08:23:09.000Z</time>
      </trkpt>
      <trkpt lat="47.55476" lon="10.72673">
        <ele>819.18</ele>
        <time>2009-06-03T08:23:17.000Z</time>
      </trkpt>
      <trkpt lat="47.55484" lon="10.72681">
        <ele>819.66</ele>
        <time>2009-06-03T08:23:24.000Z</time>
      </trkpt>
      <trkpt lat="47.55491" lon="10.72681">
        <ele>820.62</ele>
        <time>2009-06-03T08:23:28.000Z</time>
      </trkpt>
      <trkpt lat="47.55490" lon="10.72685">
        <ele>822.06</ele>
        <time>2009-06-03T08:23:33.000Z</time>
      </trkpt>
      <trkpt lat="47.55479" lon="10.72685">
        <ele>823.03</ele>
        <time>2009-06-03T08:23:39.000Z</time>
      </trkpt>
      <trkpt lat="47.55466" lon="10.72664">
        <ele>823.99</ele>
        <time>2009-06-03T08:23:52.000Z</time>
      </trkpt>
      <trkpt lat="47.55460" lon="10.72658">
        <ele>825.91</ele>
        <time>2009-06-03T08:24:07.000Z</time>
      </trkpt>
      <trkpt lat="47.55458" lon="10.72661">
        <ele>826.87</ele>
        <time>2009-06-03T08:24:08.000Z</time>
      </trkpt>
      <trkpt lat="47.55462" lon="10.72671">
        <ele>827.83</ele>
        <time>2009-06-03T08:24:12.000Z</time>
      </trkpt>
      <trkpt lat="47.55464" lon="10.72677">
        <ele>829.76</ele>
        <time>2009-06-03T08:24:19.000Z</time>
      </trkpt>
      <trkpt lat="47.55468" lon="10.72690">
        <ele>829.76</ele>
        <time>2009-06-03T08:24:25.000Z</time>
      </trkpt>
      <trkpt lat="47.55470" lon="10.72697">
        <ele>831.20</ele>
        <time>2009-06-03T08:24:30.000Z</time>
      </trkpt>
      <trkpt lat="47.55476" lon="10.72714">
        <ele>832.16</ele>
        <time>2009-06-03T08:24:38.000Z</time>
      </trkpt>
      <trkpt lat="47.55478" lon="10.72717">
        <ele>832.64</ele>
        <time>2009-06-03T08:24:40.000Z</time>
      </trkpt>
      <trkpt lat="47.55479" lon="10.72720">
        <ele>834.08</ele>
        <time>2009-06-03T08:24:54.000Z</time>
      </trkpt>
      <trkpt lat="47.55474" lon="10.72726">
        <ele>834.08</ele>
        <time>2009-06-03T08:24:55.000Z</time>
      </trkpt>
      <trkpt lat="47.55468" lon="10.72724">
        <ele>836.96</ele>
        <time>2009-06-03T08:25:11.000Z</time>
      </trkpt>
      <trkpt lat="47.55461" lon="10.72713">
        <ele>837.45</ele>
        <time>2009-06-03T08:25:15.000Z</time>
      </trkpt>
      <trkpt lat="47.55455" lon="10.72702">
        <ele>839.37</ele>
        <time>2009-06-03T08:25:28.000Z</time>
      </trkpt>
      <trkpt lat="47.55456" lon="10.72694">
        <ele>839.85</ele>
        <time>2009-06-03T08:25:31.000Z</time>
      </trkpt>
      <trkpt lat="47.55453" lon="10.72677">
        <ele>841.77</ele>
        <time>2009-06-03T08:25:38.000Z</time>
      </trkpt>
      <trkpt lat="47.55447" lon="10.72670">
        <ele>843.69</ele>
        <time>2009-06-03T08:25:47.000Z</time>
      </trkpt>
      <trkpt lat="47.55448" lon="10.72679">
        <ele>845.62</ele>
        <time>2009-06-03T08:25:57.000Z</time>
      </trkpt>
      <trkpt lat="47.55448" lon="10.72705">
        <ele>848.50</ele>
        <time>2009-06-03T08:26:08.000Z</time>
      </trkpt>
      <trkpt lat="47.55445" lon="10.72716">
        <ele>849.46</ele>
        <time>2009-06-03T08:26:14.000Z</time>
      </trkpt>
      <trkpt lat="47.55444" lon="10.72728">
        <ele>850.90</ele>
        <time>2009-06-03T08:26:20.000Z</time>
      </trkpt>
      <trkpt lat="47.55455" lon="10.72754">
        <ele>852.35</ele>
        <time>2009-06-03T08:26:34.000Z</time>
      </trkpt>
      <trkpt lat="47.55457" lon="10.72775">
        <ele>854.75</ele>
        <time>2009-06-03T08:26:44.000Z</time>
      </trkpt>
      <trkpt lat="47.55453" lon="10.72770">
        <ele>856.19</ele>
        <time>2009-06-03T08:26:48.000Z</time>
      </trkpt>
      <trkpt lat="47.55450" lon="10.72766">
        <ele>857.15</ele>
        <time>2009-06-03T08:26:51.000Z</time>
      </trkpt>
      <trkpt lat="47.55438" lon="10.72753">
        <ele>858.59</ele>
        <time>2009-06-03T08:27:01.000Z</time>
      </trkpt>
      <trkpt lat="47.55433" lon="10.72754">
        <ele>859.56</ele>
        <time>2009-06-03T08:27:05.000Z</time>
      </trkpt>
      <trkpt lat="47.55431" lon="10.72757">
        <ele>859.56</ele>
        <time>2009-06-03T08:27:08.000Z</time>
      </trkpt>
      <trkpt lat="47.55431" lon="10.72760">
        <ele>860.04</ele>
        <time>2009-06-03T08:27:10.000Z</time>
      </trkpt>
      <trkpt lat="47.55443" lon="10.72775">
        <ele>861.00</ele>
        <time>2009-06-03T08:27:20.000Z</time>
      </trkpt>
      <trkpt lat="47.55445" lon="10.72781">
        <ele>862.44</ele>
        <time>2009-06-03T08:27:23.000Z</time>
      </trkpt>
      <trkpt lat="47.55455" lon="10.72820">
        <ele>863.88</ele>
        <time>2009-06-03T08:27:40.000Z</time>
      </trkpt>
      <trkpt lat="47.55459" lon="10.72834">
        <ele>865.32</ele>
        <time>2009-06-03T08:27:47.000Z</time>
      </trkpt>
      <trkpt lat="47.55466" lon="10.72846">
        <ele>869.17</ele>
        <time>2009-06-03T08:27:55.000Z</time>
      </trkpt>
      <trkpt lat="47.55466" lon="10.72848">
        <ele>869.17</ele>
        <time>2009-06-03T08:27:56.000Z</time>
      </trkpt>
      <trkpt lat="47.55469" lon="10.72860">
        <ele>868.69</ele>
        <time>2009-06-03T08:28:15.000Z</time>
      </trkpt>
      <trkpt lat="47.55455" lon="10.72906">
        <ele>865.32</ele>
        <time>2009-06-03T08:28:29.000Z</time>
      </trkpt>
      <trkpt lat="47.55439" lon="10.72933">
        <ele>863.40</ele>
        <time>2009-06-03T08:28:33.000Z</time>
      </trkpt>
      <trkpt lat="47.55422" lon="10.72977">
        <ele>863.40</ele>
        <time>2009-06-03T08:28:46.000Z</time>
      </trkpt>
      <trkpt lat="47.55414" lon="10.73026">
        <ele>863.88</ele>
        <time>2009-06-03T08:28:50.000Z</time>
      </trkpt>
      <trkpt lat="47.55404" lon="10.73038">
        <ele>864.84</ele>
        <time>2009-06-03T08:30:16.000Z</time>
      </trkpt>
      <trkpt lat="47.55406" lon="10.73054">
        <ele>864.36</ele>
        <time>2009-06-03T08:30:41.000Z</time>
      </trkpt>
      <trkpt lat="47.55407" lon="10.73066">
        <ele>861.96</ele>
        <time>2009-06-03T08:30:43.000Z</time>
      </trkpt>
      <trkpt lat="47.55413" lon="10.73096">
        <ele>857.63</ele>
        <time>2009-06-03T08:30:46.000Z</time>
      </trkpt>
      <trkpt lat="47.55421" lon="10.73135">
        <ele>853.79</ele>
        <time>2009-06-03T08:30:49.000Z</time>
      </trkpt>
      <trkpt lat="47.55425" lon="10.73169">
        <ele>849.46</ele>
        <time>2009-06-03T08:30:51.000Z</time>
      </trkpt>
      <trkpt lat="47.55429" lon="10.73205">
        <ele>846.58</ele>
        <time>2009-06-03T08:30:53.000Z</time>
      </trkpt>
      <trkpt lat="47.55432" lon="10.73251">
        <ele>846.10</ele>
        <time>2009-06-03T08:30:56.000Z</time>
      </trkpt>
      <trkpt lat="47.55433" lon="10.73274">
        <ele>846.10</ele>
        <time>2009-06-03T08:30:58.000Z</time>
      </trkpt>
      <trkpt lat="47.55425" lon="10.73314">
        <ele>844.18</ele>
        <time>2009-06-03T08:31:02.000Z</time>
      </trkpt>
      <trkpt lat="47.55411" lon="10.73364">
        <ele>840.33</ele>
        <time>2009-06-03T08:31:06.000Z</time>
      </trkpt>
      <trkpt lat="47.55398" lon="10.73406">
        <ele>836.00</ele>
        <time>2009-06-03T08:31:09.000Z</time>
      </trkpt>
      <trkpt lat="47.55390" lon="10.73432">
        <ele>833.12</ele>
        <time>2009-06-03T08:31:11.000Z</time>
      </trkpt>
      <trkpt lat="47.55386" lon="10.73445">
        <ele>833.12</ele>
        <time>2009-06-03T08:31:12.000Z</time>
      </trkpt>
      <trkpt lat="47.55384" lon="10.73458">
        <ele>833.60</ele>
        <time>2009-06-03T08:31:13.000Z</time>
      </trkpt>
      <trkpt lat="47.55378" lon="10.73539">
        <ele>831.20</ele>
        <time>2009-06-03T08:31:20.000Z</time>
      </trkpt>
      <trkpt lat="47.55377" lon="10.73588">
        <ele>830.72</ele>
        <time>2009-06-03T08:31:31.000Z</time>
      </trkpt>
      <trkpt lat="47.55393" lon="10.73628">
        <ele>830.72</ele>
        <time>2009-06-03T08:32:39.000Z</time>
      </trkpt>
      <trkpt lat="47.55432" lon="10.73694">
        <ele>831.20</ele>
        <time>2009-06-03T08:32:58.000Z</time>
      </trkpt>
      <trkpt lat="47.55434" lon="10.73729">
        <ele>833.12</ele>
        <time>2009-06-03T08:34:49.000Z</time>
      </trkpt>
      <trkpt lat="47.55427" lon="10.73750">
        <ele>835.04</ele>
        <time>2009-06-03T08:34:57.000Z</time>
      </trkpt>
      <trkpt lat="47.55410" lon="10.73745">
        <ele>835.52</ele>
        <time>2009-06-03T08:35:05.000Z</time>
      </trkpt>
      <trkpt lat="47.55386" lon="10.73763">
        <ele>838.89</ele>
        <time>2009-06-03T08:35:21.000Z</time>
      </trkpt>
      <trkpt lat="47.55393" lon="10.73798">
        <ele>840.81</ele>
        <time>2009-06-03T08:35:34.000Z</time>
      </trkpt>
      <trkpt lat="47.55397" lon="10.73809">
        <ele>841.29</ele>
        <time>2009-06-03T08:35:38.000Z</time>
      </trkpt>
      <trkpt lat="47.55399" lon="10.73863">
        <ele>845.14</ele>
        <time>2009-06-03T08:35:56.000Z</time>
      </trkpt>
      <trkpt lat="47.55394" lon="10.73892">
        <ele>847.54</ele>
        <time>2009-06-03T08:36:06.000Z</time>
      </trkpt>
      <trkpt lat="47.55391" lon="10.73907">
        <ele>847.54</ele>
        <time>2009-06-03T08:36:11.000Z</time>
      </trkpt>
      <trkpt lat="47.55390" lon="10.73914">
        <ele>848.02</ele>
        <time>2009-06-03T08:36:14.000Z</time>
      </trkpt>
      <trkpt lat="47.55388" lon="10.73948">
        <ele>850.42</ele>
        <time>2009-06-03T08:36:26.000Z</time>
      </trkpt>
      <trkpt lat="47.55383" lon="10.73985">
        <ele>852.83</ele>
        <time>2009-06-03T08:36:41.000Z</time>
      </trkpt>
      <trkpt lat="47.55378" lon="10.74004">
        <ele>854.27</ele>
        <time>2009-06-03T08:36:58.000Z</time>
      </trkpt>
      <trkpt lat="47.55371" lon="10.74002">
        <ele>859.08</ele>
        <time>2009-06-03T08:42:51.000Z</time>
      </trkpt>
      <trkpt lat="47.55358" lon="10.73989">
        <ele>861.96</ele>
        <time>2009-06-03T08:43:03.000Z</time>
      </trkpt>
      <trkpt lat="47.55347" lon="10.73987">
        <ele>864.84</ele>
        <time>2009-06-03T08:43:14.000Z</time>
      </trkpt>
      <trkpt lat="47.55335" lon="10.73982">
        <ele>868.69</ele>
        <time>2009-06-03T08:43:24.000Z</time>
      </trkpt>
      <trkpt lat="47.55324" lon="10.73976">
        <ele>871.57</ele>
        <time>2009-06-03T08:43:35.000Z</time>
      </trkpt>
      <trkpt lat="47.55311" lon="10.73969">
        <ele>873.98</ele>
        <time>2009-06-03T08:43:45.000Z</time>
      </trkpt>
      <trkpt lat="47.55309" lon="10.73970">
        <ele>873.50</ele>
        <time>2009-06-03T08:43:47.000Z</time>
      </trkpt>
      <trkpt lat="47.55300" lon="10.73980">
        <ele>875.42</ele>
        <time>2009-06-03T08:43:57.000Z</time>
      </trkpt>
      <trkpt lat="47.55299" lon="10.73983">
        <ele>876.38</ele>
        <time>2009-06-03T08:43:59.000Z</time>
      </trkpt>
      <trkpt lat="47.55293" lon="10.74010">
        <ele>878.78</ele>
        <time>2009-06-03T08:44:16.000Z</time>
      </trkpt>
      <trkpt lat="47.55292" lon="10.74022">
        <ele>880.22</ele>
        <time>2009-06-03T08:44:22.000Z</time>
      </trkpt>
      <trkpt lat="47.55288" lon="10.74041">
        <ele>883.11</ele>
        <time>2009-06-03T08:44:31.000Z</time>
      </trkpt>
      <trkpt lat="47.55283" lon="10.74076">
        <ele>885.03</ele>
        <time>2009-06-03T08:44:49.000Z</time>
      </trkpt>
      <trkpt lat="47.55278" lon="10.74092">
        <ele>886.95</ele>
        <time>2009-06-03T08:45:00.000Z</time>
      </trkpt>
      <trkpt lat="47.55273" lon="10.74108">
        <ele>889.36</ele>
        <time>2009-06-03T08:45:10.000Z</time>
      </trkpt>
      <trkpt lat="47.55271" lon="10.74113">
        <ele>889.36</ele>
        <time>2009-06-03T08:45:14.000Z</time>
      </trkpt>
      <trkpt lat="47.55270" lon="10.74116">
        <ele>890.80</ele>
        <time>2009-06-03T08:45:16.000Z</time>
      </trkpt>
      <trkpt lat="47.55257" lon="10.74145">
        <ele>894.16</ele>
        <time>2009-06-03T08:45:33.000Z</time>
      </trkpt>
      <trkpt lat="47.55259" lon="10.74163">
        <ele>895.61</ele>
        <time>2009-06-03T08:45:46.000Z</time>
      </trkpt>
      <trkpt lat="47.55263" lon="10.74188">
        <ele>899.45</ele>
        <time>2009-06-03T08:46:01.000Z</time>
      </trkpt>
      <trkpt lat="47.55264" lon="10.74190">
        <ele>899.93</ele>
        <time>2009-06-03T08:46:02.000Z</time>
      </trkpt>
      <trkpt lat="47.55267" lon="10.74206">
        <ele>902.33</ele>
        <time>2009-06-03T08:46:12.000Z</time>
      </trkpt>
      <trkpt lat="47.55270" lon="10.74216">
        <ele>903.30</ele>
        <time>2009-06-03T08:46:19.000Z</time>
      </trkpt>
      <trkpt lat="47.55271" lon="10.74236">
        <ele>906.66</ele>
        <time>2009-06-03T08:46:32.000Z</time>
      </trkpt>
      <trkpt lat="47.55284" lon="10.74254">
        <ele>910.51</ele>
        <time>2009-06-03T08:46:46.000Z</time>
      </trkpt>
      <trkpt lat="47.55298" lon="10.74274">
        <ele>913.39</ele>
        <time>2009-06-03T08:47:02.000Z</time>
      </trkpt>
      <trkpt lat="47.55304" lon="10.74285">
        <ele>914.83</ele>
        <time>2009-06-03T08:47:10.000Z</time>
      </trkpt>
      <trkpt lat="47.55306" lon="10.74313">
        <ele>917.72</ele>
        <time>2009-06-03T08:47:27.000Z</time>
      </trkpt>
      <trkpt lat="47.55305" lon="10.74318">
        <ele>917.72</ele>
        <time>2009-06-03T08:47:30.000Z</time>
      </trkpt>
      <trkpt lat="47.55307" lon="10.74324">
        <ele>919.64</ele>
        <time>2009-06-03T08:47:34.000Z</time>
      </trkpt>
      <trkpt lat="47.55307" lon="10.74331">
        <ele>920.12</ele>
        <time>2009-06-03T08:47:38.000Z</time>
      </trkpt>
      <trkpt lat="47.55308" lon="10.74341">
        <ele>921.56</ele>
        <time>2009-06-03T08:47:44.000Z</time>
      </trkpt>
      <trkpt lat="47.55313" lon="10.74366">
        <ele>925.41</ele>
        <time>2009-06-03T08:47:59.000Z</time>
      </trkpt>
      <trkpt lat="47.55313" lon="10.74368">
        <ele>925.41</ele>
        <time>2009-06-03T08:48:00.000Z</time>
      </trkpt>
      <trkpt lat="47.55314" lon="10.74372">
        <ele>925.89</ele>
        <time>2009-06-03T08:48:02.000Z</time>
      </trkpt>
      <trkpt lat="47.55318" lon="10.74391">
        <ele>927.33</ele>
        <time>2009-06-03T08:48:13.000Z</time>
      </trkpt>
      <trkpt lat="47.55319" lon="10.74400">
        <ele>928.77</ele>
        <time>2009-06-03T08:48:18.000Z</time>
      </trkpt>
      <trkpt lat="47.55325" lon="10.74425">
        <ele>931.65</ele>
        <time>2009-06-03T08:48:31.000Z</time>
      </trkpt>
      <trkpt lat="47.55325" lon="10.74452">
        <ele>932.62</ele>
        <time>2009-06-03T08:48:43.000Z</time>
      </trkpt>
      <trkpt lat="47.55328" lon="10.74487">
        <ele>935.50</ele>
        <time>2009-06-03T08:48:58.000Z</time>
      </trkpt>
      <trkpt lat="47.55328" lon="10.74508">
        <ele>937.42</ele>
        <time>2009-06-03T08:49:07.000Z</time>
      </trkpt>
      <trkpt lat="47.55330" lon="10.74533">
        <ele>940.31</ele>
        <time>2009-06-03T08:49:19.000Z</time>
      </trkpt>
      <trkpt lat="47.55331" lon="10.74543">
        <ele>940.79</ele>
        <time>2009-06-03T08:49:23.000Z</time>
      </trkpt>
      <trkpt lat="47.55332" lon="10.74552">
        <ele>941.27</ele>
        <time>2009-06-03T08:49:27.000Z</time>
      </trkpt>
      <trkpt lat="47.55333" lon="10.74554">
        <ele>941.75</ele>
        <time>2009-06-03T08:49:28.000Z</time>
      </trkpt>
      <trkpt lat="47.55349" lon="10.74576">
        <ele>942.23</ele>
        <time>2009-06-03T08:49:40.000Z</time>
      </trkpt>
      <trkpt lat="47.55356" lon="10.74573">
        <ele>943.19</ele>
        <time>2009-06-03T08:49:47.000Z</time>
      </trkpt>
      <trkpt lat="47.55359" lon="10.74569">
        <ele>943.67</ele>
        <time>2009-06-03T08:49:51.000Z</time>
      </trkpt>
      <trkpt lat="47.55374" lon="10.74557">
        <ele>947.04</ele>
        <time>2009-06-03T08:50:05.000Z</time>
      </trkpt>
      <trkpt lat="47.55388" lon="10.74551">
        <ele>949.92</ele>
        <time>2009-06-03T08:50:17.000Z</time>
      </trkpt>
      <trkpt lat="47.55396" lon="10.74555">
        <ele>951.36</ele>
        <time>2009-06-03T08:50:24.000Z</time>
      </trkpt>
      <trkpt lat="47.55399" lon="10.74581">
        <ele>954.73</ele>
        <time>2009-06-03T08:50:39.000Z</time>
      </trkpt>
      <trkpt lat="47.55399" lon="10.74583">
        <ele>954.73</ele>
        <time>2009-06-03T08:50:40.000Z</time>
      </trkpt>
      <trkpt lat="47.55399" lon="10.74590">
        <ele>955.69</ele>
        <time>2009-06-03T08:50:44.000Z</time>
      </trkpt>
      <trkpt lat="47.55397" lon="10.74611">
        <ele>958.57</ele>
        <time>2009-06-03T08:50:56.000Z</time>
      </trkpt>
      <trkpt lat="47.55391" lon="10.74644">
        <ele>960.98</ele>
        <time>2009-06-03T08:51:13.000Z</time>
      </trkpt>
      <trkpt lat="47.55392" lon="10.74663">
        <ele>962.42</ele>
        <time>2009-06-03T08:51:24.000Z</time>
      </trkpt>
      <trkpt lat="47.55391" lon="10.74684">
        <ele>966.26</ele>
        <time>2009-06-03T08:51:35.000Z</time>
      </trkpt>
      <trkpt lat="47.55393" lon="10.74695">
        <ele>966.74</ele>
        <time>2009-06-03T08:51:42.000Z</time>
      </trkpt>
      <trkpt lat="47.55394" lon="10.74704">
        <ele>967.22</ele>
        <time>2009-06-03T08:51:47.000Z</time>
      </trkpt>
      <trkpt lat="47.55395" lon="10.74714">
        <ele>967.70</ele>
        <time>2009-06-03T08:51:53.000Z</time>
      </trkpt>
      <trkpt lat="47.55399" lon="10.74724">
        <ele>970.11</ele>
        <time>2009-06-03T08:52:00.000Z</time>
      </trkpt>
      <trkpt lat="47.55408" lon="10.74729">
        <ele>973.47</ele>
        <time>2009-06-03T08:52:12.000Z</time>
      </trkpt>
      <trkpt lat="47.55414" lon="10.74728">
        <ele>974.91</ele>
        <time>2009-06-03T08:52:18.000Z</time>
      </trkpt>
      <trkpt lat="47.55422" lon="10.74724">
        <ele>978.28</ele>
        <time>2009-06-03T08:52:27.000Z</time>
      </trkpt>
      <trkpt lat="47.55439" lon="10.74713">
        <ele>980.68</ele>
        <time>2009-06-03T08:52:44.000Z</time>
      </trkpt>
      <trkpt lat="47.55452" lon="10.74714">
        <ele>983.57</ele>
        <time>2009-06-03T08:52:54.000Z</time>
      </trkpt>
      <trkpt lat="47.55466" lon="10.74737">
        <ele>986.93</ele>
        <time>2009-06-03T08:53:11.000Z</time>
      </trkpt>
      <trkpt lat="47.55469" lon="10.74758">
        <ele>990.30</ele>
        <time>2009-06-03T08:53:25.000Z</time>
      </trkpt>
      <trkpt lat="47.55470" lon="10.74776">
        <ele>992.70</ele>
        <time>2009-06-03T08:53:35.000Z</time>
      </trkpt>
      <trkpt lat="47.55469" lon="10.74795">
        <ele>995.58</ele>
        <time>2009-06-03T08:53:52.000Z</time>
      </trkpt>
      <trkpt lat="47.55469" lon="10.74803">
        <ele>995.10</ele>
        <time>2009-06-03T08:54:31.000Z</time>
      </trkpt>
      <trkpt lat="47.55462" lon="10.74814">
        <ele>997.51</ele>
        <time>2009-06-03T08:54:48.000Z</time>
      </trkpt>
      <trkpt lat="47.55453" lon="10.74830">
        <ele>999.43</ele>
        <time>2009-06-03T08:55:03.000Z</time>
      </trkpt>
      <trkpt lat="47.55451" lon="10.74829">
        <ele>994.62</ele>
        <time>2009-06-03T09:04:45.000Z</time>
      </trkpt>
      <trkpt lat="47.55441" lon="10.74824">
        <ele>993.66</ele>
        <time>2009-06-03T09:04:50.000Z</time>
      </trkpt>
      <trkpt lat="47.55431" lon="10.74833">
        <ele>994.62</ele>
        <time>2009-06-03T09:04:56.000Z</time>
      </trkpt>
      <trkpt lat="47.55427" lon="10.74838">
        <ele>996.54</ele>
        <time>2009-06-03T09:04:59.000Z</time>
      </trkpt>
      <trkpt lat="47.55409" lon="10.74841">
        <ele>996.54</ele>
        <time>2009-06-03T09:05:02.000Z</time>
      </trkpt>
      <trkpt lat="47.55392" lon="10.74841">
        <ele>999.43</ele>
        <time>2009-06-03T09:05:21.000Z</time>
      </trkpt>
      <trkpt lat="47.55361" lon="10.74843">
        <ele>1001.83</ele>
        <time>2009-06-03T09:05:39.000Z</time>
      </trkpt>
      <trkpt lat="47.55356" lon="10.74833">
        <ele>1001.35</ele>
        <time>2009-06-03T09:05:43.000Z</time>
      </trkpt>
      <trkpt lat="47.55338" lon="10.74806">
        <ele>1005.68</ele>
        <time>2009-06-03T09:05:59.000Z</time>
      </trkpt>
      <trkpt lat="47.55326" lon="10.74802">
        <ele>1007.60</ele>
        <time>2009-06-03T09:06:10.000Z</time>
      </trkpt>
      <trkpt lat="47.55313" lon="10.74805">
        <ele>1011.44</ele>
        <time>2009-06-03T09:06:21.000Z</time>
      </trkpt>
      <trkpt lat="47.55292" lon="10.74795">
        <ele>1013.85</ele>
        <time>2009-06-03T09:06:40.000Z</time>
      </trkpt>
      <trkpt lat="47.55280" lon="10.74770">
        <ele>1017.21</ele>
        <time>2009-06-03T09:06:56.000Z</time>
      </trkpt>
      <trkpt lat="47.55271" lon="10.74743">
        <ele>1020.58</ele>
        <time>2009-06-03T09:07:11.000Z</time>
      </trkpt>
      <trkpt lat="47.55264" lon="10.74727">
        <ele>1022.02</ele>
        <time>2009-06-03T09:07:20.000Z</time>
      </trkpt>
      <trkpt lat="47.55258" lon="10.74731">
        <ele>1022.50</ele>
        <time>2009-06-03T09:07:25.000Z</time>
      </trkpt>
      <trkpt lat="47.55257" lon="10.74735">
        <ele>1022.98</ele>
        <time>2009-06-03T09:07:27.000Z</time>
      </trkpt>
      <trkpt lat="47.55263" lon="10.74764">
        <ele>1025.86</ele>
        <time>2009-06-03T09:07:44.000Z</time>
      </trkpt>
      <trkpt lat="47.55265" lon="10.74774">
        <ele>1027.79</ele>
        <time>2009-06-03T09:07:50.000Z</time>
      </trkpt>
      <trkpt lat="47.55266" lon="10.74784">
        <ele>1028.27</ele>
        <time>2009-06-03T09:07:56.000Z</time>
      </trkpt>
      <trkpt lat="47.55265" lon="10.74810">
        <ele>1032.59</ele>
        <time>2009-06-03T09:08:10.000Z</time>
      </trkpt>
      <trkpt lat="47.55265" lon="10.74812">
        <ele>1032.59</ele>
        <time>2009-06-03T09:08:11.000Z</time>
      </trkpt>
      <trkpt lat="47.55266" lon="10.74823">
        <ele>1034.52</ele>
        <time>2009-06-03T09:08:18.000Z</time>
      </trkpt>
      <trkpt lat="47.55272" lon="10.74844">
        <ele>1036.92</ele>
        <time>2009-06-03T09:08:31.000Z</time>
      </trkpt>
      <trkpt lat="47.55274" lon="10.74849">
        <ele>1037.40</ele>
        <time>2009-06-03T09:08:34.000Z</time>
      </trkpt>
      <trkpt lat="47.55282" lon="10.74876">
        <ele>1040.76</ele>
        <time>2009-06-03T09:08:52.000Z</time>
      </trkpt>
      <trkpt lat="47.55287" lon="10.74901">
        <ele>1043.65</ele>
        <time>2009-06-03T09:09:06.000Z</time>
      </trkpt>
      <trkpt lat="47.55288" lon="10.74915">
        <ele>1046.53</ele>
        <time>2009-06-03T09:09:14.000Z</time>
      </trkpt>
      <trkpt lat="47.55287" lon="10.74929">
        <ele>1047.97</ele>
        <time>2009-06-03T09:09:22.000Z</time>
      </trkpt>
      <trkpt lat="47.55286" lon="10.74934">
        <ele>1049.90</ele>
        <time>2009-06-03T09:09:25.000Z</time>
      </trkpt>
      <trkpt lat="47.55271" lon="10.74965">
        <ele>1052.30</ele>
        <time>2009-06-03T09:09:45.000Z</time>
      </trkpt>
      <trkpt lat="47.55261" lon="10.74980">
        <ele>1054.70</ele>
        <time>2009-06-03T09:09:56.000Z</time>
      </trkpt>
      <trkpt lat="47.55248" lon="10.74982">
        <ele>1057.59</ele>
        <time>2009-06-03T09:10:08.000Z</time>
      </trkpt>
      <trkpt lat="47.55224" lon="10.74963">
        <ele>1060.47</ele>
        <time>2009-06-03T09:10:29.000Z</time>
      </trkpt>
      <trkpt lat="47.55218" lon="10.74959">
        <ele>1062.87</ele>
        <time>2009-06-03T09:10:35.000Z</time>
      </trkpt>
      <trkpt lat="47.55214" lon="10.74958">
        <ele>1062.87</ele>
        <time>2009-06-03T09:10:38.000Z</time>
      </trkpt>
      <trkpt lat="47.55211" lon="10.74957">
        <ele>1064.80</ele>
        <time>2009-06-03T09:10:41.000Z</time>
      </trkpt>
      <trkpt lat="47.55206" lon="10.74956">
        <ele>1065.76</ele>
        <time>2009-06-03T09:10:46.000Z</time>
      </trkpt>
      <trkpt lat="47.55193" lon="10.74961">
        <ele>1067.68</ele>
        <time>2009-06-03T09:10:58.000Z</time>
      </trkpt>
      <trkpt lat="47.55190" lon="10.74963">
        <ele>1068.64</ele>
        <time>2009-06-03T09:11:01.000Z</time>
      </trkpt>
      <trkpt lat="47.55182" lon="10.74974">
        <ele>1071.05</ele>
        <time>2009-06-03T09:11:10.000Z</time>
      </trkpt>
      <trkpt lat="47.55173" lon="10.74997">
        <ele>1073.93</ele>
        <time>2009-06-03T09:11:23.000Z</time>
      </trkpt>
      <trkpt lat="47.55169" lon="10.75019">
        <ele>1076.81</ele>
        <time>2009-06-03T09:11:36.000Z</time>
      </trkpt>
      <trkpt lat="47.55163" lon="10.75064">
        <ele>1077.78</ele>
        <time>2009-06-03T09:11:54.000Z</time>
      </trkpt>
      <trkpt lat="47.55147" lon="10.75102">
        <ele>1079.22</ele>
        <time>2009-06-03T09:12:10.000Z</time>
      </trkpt>
      <trkpt lat="47.55128" lon="10.75133">
        <ele>1082.10</ele>
        <time>2009-06-03T09:12:28.000Z</time>
      </trkpt>
      <trkpt lat="47.55121" lon="10.75146">
        <ele>1085.47</ele>
        <time>2009-06-03T09:12:36.000Z</time>
      </trkpt>
      <trkpt lat="47.55107" lon="10.75170">
        <ele>1087.87</ele>
        <time>2009-06-03T09:12:52.000Z</time>
      </trkpt>
      <trkpt lat="47.55098" lon="10.75190">
        <ele>1090.27</ele>
        <time>2009-06-03T09:13:04.000Z</time>
      </trkpt>
      <trkpt lat="47.55086" lon="10.75209">
        <ele>1092.68</ele>
        <time>2009-06-03T09:13:15.000Z</time>
      </trkpt>
      <trkpt lat="47.55072" lon="10.75224">
        <ele>1096.04</ele>
        <time>2009-06-03T09:13:26.000Z</time>
      </trkpt>
      <trkpt lat="47.55065" lon="10.75225">
        <ele>1097.00</ele>
        <time>2009-06-03T09:13:49.000Z</time>
      </trkpt>
      <trkpt lat="47.55045" lon="10.75239">
        <ele>1097.48</ele>
        <time>2009-06-03T09:14:06.000Z</time>
      </trkpt>
      <trkpt lat="47.55022" lon="10.75258">
        <ele>1100.37</ele>
        <time>2009-06-03T09:14:22.000Z</time>
      </trkpt>
      <trkpt lat="47.55005" lon="10.75262">
        <ele>1103.73</ele>
        <time>2009-06-03T09:14:37.000Z</time>
      </trkpt>
      <trkpt lat="47.55004" lon="10.75263">
        <ele>1105.17</ele>
        <time>2009-06-03T09:14:38.000Z</time>
      </trkpt>
      <trkpt lat="47.55000" lon="10.75262">
        <ele>1106.13</ele>
        <time>2009-06-03T09:14:42.000Z</time>
      </trkpt>
      <trkpt lat="47.54986" lon="10.75265">
        <ele>1109.02</ele>
        <time>2009-06-03T09:14:55.000Z</time>
      </trkpt>
      <trkpt lat="47.54964" lon="10.75276">
        <ele>1112.86</ele>
        <time>2009-06-03T09:15:14.000Z</time>
      </trkpt>
      <trkpt lat="47.54963" lon="10.75276">
        <ele>1112.86</ele>
        <time>2009-06-03T09:15:15.000Z</time>
      </trkpt>
      <trkpt lat="47.54962" lon="10.75277">
        <ele>1113.82</ele>
        <time>2009-06-03T09:15:16.000Z</time>
      </trkpt>
      <trkpt lat="47.54955" lon="10.75284">
        <ele>1115.27</ele>
        <time>2009-06-03T09:15:23.000Z</time>
      </trkpt>
      <trkpt lat="47.54930" lon="10.75311">
        <ele>1116.71</ele>
        <time>2009-06-03T09:15:42.000Z</time>
      </trkpt>
      <trkpt lat="47.54902" lon="10.75361">
        <ele>1119.11</ele>
        <time>2009-06-03T09:16:03.000Z</time>
      </trkpt>
      <trkpt lat="47.54892" lon="10.75384">
        <ele>1122.48</ele>
        <time>2009-06-03T09:16:15.000Z</time>
      </trkpt>
      <trkpt lat="47.54886" lon="10.75394">
        <ele>1122.48</ele>
        <time>2009-06-03T09:16:19.000Z</time>
      </trkpt>
      <trkpt lat="47.54872" lon="10.75398">
        <ele>1122.00</ele>
        <time>2009-06-03T09:16:25.000Z</time>
      </trkpt>
      <trkpt lat="47.54855" lon="10.75386">
        <ele>1122.48</ele>
        <time>2009-06-03T09:16:32.000Z</time>
      </trkpt>
      <trkpt lat="47.54843" lon="10.75376">
        <ele>1121.52</ele>
        <time>2009-06-03T09:16:37.000Z</time>
      </trkpt>
      <trkpt lat="47.54832" lon="10.75373">
        <ele>1122.96</ele>
        <time>2009-06-03T09:16:41.000Z</time>
      </trkpt>
      <trkpt lat="47.54820" lon="10.75372">
        <ele>1123.92</ele>
        <time>2009-06-03T09:16:46.000Z</time>
      </trkpt>
      <trkpt lat="47.54786" lon="10.75372">
        <ele>1125.84</ele>
        <time>2009-06-03T09:17:01.000Z</time>
      </trkpt>
      <trkpt lat="47.54774" lon="10.75387">
        <ele>1125.36</ele>
        <time>2009-06-03T09:17:08.000Z</time>
      </trkpt>
      <trkpt lat="47.54770" lon="10.75451">
        <ele>1125.84</ele>
        <time>2009-06-03T09:17:22.000Z</time>
      </trkpt>
      <trkpt lat="47.54736" lon="10.75519">
        <ele>1126.32</ele>
        <time>2009-06-03T09:17:42.000Z</time>
      </trkpt>
      <trkpt lat="47.54699" lon="10.75603">
        <ele>1127.28</ele>
        <time>2009-06-03T09:18:02.000Z</time>
      </trkpt>
      <trkpt lat="47.54657" lon="10.75669">
        <ele>1129.69</ele>
        <time>2009-06-03T09:18:22.000Z</time>
      </trkpt>
      <trkpt lat="47.54619" lon="10.75722">
        <ele>1130.65</ele>
        <time>2009-06-03T09:18:40.000Z</time>
      </trkpt>
      <trkpt lat="47.54580" lon="10.75777">
        <ele>1134.01</ele>
        <time>2009-06-03T09:18:57.000Z</time>
      </trkpt>
      <trkpt lat="47.54557" lon="10.75848">
        <ele>1133.53</ele>
        <time>2009-06-03T09:19:12.000Z</time>
      </trkpt>
      <trkpt lat="47.54545" lon="10.75904">
        <ele>1136.90</ele>
        <time>2009-06-03T09:19:25.000Z</time>
      </trkpt>
      <trkpt lat="47.54531" lon="10.75953">
        <ele>1136.42</ele>
        <time>2009-06-03T09:19:37.000Z</time>
      </trkpt>
      <trkpt lat="47.54520" lon="10.76001">
        <ele>1137.38</ele>
        <time>2009-06-03T09:19:49.000Z</time>
      </trkpt>
      <trkpt lat="47.54496" lon="10.76077">
        <ele>1138.82</ele>
        <time>2009-06-03T09:20:05.000Z</time>
      </trkpt>
      <trkpt lat="47.54478" lon="10.76149">
        <ele>1139.30</ele>
        <time>2009-06-03T09:20:20.000Z</time>
      </trkpt>
      <trkpt lat="47.54457" lon="10.76213">
        <ele>1141.22</ele>
        <time>2009-06-03T09:20:35.000Z</time>
      </trkpt>
      <trkpt lat="47.54433" lon="10.76283">
        <ele>1141.70</ele>
        <time>2009-06-03T09:20:51.000Z</time>
      </trkpt>
      <trkpt lat="47.54388" lon="10.76340">
        <ele>1142.66</ele>
        <time>2009-06-03T09:21:10.000Z</time>
      </trkpt>
      <trkpt lat="47.54366" lon="10.76364">
        <ele>1143.14</ele>
        <time>2009-06-03T09:21:18.000Z</time>
      </trkpt>
      <trkpt lat="47.54392" lon="10.76402">
        <ele>1143.63</ele>
        <time>2009-06-03T09:21:31.000Z</time>
      </trkpt>
      <trkpt lat="47.54388" lon="10.76449">
        <ele>1144.59</ele>
        <time>2009-06-03T09:21:42.000Z</time>
      </trkpt>
      <trkpt lat="47.54381" lon="10.76486">
        <ele>1145.55</ele>
        <time>2009-06-03T09:21:52.000Z</time>
      </trkpt>
      <trkpt lat="47.54376" lon="10.76508">
        <ele>1146.99</ele>
        <time>2009-06-03T09:21:57.000Z</time>
      </trkpt>
      <trkpt lat="47.54359" lon="10.76570">
        <ele>1148.43</ele>
        <time>2009-06-03T09:22:12.000Z</time>
      </trkpt>
      <trkpt lat="47.54341" lon="10.76604">
        <ele>1150.35</ele>
        <time>2009-06-03T09:22:21.000Z</time>
      </trkpt>
      <trkpt lat="47.54335" lon="10.76622">
        <ele>1150.35</ele>
        <time>2009-06-03T09:24:29.000Z</time>
      </trkpt>
      <trkpt lat="47.54294" lon="10.76641">
        <ele>1151.32</ele>
        <time>2009-06-03T09:24:44.000Z</time>
      </trkpt>
      <trkpt lat="47.54247" lon="10.76665">
        <ele>1151.80</ele>
        <time>2009-06-03T09:24:57.000Z</time>
      </trkpt>
      <trkpt lat="47.54211" lon="10.76686">
        <ele>1155.64</ele>
        <time>2009-06-03T09:25:11.000Z</time>
      </trkpt>
      <trkpt lat="47.54206" lon="10.76688">
        <ele>1156.12</ele>
        <time>2009-06-03T09:25:13.000Z</time>
      </trkpt>
      <trkpt lat="47.54170" lon="10.76715">
        <ele>1159.01</ele>
        <time>2009-06-03T09:25:32.000Z</time>
      </trkpt>
      <trkpt lat="47.54168" lon="10.76727">
        <ele>1160.45</ele>
        <time>2009-06-03T09:25:38.000Z</time>
      </trkpt>
      <trkpt lat="47.54168" lon="10.76736">
        <ele>1161.89</ele>
        <time>2009-06-03T09:25:42.000Z</time>
      </trkpt>
      <trkpt lat="47.54167" lon="10.76778">
        <ele>1164.29</ele>
        <time>2009-06-03T09:26:01.000Z</time>
      </trkpt>
      <trkpt lat="47.54166" lon="10.76798">
        <ele>1166.22</ele>
        <time>2009-06-03T09:26:08.000Z</time>
      </trkpt>
      <trkpt lat="47.54165" lon="10.76853">
        <ele>1166.70</ele>
        <time>2009-06-03T09:26:23.000Z</time>
      </trkpt>
      <trkpt lat="47.54152" lon="10.76903">
        <ele>1167.66</ele>
        <time>2009-06-03T09:26:36.000Z</time>
      </trkpt>
      <trkpt lat="47.54135" lon="10.76930">
        <ele>1167.66</ele>
        <time>2009-06-03T09:26:43.000Z</time>
      </trkpt>
      <trkpt lat="47.54131" lon="10.76957">
        <ele>1167.18</ele>
        <time>2009-06-03T09:26:48.000Z</time>
      </trkpt>
      <trkpt lat="47.54131" lon="10.77037">
        <ele>1170.06</ele>
        <time>2009-06-03T09:27:03.000Z</time>
      </trkpt>
      <trkpt lat="47.54107" lon="10.77096">
        <ele>1170.54</ele>
        <time>2009-06-03T09:27:17.000Z</time>
      </trkpt>
      <trkpt lat="47.54053" lon="10.77154">
        <ele>1172.47</ele>
        <time>2009-06-03T09:27:37.000Z</time>
      </trkpt>
      <trkpt lat="47.54048" lon="10.77196">
        <ele>1168.14</ele>
        <time>2009-06-03T09:27:45.000Z</time>
      </trkpt>
      <trkpt lat="47.54044" lon="10.77214">
        <ele>1165.26</ele>
        <time>2009-06-03T09:27:47.000Z</time>
      </trkpt>
      <trkpt lat="47.54033" lon="10.77239">
        <ele>1160.45</ele>
        <time>2009-06-03T09:27:50.000Z</time>
      </trkpt>
      <trkpt lat="47.54028" lon="10.77250">
        <ele>1160.45</ele>
        <time>2009-06-03T09:27:51.000Z</time>
      </trkpt>
      <trkpt lat="47.54027" lon="10.77298">
        <ele>1160.93</ele>
        <time>2009-06-03T09:27:56.000Z</time>
      </trkpt>
      <trkpt lat="47.54038" lon="10.77323">
        <ele>1163.81</ele>
        <time>2009-06-03T09:28:01.000Z</time>
      </trkpt>
      <trkpt lat="47.54037" lon="10.77373">
        <ele>1165.26</ele>
        <time>2009-06-03T09:28:13.000Z</time>
      </trkpt>
      <trkpt lat="47.54034" lon="10.77379">
        <ele>1165.74</ele>
        <time>2009-06-03T09:28:15.000Z</time>
      </trkpt>
      <trkpt lat="47.54020" lon="10.77393">
        <ele>1166.70</ele>
        <time>2009-06-03T09:28:22.000Z</time>
      </trkpt>
      <trkpt lat="47.53992" lon="10.77404">
        <ele>1171.02</ele>
        <time>2009-06-03T09:28:34.000Z</time>
      </trkpt>
      <trkpt lat="47.53964" lon="10.77415">
        <ele>1173.91</ele>
        <time>2009-06-03T09:28:46.000Z</time>
      </trkpt>
      <trkpt lat="47.53914" lon="10.77440">
        <ele>1173.91</ele>
        <time>2009-06-03T09:29:03.000Z</time>
      </trkpt>
      <trkpt lat="47.53873" lon="10.77481">
        <ele>1173.43</ele>
        <time>2009-06-03T09:29:22.000Z</time>
      </trkpt>
      <trkpt lat="47.53871" lon="10.77483">
        <ele>1173.43</ele>
        <time>2009-06-03T09:29:45.000Z</time>
      </trkpt>
      <trkpt lat="47.53864" lon="10.77487">
        <ele>1173.91</ele>
        <time>2009-06-03T09:31:18.000Z</time>
      </trkpt>
      <trkpt lat="47.53801" lon="10.77489">
        <ele>1173.91</ele>
        <time>2009-06-03T09:31:39.000Z</time>
      </trkpt>
      <trkpt lat="47.53768" lon="10.77491">
        <ele>1175.83</ele>
        <time>2009-06-03T10:08:44.000Z</time>
      </trkpt>
      <trkpt lat="47.53724" lon="10.77510">
        <ele>1175.35</ele>
        <time>2009-06-03T10:08:58.000Z</time>
      </trkpt>
      <trkpt lat="47.53678" lon="10.77569">
        <ele>1176.31</ele>
        <time>2009-06-03T10:09:16.000Z</time>
      </trkpt>
      <trkpt lat="47.53627" lon="10.77615">
        <ele>1176.79</ele>
        <time>2009-06-03T10:09:32.000Z</time>
      </trkpt>
      <trkpt lat="47.53576" lon="10.77664">
        <ele>1178.23</ele>
        <time>2009-06-03T10:09:49.000Z</time>
      </trkpt>
      <trkpt lat="47.53532" lon="10.77712">
        <ele>1179.19</ele>
        <time>2009-06-03T10:10:05.000Z</time>
      </trkpt>
      <trkpt lat="47.53497" lon="10.77770">
        <ele>1180.64</ele>
        <time>2009-06-03T10:10:20.000Z</time>
      </trkpt>
      <trkpt lat="47.53467" lon="10.77852">
        <ele>1181.12</ele>
        <time>2009-06-03T10:10:38.000Z</time>
      </trkpt>
      <trkpt lat="47.53475" lon="10.77931">
        <ele>1183.04</ele>
        <time>2009-06-03T10:10:54.000Z</time>
      </trkpt>
      <trkpt lat="47.53489" lon="10.78018">
        <ele>1186.40</ele>
        <time>2009-06-03T10:11:15.000Z</time>
      </trkpt>
      <trkpt lat="47.53494" lon="10.78078">
        <ele>1188.81</ele>
        <time>2009-06-03T10:11:31.000Z</time>
      </trkpt>
      <trkpt lat="47.53500" lon="10.78100">
        <ele>1192.17</ele>
        <time>2009-06-03T10:11:41.000Z</time>
      </trkpt>
      <trkpt lat="47.53500" lon="10.78102">
        <ele>1192.17</ele>
        <time>2009-06-03T10:11:42.000Z</time>
      </trkpt>
      <trkpt lat="47.53507" lon="10.78127">
        <ele>1195.54</ele>
        <time>2009-06-03T10:11:57.000Z</time>
      </trkpt>
      <trkpt lat="47.53507" lon="10.78144">
        <ele>1196.98</ele>
        <time>2009-06-03T10:12:06.000Z</time>
      </trkpt>
      <trkpt lat="47.53507" lon="10.78146">
        <ele>1197.46</ele>
        <time>2009-06-03T10:12:07.000Z</time>
      </trkpt>
      <trkpt lat="47.53484" lon="10.78172">
        <ele>1198.90</ele>
        <time>2009-06-03T10:12:23.000Z</time>
      </trkpt>
      <trkpt lat="47.53464" lon="10.78194">
        <ele>1202.27</ele>
        <time>2009-06-03T10:12:39.000Z</time>
      </trkpt>
      <trkpt lat="47.53456" lon="10.78217">
        <ele>1205.63</ele>
        <time>2009-06-03T10:12:53.000Z</time>
      </trkpt>
      <trkpt lat="47.53448" lon="10.78251">
        <ele>1208.03</ele>
        <time>2009-06-03T10:13:10.000Z</time>
      </trkpt>
      <trkpt lat="47.53447" lon="10.78268">
        <ele>1209.00</ele>
        <time>2009-06-03T10:13:19.000Z</time>
      </trkpt>
      <trkpt lat="47.53448" lon="10.78287">
        <ele>1210.44</ele>
        <time>2009-06-03T10:13:27.000Z</time>
      </trkpt>
      <trkpt lat="47.53448" lon="10.78321">
        <ele>1212.84</ele>
        <time>2009-06-03T10:13:43.000Z</time>
      </trkpt>
      <trkpt lat="47.53447" lon="10.78352">
        <ele>1216.21</ele>
        <time>2009-06-03T10:13:58.000Z</time>
      </trkpt>
      <trkpt lat="47.53447" lon="10.78383">
        <ele>1219.57</ele>
        <time>2009-06-03T10:14:14.000Z</time>
      </trkpt>
      <trkpt lat="47.53448" lon="10.78392">
        <ele>1221.01</ele>
        <time>2009-06-03T10:14:19.000Z</time>
      </trkpt>
      <trkpt lat="47.53449" lon="10.78399">
        <ele>1221.97</ele>
        <time>2009-06-03T10:14:23.000Z</time>
      </trkpt>
      <trkpt lat="47.53454" lon="10.78422">
        <ele>1224.38</ele>
        <time>2009-06-03T10:14:35.000Z</time>
      </trkpt>
      <trkpt lat="47.53452" lon="10.78461">
        <ele>1227.26</ele>
        <time>2009-06-03T10:14:52.000Z</time>
      </trkpt>
      <trkpt lat="47.53451" lon="10.78473">
        <ele>1229.18</ele>
        <time>2009-06-03T10:14:58.000Z</time>
      </trkpt>
      <trkpt lat="47.53450" lon="10.78488">
        <ele>1230.63</ele>
        <time>2009-06-03T10:15:06.000Z</time>
      </trkpt>
      <trkpt lat="47.53452" lon="10.78507">
        <ele>1232.55</ele>
        <time>2009-06-03T10:15:14.000Z</time>
      </trkpt>
      <trkpt lat="47.53455" lon="10.78525">
        <ele>1233.51</ele>
        <time>2009-06-03T10:15:20.000Z</time>
      </trkpt>
      <trkpt lat="47.53460" lon="10.78542">
        <ele>1234.47</ele>
        <time>2009-06-03T10:15:27.000Z</time>
      </trkpt>
      <trkpt lat="47.53456" lon="10.78588">
        <ele>1235.91</ele>
        <time>2009-06-03T10:15:44.000Z</time>
      </trkpt>
      <trkpt lat="47.53446" lon="10.78629">
        <ele>1235.91</ele>
        <time>2009-06-03T10:15:58.000Z</time>
      </trkpt>
      <trkpt lat="47.53423" lon="10.78679">
        <ele>1237.83</ele>
        <time>2009-06-03T10:16:15.000Z</time>
      </trkpt>
      <trkpt lat="47.53425" lon="10.78726">
        <ele>1238.32</ele>
        <time>2009-06-03T10:16:28.000Z</time>
      </trkpt>
      <trkpt lat="47.53428" lon="10.78775">
        <ele>1241.20</ele>
        <time>2009-06-03T10:16:42.000Z</time>
      </trkpt>
      <trkpt lat="47.53417" lon="10.78814">
        <ele>1244.56</ele>
        <time>2009-06-03T10:16:54.000Z</time>
      </trkpt>
      <trkpt lat="47.53403" lon="10.78861">
        <ele>1245.04</ele>
        <time>2009-06-03T10:17:07.000Z</time>
      </trkpt>
      <trkpt lat="47.53409" lon="10.78926">
        <ele>1245.04</ele>
        <time>2009-06-03T10:17:21.000Z</time>
      </trkpt>
      <trkpt lat="47.53397" lon="10.78996">
        <ele>1246.01</ele>
        <time>2009-06-03T10:17:36.000Z</time>
      </trkpt>
      <trkpt lat="47.53379" lon="10.79055">
        <ele>1246.97</ele>
        <time>2009-06-03T10:17:52.000Z</time>
      </trkpt>
      <trkpt lat="47.53371" lon="10.79099">
        <ele>1249.85</ele>
        <time>2009-06-03T10:18:04.000Z</time>
      </trkpt>
      <trkpt lat="47.53360" lon="10.79137">
        <ele>1252.25</ele>
        <time>2009-06-03T10:18:18.000Z</time>
      </trkpt>
      <trkpt lat="47.53359" lon="10.79143">
        <ele>1254.18</ele>
        <time>2009-06-03T10:18:21.000Z</time>
      </trkpt>
      <trkpt lat="47.53358" lon="10.79151">
        <ele>1254.66</ele>
        <time>2009-06-03T10:18:24.000Z</time>
      </trkpt>
      <trkpt lat="47.53356" lon="10.79154">
        <ele>1255.62</ele>
        <time>2009-06-03T10:18:26.000Z</time>
      </trkpt>
      <trkpt lat="47.53352" lon="10.79164">
        <ele>1256.58</ele>
        <time>2009-06-03T10:18:30.000Z</time>
      </trkpt>
      <trkpt lat="47.53342" lon="10.79189">
        <ele>1258.98</ele>
        <time>2009-06-03T10:18:43.000Z</time>
      </trkpt>
      <trkpt lat="47.53338" lon="10.79194">
        <ele>1260.43</ele>
        <time>2009-06-03T10:18:47.000Z</time>
      </trkpt>
      <trkpt lat="47.53326" lon="10.79214">
        <ele>1263.31</ele>
        <time>2009-06-03T10:19:00.000Z</time>
      </trkpt>
      <trkpt lat="47.53319" lon="10.79227">
        <ele>1266.19</ele>
        <time>2009-06-03T10:19:09.000Z</time>
      </trkpt>
      <trkpt lat="47.53318" lon="10.79237">
        <ele>1267.16</ele>
        <time>2009-06-03T10:19:14.000Z</time>
      </trkpt>
      <trkpt lat="47.53318" lon="10.79249">
        <ele>1268.60</ele>
        <time>2009-06-03T10:19:21.000Z</time>
      </trkpt>
      <trkpt lat="47.53321" lon="10.79260">
        <ele>1270.04</ele>
        <time>2009-06-03T10:19:28.000Z</time>
      </trkpt>
      <trkpt lat="47.53323" lon="10.79268">
        <ele>1270.52</ele>
        <time>2009-06-03T10:19:33.000Z</time>
      </trkpt>
      <trkpt lat="47.53327" lon="10.79289">
        <ele>1274.36</ele>
        <time>2009-06-03T10:19:46.000Z</time>
      </trkpt>
      <trkpt lat="47.53337" lon="10.79312">
        <ele>1278.21</ele>
        <time>2009-06-03T10:20:01.000Z</time>
      </trkpt>
      <trkpt lat="47.53339" lon="10.79325">
        <ele>1281.09</ele>
        <time>2009-06-03T10:20:11.000Z</time>
      </trkpt>
      <trkpt lat="47.53335" lon="10.79335">
        <ele>1283.02</ele>
        <time>2009-06-03T10:20:17.000Z</time>
      </trkpt>
      <trkpt lat="47.53330" lon="10.79344">
        <ele>1282.54</ele>
        <time>2009-06-03T10:20:22.000Z</time>
      </trkpt>
      <trkpt lat="47.53325" lon="10.79355">
        <ele>1285.42</ele>
        <time>2009-06-03T10:20:30.000Z</time>
      </trkpt>
      <trkpt lat="47.53322" lon="10.79367">
        <ele>1288.30</ele>
        <time>2009-06-03T10:20:38.000Z</time>
      </trkpt>
      <trkpt lat="47.53320" lon="10.79382">
        <ele>1290.23</ele>
        <time>2009-06-03T10:20:50.000Z</time>
      </trkpt>
      <trkpt lat="47.53320" lon="10.79383">
        <ele>1289.75</ele>
        <time>2009-06-03T10:20:51.000Z</time>
      </trkpt>
      <trkpt lat="47.53311" lon="10.79410">
        <ele>1293.11</ele>
        <time>2009-06-03T10:21:09.000Z</time>
      </trkpt>
      <trkpt lat="47.53308" lon="10.79425">
        <ele>1296.48</ele>
        <time>2009-06-03T10:21:22.000Z</time>
      </trkpt>
      <trkpt lat="47.53301" lon="10.79443">
        <ele>1299.36</ele>
        <time>2009-06-03T10:21:36.000Z</time>
      </trkpt>
      <trkpt lat="47.53300" lon="10.79458">
        <ele>1302.72</ele>
        <time>2009-06-03T10:21:50.000Z</time>
      </trkpt>
      <trkpt lat="47.53298" lon="10.79478">
        <ele>1305.61</ele>
        <time>2009-06-03T10:22:02.000Z</time>
      </trkpt>
      <trkpt lat="47.53297" lon="10.79492">
        <ele>1307.05</ele>
        <time>2009-06-03T10:22:12.000Z</time>
      </trkpt>
      <trkpt lat="47.53295" lon="10.79517">
        <ele>1309.93</ele>
        <time>2009-06-03T10:22:28.000Z</time>
      </trkpt>
      <trkpt lat="47.53294" lon="10.79535">
        <ele>1313.30</ele>
        <time>2009-06-03T10:22:41.000Z</time>
      </trkpt>
      <trkpt lat="47.53293" lon="10.79558">
        <ele>1315.70</ele>
        <time>2009-06-03T10:22:55.000Z</time>
      </trkpt>
      <trkpt lat="47.53292" lon="10.79573">
        <ele>1316.18</ele>
        <time>2009-06-03T10:23:04.000Z</time>
      </trkpt>
      <trkpt lat="47.53294" lon="10.79593">
        <ele>1320.99</ele>
        <time>2009-06-03T10:23:28.000Z</time>
      </trkpt>
      <trkpt lat="47.53305" lon="10.79618">
        <ele>1324.35</ele>
        <time>2009-06-03T10:23:36.000Z</time>
      </trkpt>
      <trkpt lat="47.53318" lon="10.79650">
        <ele>1326.76</ele>
        <time>2009-06-03T10:23:57.000Z</time>
      </trkpt>
      <trkpt lat="47.53313" lon="10.79691">
        <ele>1330.12</ele>
        <time>2009-06-03T10:24:21.000Z</time>
      </trkpt>
      <trkpt lat="47.53308" lon="10.79713">
        <ele>1333.49</ele>
        <time>2009-06-03T10:24:36.000Z</time>
      </trkpt>
      <trkpt lat="47.53303" lon="10.79731">
        <ele>1336.37</ele>
        <time>2009-06-03T10:24:48.000Z</time>
      </trkpt>
      <trkpt lat="47.53298" lon="10.79758">
        <ele>1339.25</ele>
        <time>2009-06-03T10:25:08.000Z</time>
      </trkpt>
      <trkpt lat="47.53295" lon="10.79772">
        <ele>1342.14</ele>
        <time>2009-06-03T10:25:17.000Z</time>
      </trkpt>
      <trkpt lat="47.53296" lon="10.79797">
        <ele>1345.02</ele>
        <time>2009-06-03T10:25:34.000Z</time>
      </trkpt>
      <trkpt lat="47.53296" lon="10.79799">
        <ele>1345.50</ele>
        <time>2009-06-03T10:25:35.000Z</time>
      </trkpt>
      <trkpt lat="47.53297" lon="10.79811">
        <ele>1346.46</ele>
        <time>2009-06-03T10:25:43.000Z</time>
      </trkpt>
      <trkpt lat="47.53297" lon="10.79816">
        <ele>1347.91</ele>
        <time>2009-06-03T10:25:46.000Z</time>
      </trkpt>
      <trkpt lat="47.53299" lon="10.79825">
        <ele>1348.39</ele>
        <time>2009-06-03T10:25:52.000Z</time>
      </trkpt>
      <trkpt lat="47.53301" lon="10.79862">
        <ele>1350.31</ele>
        <time>2009-06-03T10:26:10.000Z</time>
      </trkpt>
      <trkpt lat="47.53303" lon="10.79880">
        <ele>1351.75</ele>
        <time>2009-06-03T10:26:18.000Z</time>
      </trkpt>
      <trkpt lat="47.53309" lon="10.79903">
        <ele>1353.19</ele>
        <time>2009-06-03T10:26:30.000Z</time>
      </trkpt>
      <trkpt lat="47.53310" lon="10.79907">
        <ele>1353.19</ele>
        <time>2009-06-03T10:26:32.000Z</time>
      </trkpt>
      <trkpt lat="47.53310" lon="10.79922">
        <ele>1354.15</ele>
        <time>2009-06-03T10:26:47.000Z</time>
      </trkpt>
      <trkpt lat="47.53317" lon="10.79951">
        <ele>1353.19</ele>
        <time>2009-06-03T10:27:14.000Z</time>
      </trkpt>
      <trkpt lat="47.53330" lon="10.80023">
        <ele>1354.15</ele>
        <time>2009-06-03T10:27:32.000Z</time>
      </trkpt>
      <trkpt lat="47.53339" lon="10.80092">
        <ele>1352.23</ele>
        <time>2009-06-03T10:27:45.000Z</time>
      </trkpt>
      <trkpt lat="47.53350" lon="10.80189">
        <ele>1352.71</ele>
        <time>2009-06-03T10:28:02.000Z</time>
      </trkpt>
      <trkpt lat="47.53369" lon="10.80253">
        <ele>1355.12</ele>
        <time>2009-06-03T10:28:16.000Z</time>
      </trkpt>
      <trkpt lat="47.53395" lon="10.80320">
        <ele>1356.08</ele>
        <time>2009-06-03T10:28:32.000Z</time>
      </trkpt>
      <trkpt lat="47.53433" lon="10.80381">
        <ele>1356.56</ele>
        <time>2009-06-03T10:28:49.000Z</time>
      </trkpt>
      <trkpt lat="47.53471" lon="10.80447">
        <ele>1358.00</ele>
        <time>2009-06-03T10:29:08.000Z</time>
      </trkpt>
      <trkpt lat="47.53489" lon="10.80479">
        <ele>1359.92</ele>
        <time>2009-06-03T10:29:18.000Z</time>
      </trkpt>
      <trkpt lat="47.53514" lon="10.80516">
        <ele>1363.29</ele>
        <time>2009-06-03T10:29:37.000Z</time>
      </trkpt>
      <trkpt lat="47.53542" lon="10.80555">
        <ele>1366.65</ele>
        <time>2009-06-03T10:29:56.000Z</time>
      </trkpt>
      <trkpt lat="47.53576" lon="10.80588">
        <ele>1369.54</ele>
        <time>2009-06-03T10:30:17.000Z</time>
      </trkpt>
      <trkpt lat="47.53600" lon="10.80626">
        <ele>1372.42</ele>
        <time>2009-06-03T10:30:33.000Z</time>
      </trkpt>
      <trkpt lat="47.53611" lon="10.80646">
        <ele>1372.90</ele>
        <time>2009-06-03T10:30:40.000Z</time>
      </trkpt>
      <trkpt lat="47.53646" lon="10.80732">
        <ele>1372.90</ele>
        <time>2009-06-03T10:31:02.000Z</time>
      </trkpt>
      <trkpt lat="47.53647" lon="10.80797">
        <ele>1376.26</ele>
        <time>2009-06-03T10:31:18.000Z</time>
      </trkpt>
      <trkpt lat="47.53658" lon="10.80847">
        <ele>1378.67</ele>
        <time>2009-06-03T10:31:36.000Z</time>
      </trkpt>
      <trkpt lat="47.53665" lon="10.80914">
        <ele>1382.03</ele>
        <time>2009-06-03T10:31:58.000Z</time>
      </trkpt>
      <trkpt lat="47.53665" lon="10.80917">
        <ele>1382.03</ele>
        <time>2009-06-03T10:31:59.000Z</time>
      </trkpt>
      <trkpt lat="47.53664" lon="10.80943">
        <ele>1384.44</ele>
        <time>2009-06-03T10:32:09.000Z</time>
      </trkpt>
      <trkpt lat="47.53661" lon="10.80982">
        <ele>1387.80</ele>
        <time>2009-06-03T10:32:26.000Z</time>
      </trkpt>
      <trkpt lat="47.53660" lon="10.80991">
        <ele>1388.28</ele>
        <time>2009-06-03T10:32:30.000Z</time>
      </trkpt>
      <trkpt lat="47.53658" lon="10.81018">
        <ele>1391.65</ele>
        <time>2009-06-03T10:32:42.000Z</time>
      </trkpt>
      <trkpt lat="47.53656" lon="10.81070">
        <ele>1393.09</ele>
        <time>2009-06-03T10:33:03.000Z</time>
      </trkpt>
      <trkpt lat="47.53659" lon="10.81112">
        <ele>1396.45</ele>
        <time>2009-06-03T10:33:22.000Z</time>
      </trkpt>
      <trkpt lat="47.53662" lon="10.81136">
        <ele>1399.34</ele>
        <time>2009-06-03T10:33:33.000Z</time>
      </trkpt>
      <trkpt lat="47.53667" lon="10.81205">
        <ele>1400.78</ele>
        <time>2009-06-03T10:33:54.000Z</time>
      </trkpt>
      <trkpt lat="47.53677" lon="10.81253">
        <ele>1400.78</ele>
        <time>2009-06-03T10:34:08.000Z</time>
      </trkpt>
      <trkpt lat="47.53693" lon="10.81299">
        <ele>1401.26</ele>
        <time>2009-06-03T10:34:21.000Z</time>
      </trkpt>
      <trkpt lat="47.53701" lon="10.81335">
        <ele>1404.62</ele>
        <time>2009-06-03T10:34:32.000Z</time>
      </trkpt>
      <trkpt lat="47.53702" lon="10.81399">
        <ele>1406.55</ele>
        <time>2009-06-03T10:34:52.000Z</time>
      </trkpt>
      <trkpt lat="47.53713" lon="10.81461">
        <ele>1409.91</ele>
        <time>2009-06-03T10:35:13.000Z</time>
      </trkpt>
      <trkpt lat="47.53714" lon="10.81467">
        <ele>1410.39</ele>
        <time>2009-06-03T10:35:15.000Z</time>
      </trkpt>
      <trkpt lat="47.53725" lon="10.81537">
        <ele>1410.87</ele>
        <time>2009-06-03T10:35:36.000Z</time>
      </trkpt>
      <trkpt lat="47.53734" lon="10.81612">
        <ele>1411.83</ele>
        <time>2009-06-03T10:35:55.000Z</time>
      </trkpt>
      <trkpt lat="47.53739" lon="10.81659">
        <ele>1415.20</ele>
        <time>2009-06-03T10:36:07.000Z</time>
      </trkpt>
      <trkpt lat="47.53739" lon="10.81662">
        <ele>1415.20</ele>
        <time>2009-06-03T10:36:08.000Z</time>
      </trkpt>
      <trkpt lat="47.53746" lon="10.81714">
        <ele>1418.56</ele>
        <time>2009-06-03T10:36:25.000Z</time>
      </trkpt>
      <trkpt lat="47.53754" lon="10.81772">
        <ele>1419.52</ele>
        <time>2009-06-03T10:36:42.000Z</time>
      </trkpt>
      <trkpt lat="47.53754" lon="10.81841">
        <ele>1419.52</ele>
        <time>2009-06-03T10:36:58.000Z</time>
      </trkpt>
      <trkpt lat="47.53727" lon="10.81927">
        <ele>1419.52</ele>
        <time>2009-06-03T10:37:18.000Z</time>
      </trkpt>
      <trkpt lat="47.53716" lon="10.82004">
        <ele>1422.41</ele>
        <time>2009-06-03T10:37:36.000Z</time>
      </trkpt>
      <trkpt lat="47.53715" lon="10.82067">
        <ele>1425.29</ele>
        <time>2009-06-03T10:37:52.000Z</time>
      </trkpt>
      <trkpt lat="47.53709" lon="10.82148">
        <ele>1427.21</ele>
        <time>2009-06-03T10:38:14.000Z</time>
      </trkpt>
      <trkpt lat="47.53708" lon="10.82162">
        <ele>1425.77</ele>
        <time>2009-06-03T10:38:31.000Z</time>
      </trkpt>
      <trkpt lat="47.53704" lon="10.82197">
        <ele>1426.73</ele>
        <time>2009-06-03T10:42:52.000Z</time>
      </trkpt>
      <trkpt lat="47.53699" lon="10.82259">
        <ele>1428.18</ele>
        <time>2009-06-03T10:43:10.000Z</time>
      </trkpt>
      <trkpt lat="47.53694" lon="10.82303">
        <ele>1432.02</ele>
        <time>2009-06-03T10:43:23.000Z</time>
      </trkpt>
      <trkpt lat="47.53667" lon="10.82382">
        <ele>1433.46</ele>
        <time>2009-06-03T10:43:45.000Z</time>
      </trkpt>
      <trkpt lat="47.53642" lon="10.82449">
        <ele>1434.91</ele>
        <time>2009-06-03T10:44:02.000Z</time>
      </trkpt>
      <trkpt lat="47.53637" lon="10.82460">
        <ele>1436.35</ele>
        <time>2009-06-03T10:44:05.000Z</time>
      </trkpt>
      <trkpt lat="47.53607" lon="10.82524">
        <ele>1436.83</ele>
        <time>2009-06-03T10:44:27.000Z</time>
      </trkpt>
      <trkpt lat="47.53596" lon="10.82560">
        <ele>1435.87</ele>
        <time>2009-06-03T10:44:36.000Z</time>
      </trkpt>
      <trkpt lat="47.53592" lon="10.82579">
        <ele>1435.39</ele>
        <time>2009-06-03T10:44:39.000Z</time>
      </trkpt>
      <trkpt lat="47.53567" lon="10.82646">
        <ele>1431.54</ele>
        <time>2009-06-03T10:44:52.000Z</time>
      </trkpt>
      <trkpt lat="47.53535" lon="10.82698">
        <ele>1430.58</ele>
        <time>2009-06-03T10:45:04.000Z</time>
      </trkpt>
      <trkpt lat="47.53523" lon="10.82714">
        <ele>1430.10</ele>
        <time>2009-06-03T10:45:08.000Z</time>
      </trkpt>
      <trkpt lat="47.53510" lon="10.82735">
        <ele>1428.66</ele>
        <time>2009-06-03T10:45:12.000Z</time>
      </trkpt>
      <trkpt lat="47.53471" lon="10.82768">
        <ele>1425.29</ele>
        <time>2009-06-03T10:45:23.000Z</time>
      </trkpt>
      <trkpt lat="47.53457" lon="10.82800">
        <ele>1421.93</ele>
        <time>2009-06-03T10:45:29.000Z</time>
      </trkpt>
      <trkpt lat="47.53454" lon="10.82805">
        <ele>1422.41</ele>
        <time>2009-06-03T10:45:30.000Z</time>
      </trkpt>
      <trkpt lat="47.53436" lon="10.82823">
        <ele>1420.97</ele>
        <time>2009-06-03T10:45:35.000Z</time>
      </trkpt>
      <trkpt lat="47.53419" lon="10.82848">
        <ele>1419.04</ele>
        <time>2009-06-03T10:45:40.000Z</time>
      </trkpt>
      <trkpt lat="47.53402" lon="10.82874">
        <ele>1416.16</ele>
        <time>2009-06-03T10:45:46.000Z</time>
      </trkpt>
      <trkpt lat="47.53382" lon="10.82893">
        <ele>1414.72</ele>
        <time>2009-06-03T10:45:52.000Z</time>
      </trkpt>
      <trkpt lat="47.53362" lon="10.82907">
        <ele>1412.31</ele>
        <time>2009-06-03T10:45:58.000Z</time>
      </trkpt>
      <trkpt lat="47.53358" lon="10.82909">
        <ele>1411.35</ele>
        <time>2009-06-03T10:46:00.000Z</time>
      </trkpt>
      <trkpt lat="47.53342" lon="10.82922">
        <ele>1407.99</ele>
        <time>2009-06-03T10:46:06.000Z</time>
      </trkpt>
      <trkpt lat="47.53327" lon="10.82930">
        <ele>1406.55</ele>
        <time>2009-06-03T10:46:14.000Z</time>
      </trkpt>
      <trkpt lat="47.53315" lon="10.82939">
        <ele>1404.62</ele>
        <time>2009-06-03T10:46:19.000Z</time>
      </trkpt>
      <trkpt lat="47.53293" lon="10.82951">
        <ele>1400.78</ele>
        <time>2009-06-03T10:46:27.000Z</time>
      </trkpt>
      <trkpt lat="47.53286" lon="10.82954">
        <ele>1400.30</ele>
        <time>2009-06-03T10:46:29.000Z</time>
      </trkpt>
      <trkpt lat="47.53265" lon="10.82952">
        <ele>1397.41</ele>
        <time>2009-06-03T10:46:35.000Z</time>
      </trkpt>
      <trkpt lat="47.53257" lon="10.82940">
        <ele>1397.41</ele>
        <time>2009-06-03T10:46:39.000Z</time>
      </trkpt>
      <trkpt lat="47.53245" lon="10.82937">
        <ele>1395.01</ele>
        <time>2009-06-03T10:46:45.000Z</time>
      </trkpt>
      <trkpt lat="47.53233" lon="10.82944">
        <ele>1390.68</ele>
        <time>2009-06-03T10:46:52.000Z</time>
      </trkpt>
      <trkpt lat="47.53231" lon="10.82944">
        <ele>1390.68</ele>
        <time>2009-06-03T10:46:53.000Z</time>
      </trkpt>
      <trkpt lat="47.53227" lon="10.82946">
        <ele>1390.20</ele>
        <time>2009-06-03T10:46:54.000Z</time>
      </trkpt>
      <trkpt lat="47.53205" lon="10.82947">
        <ele>1389.24</ele>
        <time>2009-06-03T10:47:04.000Z</time>
      </trkpt>
      <trkpt lat="47.53197" lon="10.82947">
        <ele>1387.32</ele>
        <time>2009-06-03T10:47:07.000Z</time>
      </trkpt>
      <trkpt lat="47.53195" lon="10.82948">
        <ele>1386.84</ele>
        <time>2009-06-03T10:47:08.000Z</time>
      </trkpt>
      <trkpt lat="47.53165" lon="10.82960">
        <ele>1382.51</ele>
        <time>2009-06-03T10:47:18.000Z</time>
      </trkpt>
      <trkpt lat="47.53162" lon="10.82960">
        <ele>1382.51</ele>
        <time>2009-06-03T10:47:19.000Z</time>
      </trkpt>
      <trkpt lat="47.53156" lon="10.82963">
        <ele>1382.03</ele>
        <time>2009-06-03T10:47:21.000Z</time>
      </trkpt>
      <trkpt lat="47.53150" lon="10.82965">
        <ele>1381.07</ele>
        <time>2009-06-03T10:47:23.000Z</time>
      </trkpt>
      <trkpt lat="47.53133" lon="10.82971">
        <ele>1378.67</ele>
        <time>2009-06-03T10:47:35.000Z</time>
      </trkpt>
      <trkpt lat="47.53121" lon="10.82977">
        <ele>1377.71</ele>
        <time>2009-06-03T10:47:53.000Z</time>
      </trkpt>
      <trkpt lat="47.53120" lon="10.82977">
        <ele>1377.23</ele>
        <time>2009-06-03T10:47:54.000Z</time>
      </trkpt>
      <trkpt lat="47.53111" lon="10.82976">
        <ele>1376.75</ele>
        <time>2009-06-03T10:48:03.000Z</time>
      </trkpt>
      <trkpt lat="47.53097" lon="10.82965">
        <ele>1374.82</ele>
        <time>2009-06-03T10:48:10.000Z</time>
      </trkpt>
      <trkpt lat="47.53090" lon="10.82974">
        <ele>1375.30</ele>
        <time>2009-06-03T10:48:16.000Z</time>
      </trkpt>
      <trkpt lat="47.53084" lon="10.82991">
        <ele>1377.23</ele>
        <time>2009-06-03T10:48:31.000Z</time>
      </trkpt>
      <trkpt lat="47.53076" lon="10.83008">
        <ele>1376.75</ele>
        <time>2009-06-03T10:48:41.000Z</time>
      </trkpt>
      <trkpt lat="47.53076" lon="10.83021">
        <ele>1376.75</ele>
        <time>2009-06-03T10:48:45.000Z</time>
      </trkpt>
      <trkpt lat="47.53069" lon="10.83086">
        <ele>1375.78</ele>
        <time>2009-06-03T10:49:01.000Z</time>
      </trkpt>
      <trkpt lat="47.53070" lon="10.83095">
        <ele>1374.34</ele>
        <time>2009-06-03T10:49:03.000Z</time>
      </trkpt>
      <trkpt lat="47.53062" lon="10.83119">
        <ele>1371.46</ele>
        <time>2009-06-03T10:49:08.000Z</time>
      </trkpt>
      <trkpt lat="47.53054" lon="10.83134">
        <ele>1370.50</ele>
        <time>2009-06-03T10:49:12.000Z</time>
      </trkpt>
      <trkpt lat="47.53045" lon="10.83149">
        <ele>1368.09</ele>
        <time>2009-06-03T10:49:15.000Z</time>
      </trkpt>
      <trkpt lat="47.53036" lon="10.83165">
        <ele>1364.25</ele>
        <time>2009-06-03T10:49:19.000Z</time>
      </trkpt>
      <trkpt lat="47.53035" lon="10.83175">
        <ele>1363.77</ele>
        <time>2009-06-03T10:49:22.000Z</time>
      </trkpt>
      <trkpt lat="47.53023" lon="10.83202">
        <ele>1361.36</ele>
        <time>2009-06-03T10:49:30.000Z</time>
      </trkpt>
      <trkpt lat="47.53020" lon="10.83206">
        <ele>1359.44</ele>
        <time>2009-06-03T10:49:32.000Z</time>
      </trkpt>
      <trkpt lat="47.53008" lon="10.83225">
        <ele>1357.04</ele>
        <time>2009-06-03T10:49:38.000Z</time>
      </trkpt>
      <trkpt lat="47.53007" lon="10.83229">
        <ele>1356.56</ele>
        <time>2009-06-03T10:49:39.000Z</time>
      </trkpt>
      <trkpt lat="47.53002" lon="10.83257">
        <ele>1353.19</ele>
        <time>2009-06-03T10:49:51.000Z</time>
      </trkpt>
      <trkpt lat="47.52997" lon="10.83270">
        <ele>1351.27</ele>
        <time>2009-06-03T10:49:55.000Z</time>
      </trkpt>
      <trkpt lat="47.52992" lon="10.83277">
        <ele>1351.27</ele>
        <time>2009-06-03T10:49:58.000Z</time>
      </trkpt>
      <trkpt lat="47.52976" lon="10.83300">
        <ele>1346.46</ele>
        <time>2009-06-03T10:50:06.000Z</time>
      </trkpt>
      <trkpt lat="47.52971" lon="10.83328">
        <ele>1343.10</ele>
        <time>2009-06-03T10:50:16.000Z</time>
      </trkpt>
      <trkpt lat="47.52963" lon="10.83350">
        <ele>1340.22</ele>
        <time>2009-06-03T10:50:22.000Z</time>
      </trkpt>
      <trkpt lat="47.52962" lon="10.83354">
        <ele>1340.22</ele>
        <time>2009-06-03T10:50:23.000Z</time>
      </trkpt>
      <trkpt lat="47.52950" lon="10.83377">
        <ele>1337.33</ele>
        <time>2009-06-03T10:50:29.000Z</time>
      </trkpt>
      <trkpt lat="47.52945" lon="10.83384">
        <ele>1335.89</ele>
        <time>2009-06-03T10:50:31.000Z</time>
      </trkpt>
      <trkpt lat="47.52943" lon="10.83387">
        <ele>1335.41</ele>
        <time>2009-06-03T10:50:32.000Z</time>
      </trkpt>
      <trkpt lat="47.52941" lon="10.83389">
        <ele>1334.93</ele>
        <time>2009-06-03T10:50:37.000Z</time>
      </trkpt>
      <trkpt lat="47.52954" lon="10.83379">
        <ele>1334.45</ele>
        <time>2009-06-03T10:50:43.000Z</time>
      </trkpt>
      <trkpt lat="47.52971" lon="10.83363">
        <ele>1331.08</ele>
        <time>2009-06-03T10:50:50.000Z</time>
      </trkpt>
      <trkpt lat="47.52981" lon="10.83350">
        <ele>1327.24</ele>
        <time>2009-06-03T10:50:54.000Z</time>
      </trkpt>
      <trkpt lat="47.52984" lon="10.83346">
        <ele>1327.24</ele>
        <time>2009-06-03T10:50:55.000Z</time>
      </trkpt>
      <trkpt lat="47.52996" lon="10.83328">
        <ele>1323.87</ele>
        <time>2009-06-03T10:51:01.000Z</time>
      </trkpt>
      <trkpt lat="47.52998" lon="10.83326">
        <ele>1323.39</ele>
        <time>2009-06-03T10:51:02.000Z</time>
      </trkpt>
      <trkpt lat="47.53012" lon="10.83320">
        <ele>1321.47</ele>
        <time>2009-06-03T10:51:06.000Z</time>
      </trkpt>
      <trkpt lat="47.53023" lon="10.83313">
        <ele>1319.55</ele>
        <time>2009-06-03T10:51:09.000Z</time>
      </trkpt>
      <trkpt lat="47.53027" lon="10.83316">
        <ele>1317.62</ele>
        <time>2009-06-03T10:51:17.000Z</time>
      </trkpt>
      <trkpt lat="47.53019" lon="10.83333">
        <ele>1314.74</ele>
        <time>2009-06-03T10:51:20.000Z</time>
      </trkpt>
      <trkpt lat="47.53006" lon="10.83353">
        <ele>1312.34</ele>
        <time>2009-06-03T10:51:25.000Z</time>
      </trkpt>
      <trkpt lat="47.53001" lon="10.83372">
        <ele>1309.45</ele>
        <time>2009-06-03T10:51:31.000Z</time>
      </trkpt>
      <trkpt lat="47.52993" lon="10.83391">
        <ele>1306.57</ele>
        <time>2009-06-03T10:51:36.000Z</time>
      </trkpt>
      <trkpt lat="47.52991" lon="10.83394">
        <ele>1306.09</ele>
        <time>2009-06-03T10:51:37.000Z</time>
      </trkpt>
      <trkpt lat="47.52981" lon="10.83422">
        <ele>1302.24</ele>
        <time>2009-06-03T10:51:43.000Z</time>
      </trkpt>
      <trkpt lat="47.52968" lon="10.83454">
        <ele>1298.88</ele>
        <time>2009-06-03T10:51:50.000Z</time>
      </trkpt>
      <trkpt lat="47.52957" lon="10.83472">
        <ele>1295.51</ele>
        <time>2009-06-03T10:51:55.000Z</time>
      </trkpt>
      <trkpt lat="47.52949" lon="10.83485">
        <ele>1294.55</ele>
        <time>2009-06-03T10:51:58.000Z</time>
      </trkpt>
      <trkpt lat="47.52942" lon="10.83501">
        <ele>1292.15</ele>
        <time>2009-06-03T10:52:02.000Z</time>
      </trkpt>
      <trkpt lat="47.52937" lon="10.83507">
        <ele>1291.19</ele>
        <time>2009-06-03T10:52:04.000Z</time>
      </trkpt>
      <trkpt lat="47.52934" lon="10.83518">
        <ele>1289.27</ele>
        <time>2009-06-03T10:52:07.000Z</time>
      </trkpt>
      <trkpt lat="47.52930" lon="10.83524">
        <ele>1289.27</ele>
        <time>2009-06-03T10:52:09.000Z</time>
      </trkpt>
      <trkpt lat="47.52926" lon="10.83533">
        <ele>1287.34</ele>
        <time>2009-06-03T10:52:12.000Z</time>
      </trkpt>
      <trkpt lat="47.52920" lon="10.83548">
        <ele>1285.42</ele>
        <time>2009-06-03T10:52:17.000Z</time>
      </trkpt>
      <trkpt lat="47.52910" lon="10.83566">
        <ele>1283.50</ele>
        <time>2009-06-03T10:52:22.000Z</time>
      </trkpt>
      <trkpt lat="47.52904" lon="10.83573">
        <ele>1282.54</ele>
        <time>2009-06-03T10:52:25.000Z</time>
      </trkpt>
      <trkpt lat="47.52895" lon="10.83582">
        <ele>1281.09</ele>
        <time>2009-06-03T10:52:28.000Z</time>
      </trkpt>
      <trkpt lat="47.52887" lon="10.83594">
        <ele>1280.61</ele>
        <time>2009-06-03T10:52:32.000Z</time>
      </trkpt>
      <trkpt lat="47.52882" lon="10.83604">
        <ele>1278.21</ele>
        <time>2009-06-03T10:52:35.000Z</time>
      </trkpt>
      <trkpt lat="47.52866" lon="10.83610">
        <ele>1276.77</ele>
        <time>2009-06-03T10:52:41.000Z</time>
      </trkpt>
      <trkpt lat="47.52852" lon="10.83632">
        <ele>1273.88</ele>
        <time>2009-06-03T10:52:47.000Z</time>
      </trkpt>
      <trkpt lat="47.52841" lon="10.83646">
        <ele>1270.52</ele>
        <time>2009-06-03T10:52:53.000Z</time>
      </trkpt>
      <trkpt lat="47.52834" lon="10.83656">
        <ele>1268.60</ele>
        <time>2009-06-03T10:52:56.000Z</time>
      </trkpt>
      <trkpt lat="47.52833" lon="10.83657">
        <ele>1267.64</ele>
        <time>2009-06-03T10:52:57.000Z</time>
      </trkpt>
      <trkpt lat="47.52821" lon="10.83667">
        <ele>1265.23</ele>
        <time>2009-06-03T10:53:02.000Z</time>
      </trkpt>
      <trkpt lat="47.52814" lon="10.83668">
        <ele>1265.23</ele>
        <time>2009-06-03T10:53:35.000Z</time>
      </trkpt>
      <trkpt lat="47.52812" lon="10.83667">
        <ele>1261.87</ele>
        <time>2009-06-03T10:53:46.000Z</time>
      </trkpt>
      <trkpt lat="47.52787" lon="10.83676">
        <ele>1260.91</ele>
        <time>2009-06-03T10:53:55.000Z</time>
      </trkpt>
      <trkpt lat="47.52774" lon="10.83681">
        <ele>1257.54</ele>
        <time>2009-06-03T10:54:00.000Z</time>
      </trkpt>
      <trkpt lat="47.52773" lon="10.83681">
        <ele>1256.58</ele>
        <time>2009-06-03T10:54:02.000Z</time>
      </trkpt>
      <trkpt lat="47.52768" lon="10.83685">
        <ele>1257.06</ele>
        <time>2009-06-03T10:54:16.000Z</time>
      </trkpt>
      <trkpt lat="47.52769" lon="10.83686">
        <ele>1257.06</ele>
        <time>2009-06-03T10:54:18.000Z</time>
      </trkpt>
      <trkpt lat="47.52781" lon="10.83688">
        <ele>1253.70</ele>
        <time>2009-06-03T10:54:23.000Z</time>
      </trkpt>
      <trkpt lat="47.52808" lon="10.83694">
        <ele>1250.33</ele>
        <time>2009-06-03T10:54:32.000Z</time>
      </trkpt>
      <trkpt lat="47.52811" lon="10.83694">
        <ele>1249.85</ele>
        <time>2009-06-03T10:54:33.000Z</time>
      </trkpt>
      <trkpt lat="47.52818" lon="10.83694">
        <ele>1248.41</ele>
        <time>2009-06-03T10:54:36.000Z</time>
      </trkpt>
      <trkpt lat="47.52824" lon="10.83696">
        <ele>1246.97</ele>
        <time>2009-06-03T10:54:38.000Z</time>
      </trkpt>
      <trkpt lat="47.52840" lon="10.83695">
        <ele>1245.04</ele>
        <time>2009-06-03T10:54:44.000Z</time>
      </trkpt>
      <trkpt lat="47.52842" lon="10.83698">
        <ele>1244.56</ele>
        <time>2009-06-03T10:54:46.000Z</time>
      </trkpt>
      <trkpt lat="47.52831" lon="10.83705">
        <ele>1242.64</ele>
        <time>2009-06-03T10:54:51.000Z</time>
      </trkpt>
      <trkpt lat="47.52810" lon="10.83720">
        <ele>1239.28</ele>
        <time>2009-06-03T10:54:58.000Z</time>
      </trkpt>
      <trkpt lat="47.52808" lon="10.83721">
        <ele>1239.28</ele>
        <time>2009-06-03T10:54:59.000Z</time>
      </trkpt>
      <trkpt lat="47.52801" lon="10.83725">
        <ele>1237.83</ele>
        <time>2009-06-03T10:55:01.000Z</time>
      </trkpt>
      <trkpt lat="47.52777" lon="10.83733">
        <ele>1234.95</ele>
        <time>2009-06-03T10:55:08.000Z</time>
      </trkpt>
      <trkpt lat="47.52767" lon="10.83730">
        <ele>1232.55</ele>
        <time>2009-06-03T10:55:12.000Z</time>
      </trkpt>
      <trkpt lat="47.52755" lon="10.83728">
        <ele>1230.63</ele>
        <time>2009-06-03T10:55:17.000Z</time>
      </trkpt>
      <trkpt lat="47.52738" lon="10.83723">
        <ele>1227.26</ele>
        <time>2009-06-03T10:55:25.000Z</time>
      </trkpt>
      <trkpt lat="47.52727" lon="10.83723">
        <ele>1225.82</ele>
        <time>2009-06-03T10:55:36.000Z</time>
      </trkpt>
      <trkpt lat="47.52719" lon="10.83723">
        <ele>1225.34</ele>
        <time>2009-06-03T10:55:41.000Z</time>
      </trkpt>
      <trkpt lat="47.52719" lon="10.83726">
        <ele>1225.34</ele>
        <time>2009-06-03T10:55:43.000Z</time>
      </trkpt>
      <trkpt lat="47.52727" lon="10.83727">
        <ele>1223.42</ele>
        <time>2009-06-03T10:55:47.000Z</time>
      </trkpt>
      <trkpt lat="47.52743" lon="10.83735">
        <ele>1220.05</ele>
        <time>2009-06-03T10:55:54.000Z</time>
      </trkpt>
      <trkpt lat="47.52748" lon="10.83737">
        <ele>1219.57</ele>
        <time>2009-06-03T10:55:56.000Z</time>
      </trkpt>
      <trkpt lat="47.52752" lon="10.83739">
        <ele>1218.13</ele>
        <time>2009-06-03T10:55:58.000Z</time>
      </trkpt>
      <trkpt lat="47.52775" lon="10.83755">
        <ele>1214.76</ele>
        <time>2009-06-03T10:56:10.000Z</time>
      </trkpt>
      <trkpt lat="47.52784" lon="10.83760">
        <ele>1213.32</ele>
        <time>2009-06-03T10:56:15.000Z</time>
      </trkpt>
      <trkpt lat="47.52797" lon="10.83775">
        <ele>1209.48</ele>
        <time>2009-06-03T10:56:22.000Z</time>
      </trkpt>
      <trkpt lat="47.52800" lon="10.83785">
        <ele>1209.00</ele>
        <time>2009-06-03T10:56:31.000Z</time>
      </trkpt>
      <trkpt lat="47.52778" lon="10.83782">
        <ele>1205.63</ele>
        <time>2009-06-03T10:56:40.000Z</time>
      </trkpt>
      <trkpt lat="47.52765" lon="10.83779">
        <ele>1202.75</ele>
        <time>2009-06-03T10:56:45.000Z</time>
      </trkpt>
      <trkpt lat="47.52745" lon="10.83780">
        <ele>1198.90</ele>
        <time>2009-06-03T10:56:52.000Z</time>
      </trkpt>
      <trkpt lat="47.52742" lon="10.83781">
        <ele>1198.42</ele>
        <time>2009-06-03T10:56:53.000Z</time>
      </trkpt>
      <trkpt lat="47.52729" lon="10.83779">
        <ele>1196.50</ele>
        <time>2009-06-03T10:56:59.000Z</time>
      </trkpt>
      <trkpt lat="47.52715" lon="10.83781">
        <ele>1192.65</ele>
        <time>2009-06-03T10:57:05.000Z</time>
      </trkpt>
      <trkpt lat="47.52701" lon="10.83780">
        <ele>1191.21</ele>
        <time>2009-06-03T10:57:17.000Z</time>
      </trkpt>
      <trkpt lat="47.52696" lon="10.83778">
        <ele>1190.73</ele>
        <time>2009-06-03T10:57:31.000Z</time>
      </trkpt>
      <trkpt lat="47.52682" lon="10.83769">
        <ele>1188.33</ele>
        <time>2009-06-03T10:57:39.000Z</time>
      </trkpt>
      <trkpt lat="47.52664" lon="10.83763">
        <ele>1184.96</ele>
        <time>2009-06-03T10:57:49.000Z</time>
      </trkpt>
      <trkpt lat="47.52658" lon="10.83756">
        <ele>1184.48</ele>
        <time>2009-06-03T10:57:53.000Z</time>
      </trkpt>
      <trkpt lat="47.52645" lon="10.83754">
        <ele>1181.12</ele>
        <time>2009-06-03T10:57:59.000Z</time>
      </trkpt>
      <trkpt lat="47.52632" lon="10.83766">
        <ele>1178.23</ele>
        <time>2009-06-03T10:58:12.000Z</time>
      </trkpt>
      <trkpt lat="47.52622" lon="10.83763">
        <ele>1177.27</ele>
        <time>2009-06-03T10:58:17.000Z</time>
      </trkpt>
      <trkpt lat="47.52618" lon="10.83753">
        <ele>1176.79</ele>
        <time>2009-06-03T10:58:19.000Z</time>
      </trkpt>
      <trkpt lat="47.52608" lon="10.83731">
        <ele>1173.43</ele>
        <time>2009-06-03T10:58:25.000Z</time>
      </trkpt>
      <trkpt lat="47.52606" lon="10.83717">
        <ele>1172.47</ele>
        <time>2009-06-03T10:58:29.000Z</time>
      </trkpt>
      <trkpt lat="47.52607" lon="10.83709">
        <ele>1171.02</ele>
        <time>2009-06-03T10:58:31.000Z</time>
      </trkpt>
      <trkpt lat="47.52607" lon="10.83701">
        <ele>1170.54</ele>
        <time>2009-06-03T10:58:33.000Z</time>
      </trkpt>
      <trkpt lat="47.52603" lon="10.83675">
        <ele>1168.62</ele>
        <time>2009-06-03T10:58:45.000Z</time>
      </trkpt>
      <trkpt lat="47.52601" lon="10.83656">
        <ele>1166.22</ele>
        <time>2009-06-03T10:58:52.000Z</time>
      </trkpt>
      <trkpt lat="47.52594" lon="10.83663">
        <ele>1164.29</ele>
        <time>2009-06-03T10:59:06.000Z</time>
      </trkpt>
      <trkpt lat="47.52594" lon="10.83663">
        <ele>1163.81</ele>
        <time>2009-06-03T10:59:07.000Z</time>
      </trkpt>
      <trkpt lat="47.52595" lon="10.83680">
        <ele>1163.33</ele>
        <time>2009-06-03T10:59:13.000Z</time>
      </trkpt>
      <trkpt lat="47.52595" lon="10.83685">
        <ele>1162.37</ele>
        <time>2009-06-03T10:59:16.000Z</time>
      </trkpt>
      <trkpt lat="47.52595" lon="10.83695">
        <ele>1161.41</ele>
        <time>2009-06-03T10:59:20.000Z</time>
      </trkpt>
      <trkpt lat="47.52591" lon="10.83709">
        <ele>1159.01</ele>
        <time>2009-06-03T10:59:24.000Z</time>
      </trkpt>
      <trkpt lat="47.52590" lon="10.83712">
        <ele>1157.56</ele>
        <time>2009-06-03T10:59:25.000Z</time>
      </trkpt>
      <trkpt lat="47.52587" lon="10.83726">
        <ele>1156.12</ele>
        <time>2009-06-03T10:59:29.000Z</time>
      </trkpt>
      <trkpt lat="47.52587" lon="10.83750">
        <ele>1152.76</ele>
        <time>2009-06-03T10:59:35.000Z</time>
      </trkpt>
      <trkpt lat="47.52586" lon="10.83754">
        <ele>1153.72</ele>
        <time>2009-06-03T10:59:38.000Z</time>
      </trkpt>
      <trkpt lat="47.52585" lon="10.83767">
        <ele>1152.28</ele>
        <time>2009-06-03T10:59:47.000Z</time>
      </trkpt>
      <trkpt lat="47.52577" lon="10.83783">
        <ele>1149.39</ele>
        <time>2009-06-03T11:00:07.000Z</time>
      </trkpt>
      <trkpt lat="47.52577" lon="10.83784">
        <ele>1149.87</ele>
        <time>2009-06-03T11:00:11.000Z</time>
      </trkpt>
      <trkpt lat="47.52576" lon="10.83801">
        <ele>1146.51</ele>
        <time>2009-06-03T11:00:16.000Z</time>
      </trkpt>
      <trkpt lat="47.52574" lon="10.83806">
        <ele>1146.51</ele>
        <time>2009-06-03T11:00:17.000Z</time>
      </trkpt>
      <trkpt lat="47.52572" lon="10.83829">
        <ele>1143.63</ele>
        <time>2009-06-03T11:00:22.000Z</time>
      </trkpt>
      <trkpt lat="47.52573" lon="10.83834">
        <ele>1144.11</ele>
        <time>2009-06-03T11:00:23.000Z</time>
      </trkpt>
      <trkpt lat="47.52591" lon="10.83858">
        <ele>1140.26</ele>
        <time>2009-06-03T11:00:29.000Z</time>
      </trkpt>
      <trkpt lat="47.52596" lon="10.83866">
        <ele>1138.82</ele>
        <time>2009-06-03T11:00:31.000Z</time>
      </trkpt>
      <trkpt lat="47.52606" lon="10.83884">
        <ele>1136.42</ele>
        <time>2009-06-03T11:00:36.000Z</time>
      </trkpt>
      <trkpt lat="47.52620" lon="10.83887">
        <ele>1134.49</ele>
        <time>2009-06-03T11:00:42.000Z</time>
      </trkpt>
      <trkpt lat="47.52637" lon="10.83887">
        <ele>1131.13</ele>
        <time>2009-06-03T11:00:49.000Z</time>
      </trkpt>
      <trkpt lat="47.52643" lon="10.83890">
        <ele>1129.69</ele>
        <time>2009-06-03T11:00:52.000Z</time>
      </trkpt>
      <trkpt lat="47.52651" lon="10.83895">
        <ele>1127.76</ele>
        <time>2009-06-03T11:00:55.000Z</time>
      </trkpt>
      <trkpt lat="47.52665" lon="10.83914">
        <ele>1124.40</ele>
        <time>2009-06-03T11:01:02.000Z</time>
      </trkpt>
      <trkpt lat="47.52668" lon="10.83917">
        <ele>1123.92</ele>
        <time>2009-06-03T11:01:03.000Z</time>
      </trkpt>
      <trkpt lat="47.52685" lon="10.83940">
        <ele>1120.07</ele>
        <time>2009-06-03T11:01:09.000Z</time>
      </trkpt>
      <trkpt lat="47.52696" lon="10.83945">
        <ele>1118.63</ele>
        <time>2009-06-03T11:01:14.000Z</time>
      </trkpt>
      <trkpt lat="47.52708" lon="10.83940">
        <ele>1116.71</ele>
        <time>2009-06-03T11:01:17.000Z</time>
      </trkpt>
      <trkpt lat="47.52718" lon="10.83943">
        <ele>1115.27</ele>
        <time>2009-06-03T11:01:20.000Z</time>
      </trkpt>
      <trkpt lat="47.52728" lon="10.83950">
        <ele>1112.86</ele>
        <time>2009-06-03T11:01:24.000Z</time>
      </trkpt>
      <trkpt lat="47.52737" lon="10.83956">
        <ele>1111.42</ele>
        <time>2009-06-03T11:01:27.000Z</time>
      </trkpt>
      <trkpt lat="47.52744" lon="10.83958">
        <ele>1110.46</ele>
        <time>2009-06-03T11:01:36.000Z</time>
      </trkpt>
      <trkpt lat="47.52755" lon="10.83970">
        <ele>1108.06</ele>
        <time>2009-06-03T11:01:42.000Z</time>
      </trkpt>
      <trkpt lat="47.52752" lon="10.83974">
        <ele>1107.58</ele>
        <time>2009-06-03T11:02:09.000Z</time>
      </trkpt>
      <trkpt lat="47.52744" lon="10.83980">
        <ele>1106.61</ele>
        <time>2009-06-03T11:03:47.000Z</time>
      </trkpt>
      <trkpt lat="47.52730" lon="10.83983">
        <ele>1106.13</ele>
        <time>2009-06-03T11:03:51.000Z</time>
      </trkpt>
      <trkpt lat="47.52722" lon="10.83984">
        <ele>1104.21</ele>
        <time>2009-06-03T11:03:53.000Z</time>
      </trkpt>
      <trkpt lat="47.52701" lon="10.83989">
        <ele>1103.73</ele>
        <time>2009-06-03T11:03:58.000Z</time>
      </trkpt>
      <trkpt lat="47.52687" lon="10.83996">
        <ele>1103.25</ele>
        <time>2009-06-03T11:04:01.000Z</time>
      </trkpt>
      <trkpt lat="47.52661" lon="10.84022">
        <ele>1101.33</ele>
        <time>2009-06-03T11:04:06.000Z</time>
      </trkpt>
      <trkpt lat="47.52643" lon="10.84054">
        <ele>1101.33</ele>
        <time>2009-06-03T11:04:19.000Z</time>
      </trkpt>
      <trkpt lat="47.52639" lon="10.84058">
        <ele>1097.96</ele>
        <time>2009-06-03T11:06:51.000Z</time>
      </trkpt>
      <trkpt lat="47.52637" lon="10.84058">
        <ele>1098.92</ele>
        <time>2009-06-03T11:07:36.000Z</time>
      </trkpt>
      <trkpt lat="47.52608" lon="10.84038">
        <ele>1100.85</ele>
        <time>2009-06-03T11:07:53.000Z</time>
      </trkpt>
      <trkpt lat="47.52585" lon="10.84027">
        <ele>1103.25</ele>
        <time>2009-06-03T11:08:03.000Z</time>
      </trkpt>
      <trkpt lat="47.52582" lon="10.84022">
        <ele>1104.69</ele>
        <time>2009-06-03T11:08:05.000Z</time>
      </trkpt>
      <trkpt lat="47.52568" lon="10.84008">
        <ele>1106.61</ele>
        <time>2009-06-03T11:08:13.000Z</time>
      </trkpt>
      <trkpt lat="47.52548" lon="10.83990">
        <ele>1108.06</ele>
        <time>2009-06-03T11:08:24.000Z</time>
      </trkpt>
      <trkpt lat="47.52535" lon="10.83980">
        <ele>1108.54</ele>
        <time>2009-06-03T11:08:31.000Z</time>
      </trkpt>
      <trkpt lat="47.52497" lon="10.83977">
        <ele>1109.02</ele>
        <time>2009-06-03T11:08:45.000Z</time>
      </trkpt>
      <trkpt lat="47.52457" lon="10.83984">
        <ele>1107.10</ele>
        <time>2009-06-03T11:08:55.000Z</time>
      </trkpt>
      <trkpt lat="47.52434" lon="10.83989">
        <ele>1106.61</ele>
        <time>2009-06-03T11:09:00.000Z</time>
      </trkpt>
      <trkpt lat="47.52408" lon="10.83992">
        <ele>1104.69</ele>
        <time>2009-06-03T11:09:06.000Z</time>
      </trkpt>
      <trkpt lat="47.52402" lon="10.83994">
        <ele>1103.73</ele>
        <time>2009-06-03T11:09:07.000Z</time>
      </trkpt>
      <trkpt lat="47.52382" lon="10.83982">
        <ele>1103.25</ele>
        <time>2009-06-03T11:09:11.000Z</time>
      </trkpt>
      <trkpt lat="47.52360" lon="10.83946">
        <ele>1101.33</ele>
        <time>2009-06-03T11:09:16.000Z</time>
      </trkpt>
      <trkpt lat="47.52347" lon="10.83928">
        <ele>1100.85</ele>
        <time>2009-06-03T11:09:19.000Z</time>
      </trkpt>
      <trkpt lat="47.52321" lon="10.83898">
        <ele>1096.52</ele>
        <time>2009-06-03T11:09:24.000Z</time>
      </trkpt>
      <trkpt lat="47.52307" lon="10.83892">
        <ele>1095.56</ele>
        <time>2009-06-03T11:09:26.000Z</time>
      </trkpt>
      <trkpt lat="47.52256" lon="10.83894">
        <ele>1094.60</ele>
        <time>2009-06-03T11:09:35.000Z</time>
      </trkpt>
      <trkpt lat="47.52251" lon="10.83895">
        <ele>1094.12</ele>
        <time>2009-06-03T11:09:36.000Z</time>
      </trkpt>
      <trkpt lat="47.52233" lon="10.83910">
        <ele>1092.20</ele>
        <time>2009-06-03T11:09:40.000Z</time>
      </trkpt>
      <trkpt lat="47.52215" lon="10.83920">
        <ele>1088.83</ele>
        <time>2009-06-03T11:09:43.000Z</time>
      </trkpt>
      <trkpt lat="47.52189" lon="10.83946">
        <ele>1084.99</ele>
        <time>2009-06-03T11:09:47.000Z</time>
      </trkpt>
      <trkpt lat="47.52177" lon="10.83965">
        <ele>1085.47</ele>
        <time>2009-06-03T11:09:49.000Z</time>
      </trkpt>
      <trkpt lat="47.52147" lon="10.83986">
        <ele>1084.50</ele>
        <time>2009-06-03T11:09:53.000Z</time>
      </trkpt>
      <trkpt lat="47.52128" lon="10.83999">
        <ele>1083.54</ele>
        <time>2009-06-03T11:09:56.000Z</time>
      </trkpt>
      <trkpt lat="47.52119" lon="10.84008">
        <ele>1081.14</ele>
        <time>2009-06-03T11:09:58.000Z</time>
      </trkpt>
      <trkpt lat="47.52103" lon="10.84027">
        <ele>1081.14</ele>
        <time>2009-06-03T11:10:06.000Z</time>
      </trkpt>
      <trkpt lat="47.52082" lon="10.83997">
        <ele>1082.10</ele>
        <time>2009-06-03T11:11:17.000Z</time>
      </trkpt>
      <trkpt lat="47.52067" lon="10.83987">
        <ele>1080.66</ele>
        <time>2009-06-03T11:11:22.000Z</time>
      </trkpt>
      <trkpt lat="47.52059" lon="10.83987">
        <ele>1080.18</ele>
        <time>2009-06-03T11:11:24.000Z</time>
      </trkpt>
      <trkpt lat="47.52011" lon="10.84012">
        <ele>1079.70</ele>
        <time>2009-06-03T11:11:35.000Z</time>
      </trkpt>
      <trkpt lat="47.51963" lon="10.84011">
        <ele>1077.78</ele>
        <time>2009-06-03T11:11:44.000Z</time>
      </trkpt>
      <trkpt lat="47.51920" lon="10.83985">
        <ele>1074.41</ele>
        <time>2009-06-03T11:11:50.000Z</time>
      </trkpt>
      <trkpt lat="47.51896" lon="10.83970">
        <ele>1072.49</ele>
        <time>2009-06-03T11:11:53.000Z</time>
      </trkpt>
      <trkpt lat="47.51870" lon="10.83960">
        <ele>1070.57</ele>
        <time>2009-06-03T11:11:56.000Z</time>
      </trkpt>
      <trkpt lat="47.51843" lon="10.83954">
        <ele>1070.08</ele>
        <time>2009-06-03T11:11:59.000Z</time>
      </trkpt>
      <trkpt lat="47.51745" lon="10.83986">
        <ele>1066.72</ele>
        <time>2009-06-03T11:12:10.000Z</time>
      </trkpt>
      <trkpt lat="47.51719" lon="10.84005">
        <ele>1064.32</ele>
        <time>2009-06-03T11:12:13.000Z</time>
      </trkpt>
      <trkpt lat="47.51683" lon="10.84035">
        <ele>1062.87</ele>
        <time>2009-06-03T11:12:17.000Z</time>
      </trkpt>
      <trkpt lat="47.51674" lon="10.84042">
        <ele>1062.87</ele>
        <time>2009-06-03T11:12:18.000Z</time>
      </trkpt>
      <trkpt lat="47.51621" lon="10.84049">
        <ele>1059.99</ele>
        <time>2009-06-03T11:12:23.000Z</time>
      </trkpt>
      <trkpt lat="47.51581" lon="10.84024">
        <ele>1059.03</ele>
        <time>2009-06-03T11:12:27.000Z</time>
      </trkpt>
      <trkpt lat="47.51533" lon="10.83981">
        <ele>1056.63</ele>
        <time>2009-06-03T11:12:32.000Z</time>
      </trkpt>
      <trkpt lat="47.51427" lon="10.83954">
        <ele>1054.70</ele>
        <time>2009-06-03T11:12:42.000Z</time>
      </trkpt>
      <trkpt lat="47.51308" lon="10.83960">
        <ele>1050.86</ele>
        <time>2009-06-03T11:12:53.000Z</time>
      </trkpt>
      <trkpt lat="47.51246" lon="10.83957">
        <ele>1050.38</ele>
        <time>2009-06-03T11:12:59.000Z</time>
      </trkpt>
      <trkpt lat="47.51216" lon="10.83960">
        <ele>1049.42</ele>
        <time>2009-06-03T11:13:02.000Z</time>
      </trkpt>
      <trkpt lat="47.51163" lon="10.83953">
        <ele>1046.53</ele>
        <time>2009-06-03T11:13:07.000Z</time>
      </trkpt>
      <trkpt lat="47.51039" lon="10.83927">
        <ele>1044.13</ele>
        <time>2009-06-03T11:13:19.000Z</time>
      </trkpt>
      <trkpt lat="47.50978" lon="10.83949">
        <ele>1041.25</ele>
        <time>2009-06-03T11:13:25.000Z</time>
      </trkpt>
      <trkpt lat="47.50807" lon="10.84025">
        <ele>1041.73</ele>
        <time>2009-06-03T11:13:45.000Z</time>
      </trkpt>
      <trkpt lat="47.50774" lon="10.84031">
        <ele>1041.25</ele>
        <time>2009-06-03T11:13:57.000Z</time>
      </trkpt>
      <trkpt lat="47.50767" lon="10.84032">
        <ele>1041.25</ele>
        <time>2009-06-03T11:14:01.000Z</time>
      </trkpt>
      <trkpt lat="47.50749" lon="10.84032">
        <ele>1040.76</ele>
        <time>2009-06-03T11:14:07.000Z</time>
      </trkpt>
      <trkpt lat="47.50707" lon="10.84047">
        <ele>1040.28</ele>
        <time>2009-06-03T11:14:22.000Z</time>
      </trkpt>
      <trkpt lat="47.50687" lon="10.84067">
        <ele>1039.80</ele>
        <time>2009-06-03T11:14:34.000Z</time>
      </trkpt>
      <trkpt lat="47.50672" lon="10.84085">
        <ele>1037.88</ele>
        <time>2009-06-03T11:14:38.000Z</time>
      </trkpt>
      <trkpt lat="47.50637" lon="10.84135">
        <ele>1036.44</ele>
        <time>2009-06-03T11:14:51.000Z</time>
      </trkpt>
      <trkpt lat="47.50607" lon="10.84156">
        <ele>1033.07</ele>
        <time>2009-06-03T11:14:59.000Z</time>
      </trkpt>
      <trkpt lat="47.50587" lon="10.84161">
        <ele>1032.11</ele>
        <time>2009-06-03T11:15:04.000Z</time>
      </trkpt>
      <trkpt lat="47.50564" lon="10.84166">
        <ele>1032.59</ele>
        <time>2009-06-03T11:15:08.000Z</time>
      </trkpt>
      <trkpt lat="47.50551" lon="10.84164">
        <ele>1031.63</ele>
        <time>2009-06-03T11:15:10.000Z</time>
      </trkpt>
      <trkpt lat="47.50442" lon="10.84076">
        <ele>1028.75</ele>
        <time>2009-06-03T11:15:28.000Z</time>
      </trkpt>
      <trkpt lat="47.50342" lon="10.84041">
        <ele>1025.38</ele>
        <time>2009-06-03T11:15:41.000Z</time>
      </trkpt>
      <trkpt lat="47.50334" lon="10.84039">
        <ele>1024.90</ele>
        <time>2009-06-03T11:15:42.000Z</time>
      </trkpt>
      <trkpt lat="47.50215" lon="10.83986">
        <ele>1022.02</ele>
        <time>2009-06-03T11:15:57.000Z</time>
      </trkpt>
      <trkpt lat="47.50118" lon="10.83957">
        <ele>1019.62</ele>
        <time>2009-06-03T11:16:08.000Z</time>
      </trkpt>
      <trkpt lat="47.50040" lon="10.83962">
        <ele>1018.17</ele>
        <time>2009-06-03T11:16:16.000Z</time>
      </trkpt>
      <trkpt lat="47.49895" lon="10.83979">
        <ele>1017.21</ele>
        <time>2009-06-03T11:16:32.000Z</time>
      </trkpt>
      <trkpt lat="47.49860" lon="10.83979">
        <ele>1017.21</ele>
        <time>2009-06-03T11:16:36.000Z</time>
      </trkpt>
      <trkpt lat="47.49793" lon="10.83973">
        <ele>1017.21</ele>
        <time>2009-06-03T11:16:43.000Z</time>
      </trkpt>
      <trkpt lat="47.49687" lon="10.84015">
        <ele>1013.37</ele>
        <time>2009-06-03T11:16:53.000Z</time>
      </trkpt>
      <trkpt lat="47.49658" lon="10.83998">
        <ele>1012.89</ele>
        <time>2009-06-03T11:16:57.000Z</time>
      </trkpt>
      <trkpt lat="47.49644" lon="10.83983">
        <ele>1011.44</ele>
        <time>2009-06-03T11:16:59.000Z</time>
      </trkpt>
      <trkpt lat="47.49622" lon="10.83949">
        <ele>1010.48</ele>
        <time>2009-06-03T11:17:02.000Z</time>
      </trkpt>
      <trkpt lat="47.49537" lon="10.83840">
        <ele>1009.52</ele>
        <time>2009-06-03T11:17:15.000Z</time>
      </trkpt>
      <trkpt lat="47.49438" lon="10.83726">
        <ele>1009.04</ele>
        <time>2009-06-03T11:17:30.000Z</time>
      </trkpt>
      <trkpt lat="47.49307" lon="10.83663">
        <ele>1007.60</ele>
        <time>2009-06-03T11:17:48.000Z</time>
      </trkpt>
      <trkpt lat="47.49250" lon="10.83666">
        <ele>1004.72</ele>
        <time>2009-06-03T11:17:55.000Z</time>
      </trkpt>
      <trkpt lat="47.49208" lon="10.83677">
        <ele>1003.27</ele>
        <time>2009-06-03T11:18:00.000Z</time>
      </trkpt>
      <trkpt lat="47.49077" lon="10.83710">
        <ele>999.91</ele>
        <time>2009-06-03T11:18:15.000Z</time>
      </trkpt>
      <trkpt lat="47.49068" lon="10.83711">
        <ele>999.91</ele>
        <time>2009-06-03T11:18:16.000Z</time>
      </trkpt>
      <trkpt lat="47.49015" lon="10.83711">
        <ele>997.02</ele>
        <time>2009-06-03T11:18:22.000Z</time>
      </trkpt>
      <trkpt lat="47.48869" lon="10.83700">
        <ele>995.10</ele>
        <time>2009-06-03T11:18:40.000Z</time>
      </trkpt>
      <trkpt lat="47.48755" lon="10.83682">
        <ele>991.74</ele>
        <time>2009-06-03T11:18:55.000Z</time>
      </trkpt>
      <trkpt lat="47.48644" lon="10.83648">
        <ele>990.30</ele>
        <time>2009-06-03T11:19:11.000Z</time>
      </trkpt>
      <trkpt lat="47.48627" lon="10.83648">
        <ele>991.26</ele>
        <time>2009-06-03T11:19:21.000Z</time>
      </trkpt>
      <trkpt lat="47.48620" lon="10.83669">
        <ele>991.26</ele>
        <time>2009-06-03T11:20:27.000Z</time>
      </trkpt>
      <trkpt lat="47.48603" lon="10.83745">
        <ele>989.81</ele>
        <time>2009-06-03T11:20:41.000Z</time>
      </trkpt>
      <trkpt lat="47.48609" lon="10.83848">
        <ele>992.22</ele>
        <time>2009-06-03T11:20:59.000Z</time>
      </trkpt>
      <trkpt lat="47.48627" lon="10.83907">
        <ele>991.26</ele>
        <time>2009-06-03T11:21:12.000Z</time>
      </trkpt>
      <trkpt lat="47.48633" lon="10.83935">
        <ele>990.78</ele>
        <time>2009-06-03T11:21:16.000Z</time>
      </trkpt>
      <trkpt lat="47.48642" lon="10.84054">
        <ele>990.78</ele>
        <time>2009-06-03T11:21:34.000Z</time>
      </trkpt>
      <trkpt lat="47.48641" lon="10.84077">
        <ele>990.30</ele>
        <time>2009-06-03T11:22:16.000Z</time>
      </trkpt>
      <trkpt lat="47.48645" lon="10.84138">
        <ele>989.33</ele>
        <time>2009-06-03T11:22:29.000Z</time>
      </trkpt>
      <trkpt lat="47.48660" lon="10.84189">
        <ele>988.37</ele>
        <time>2009-06-03T11:22:38.000Z</time>
      </trkpt>
      <trkpt lat="47.48665" lon="10.84215">
        <ele>987.89</ele>
        <time>2009-06-03T11:22:42.000Z</time>
      </trkpt>
      <trkpt lat="47.48685" lon="10.84297">
        <ele>988.37</ele>
        <time>2009-06-03T11:22:55.000Z</time>
      </trkpt>
      <trkpt lat="47.48672" lon="10.84413">
        <ele>988.85</ele>
        <time>2009-06-03T11:23:15.000Z</time>
      </trkpt>
      <trkpt lat="47.48664" lon="10.84451">
        <ele>989.33</ele>
        <time>2009-06-03T11:24:31.000Z</time>
      </trkpt>
      <trkpt lat="47.48660" lon="10.84469">
        <ele>988.85</ele>
        <time>2009-06-03T11:24:34.000Z</time>
      </trkpt>
      <trkpt lat="47.48650" lon="10.84533">
        <ele>989.33</ele>
        <time>2009-06-03T11:24:43.000Z</time>
      </trkpt>
      <trkpt lat="47.48639" lon="10.84582">
        <ele>989.81</ele>
        <time>2009-06-03T11:24:50.000Z</time>
      </trkpt>
      <trkpt lat="47.48630" lon="10.84638">
        <ele>988.85</ele>
        <time>2009-06-03T11:24:57.000Z</time>
      </trkpt>
      <trkpt lat="47.48606" lon="10.84692">
        <ele>988.37</ele>
        <time>2009-06-03T11:25:05.000Z</time>
      </trkpt>
      <trkpt lat="47.48601" lon="10.84706">
        <ele>988.85</ele>
        <time>2009-06-03T11:25:07.000Z</time>
      </trkpt>
      <trkpt lat="47.48591" lon="10.84726">
        <ele>987.89</ele>
        <time>2009-06-03T11:25:10.000Z</time>
      </trkpt>
      <trkpt lat="47.48508" lon="10.84804">
        <ele>988.85</ele>
        <time>2009-06-03T11:25:28.000Z</time>
      </trkpt>
      <trkpt lat="47.48471" lon="10.84833">
        <ele>988.85</ele>
        <time>2009-06-03T11:25:36.000Z</time>
      </trkpt>
      <trkpt lat="47.48456" lon="10.84865">
        <ele>988.85</ele>
        <time>2009-06-03T11:25:41.000Z</time>
      </trkpt>
      <trkpt lat="47.48446" lon="10.84907">
        <ele>988.85</ele>
        <time>2009-06-03T11:25:46.000Z</time>
      </trkpt>
      <trkpt lat="47.48384" lon="10.84991">
        <ele>989.33</ele>
        <time>2009-06-03T11:26:01.000Z</time>
      </trkpt>
      <trkpt lat="47.48380" lon="10.84995">
        <ele>989.33</ele>
        <time>2009-06-03T11:26:02.000Z</time>
      </trkpt>
      <trkpt lat="47.48354" lon="10.85028">
        <ele>987.89</ele>
        <time>2009-06-03T11:26:08.000Z</time>
      </trkpt>
      <trkpt lat="47.48307" lon="10.85081">
        <ele>989.33</ele>
        <time>2009-06-03T11:26:24.000Z</time>
      </trkpt>
      <trkpt lat="47.48260" lon="10.85097">
        <ele>989.81</ele>
        <time>2009-06-03T11:26:28.000Z</time>
      </trkpt>
      <trkpt lat="47.48221" lon="10.85096">
        <ele>990.30</ele>
        <time>2009-06-03T11:26:37.000Z</time>
      </trkpt>
      <trkpt lat="47.48185" lon="10.85064">
        <ele>992.70</ele>
        <time>2009-06-03T11:26:48.000Z</time>
      </trkpt>
      <trkpt lat="47.48176" lon="10.85031">
        <ele>989.33</ele>
        <time>2009-06-03T11:26:58.000Z</time>
      </trkpt>
      <trkpt lat="47.48176" lon="10.85025">
        <ele>989.33</ele>
        <time>2009-06-03T11:26:59.000Z</time>
      </trkpt>
      <trkpt lat="47.48177" lon="10.85011">
        <ele>987.89</ele>
        <time>2009-06-03T11:27:01.000Z</time>
      </trkpt>
      <trkpt lat="47.48178" lon="10.84974">
        <ele>986.93</ele>
        <time>2009-06-03T11:27:06.000Z</time>
      </trkpt>
      <trkpt lat="47.48180" lon="10.84943">
        <ele>988.37</ele>
        <time>2009-06-03T11:27:10.000Z</time>
      </trkpt>
      <trkpt lat="47.48168" lon="10.84873">
        <ele>987.89</ele>
        <time>2009-06-03T11:27:21.000Z</time>
      </trkpt>
      <trkpt lat="47.48163" lon="10.84856">
        <ele>987.89</ele>
        <time>2009-06-03T11:27:24.000Z</time>
      </trkpt>
      <trkpt lat="47.48162" lon="10.84845">
        <ele>988.37</ele>
        <time>2009-06-03T11:27:26.000Z</time>
      </trkpt>
      <trkpt lat="47.48157" lon="10.84806">
        <ele>985.49</ele>
        <time>2009-06-03T11:27:32.000Z</time>
      </trkpt>
      <trkpt lat="47.48146" lon="10.84777">
        <ele>987.89</ele>
        <time>2009-06-03T11:27:37.000Z</time>
      </trkpt>
      <trkpt lat="47.48127" lon="10.84724">
        <ele>988.37</ele>
        <time>2009-06-03T11:27:46.000Z</time>
      </trkpt>
      <trkpt lat="47.48126" lon="10.84713">
        <ele>987.41</ele>
        <time>2009-06-03T11:27:48.000Z</time>
      </trkpt>
      <trkpt lat="47.48114" lon="10.84691">
        <ele>986.93</ele>
        <time>2009-06-03T11:27:52.000Z</time>
      </trkpt>
      <trkpt lat="47.48094" lon="10.84660">
        <ele>988.37</ele>
        <time>2009-06-03T11:27:58.000Z</time>
      </trkpt>
      <trkpt lat="47.48064" lon="10.84627">
        <ele>986.45</ele>
        <time>2009-06-03T11:28:06.000Z</time>
      </trkpt>
      <trkpt lat="47.48048" lon="10.84586">
        <ele>987.41</ele>
        <time>2009-06-03T11:28:11.000Z</time>
      </trkpt>
      <trkpt lat="47.48029" lon="10.84549">
        <ele>988.85</ele>
        <time>2009-06-03T11:28:20.000Z</time>
      </trkpt>
      <trkpt lat="47.48025" lon="10.84538">
        <ele>986.93</ele>
        <time>2009-06-03T11:28:22.000Z</time>
      </trkpt>
      <trkpt lat="47.48021" lon="10.84500">
        <ele>990.30</ele>
        <time>2009-06-03T11:28:28.000Z</time>
      </trkpt>
      <trkpt lat="47.48031" lon="10.84470">
        <ele>990.78</ele>
        <time>2009-06-03T11:28:34.000Z</time>
      </trkpt>
      <trkpt lat="47.48040" lon="10.84430">
        <ele>988.85</ele>
        <time>2009-06-03T11:28:40.000Z</time>
      </trkpt>
      <trkpt lat="47.48042" lon="10.84372">
        <ele>989.81</ele>
        <time>2009-06-03T11:28:54.000Z</time>
      </trkpt>
      <trkpt lat="47.48039" lon="10.84365">
        <ele>991.74</ele>
        <time>2009-06-03T11:29:05.000Z</time>
      </trkpt>
      <trkpt lat="47.48036" lon="10.84354">
        <ele>994.14</ele>
        <time>2009-06-03T11:29:18.000Z</time>
      </trkpt>
      <trkpt lat="47.48038" lon="10.84345">
        <ele>996.06</ele>
        <time>2009-06-03T11:29:33.000Z</time>
      </trkpt>
      <trkpt lat="47.48037" lon="10.84341">
        <ele>995.58</ele>
        <time>2009-06-03T11:29:39.000Z</time>
      </trkpt>
      <trkpt lat="47.48032" lon="10.84331">
        <ele>997.02</ele>
        <time>2009-06-03T11:29:43.000Z</time>
      </trkpt>
      <trkpt lat="47.48031" lon="10.84325">
        <ele>998.95</ele>
        <time>2009-06-03T11:29:46.000Z</time>
      </trkpt>
      <trkpt lat="47.48037" lon="10.84284">
        <ele>999.43</ele>
        <time>2009-06-03T11:29:58.000Z</time>
      </trkpt>
      <trkpt lat="47.48042" lon="10.84248">
        <ele>996.54</ele>
        <time>2009-06-03T11:30:05.000Z</time>
      </trkpt>
      <trkpt lat="47.48043" lon="10.84231">
        <ele>995.58</ele>
        <time>2009-06-03T11:30:08.000Z</time>
      </trkpt>
      <trkpt lat="47.48046" lon="10.84207">
        <ele>994.14</ele>
        <time>2009-06-03T11:30:14.000Z</time>
      </trkpt>
      <trkpt lat="47.48035" lon="10.84190">
        <ele>993.18</ele>
        <time>2009-06-03T11:30:29.000Z</time>
      </trkpt>
      <trkpt lat="47.48033" lon="10.84182">
        <ele>994.62</ele>
        <time>2009-06-03T11:30:32.000Z</time>
      </trkpt>
      <trkpt lat="47.48026" lon="10.84136">
        <ele>996.54</ele>
        <time>2009-06-03T11:30:42.000Z</time>
      </trkpt>
      <trkpt lat="47.48028" lon="10.84114">
        <ele>995.10</ele>
        <time>2009-06-03T11:30:46.000Z</time>
      </trkpt>
      <trkpt lat="47.48035" lon="10.84072">
        <ele>994.62</ele>
        <time>2009-06-03T11:30:53.000Z</time>
      </trkpt>
      <trkpt lat="47.48033" lon="10.84051">
        <ele>992.70</ele>
        <time>2009-06-03T11:30:56.000Z</time>
      </trkpt>
      <trkpt lat="47.48032" lon="10.84028">
        <ele>992.22</ele>
        <time>2009-06-03T11:31:00.000Z</time>
      </trkpt>
      <trkpt lat="47.48026" lon="10.84019">
        <ele>992.70</ele>
        <time>2009-06-03T11:31:03.000Z</time>
      </trkpt>
      <trkpt lat="47.48017" lon="10.83986">
        <ele>990.30</ele>
        <time>2009-06-03T11:31:09.000Z</time>
      </trkpt>
      <trkpt lat="47.48018" lon="10.83980">
        <ele>990.78</ele>
        <time>2009-06-03T11:31:10.000Z</time>
      </trkpt>
      <trkpt lat="47.48017" lon="10.83947">
        <ele>991.74</ele>
        <time>2009-06-03T11:31:15.000Z</time>
      </trkpt>
      <trkpt lat="47.48019" lon="10.83939">
        <ele>992.70</ele>
        <time>2009-06-03T11:31:17.000Z</time>
      </trkpt>
      <trkpt lat="47.48018" lon="10.83894">
        <ele>992.70</ele>
        <time>2009-06-03T11:31:27.000Z</time>
      </trkpt>
      <trkpt lat="47.48015" lon="10.83859">
        <ele>989.81</ele>
        <time>2009-06-03T11:31:33.000Z</time>
      </trkpt>
      <trkpt lat="47.48013" lon="10.83848">
        <ele>990.30</ele>
        <time>2009-06-03T11:31:35.000Z</time>
      </trkpt>
      <trkpt lat="47.48010" lon="10.83843">
        <ele>992.22</ele>
        <time>2009-06-03T11:31:37.000Z</time>
      </trkpt>
      <trkpt lat="47.48008" lon="10.83835">
        <ele>992.70</ele>
        <time>2009-06-03T11:31:39.000Z</time>
      </trkpt>
      <trkpt lat="47.48002" lon="10.83801">
        <ele>993.18</ele>
        <time>2009-06-03T11:31:48.000Z</time>
      </trkpt>
      <trkpt lat="47.47997" lon="10.83775">
        <ele>991.26</ele>
        <time>2009-06-03T11:31:54.000Z</time>
      </trkpt>
      <trkpt lat="47.47996" lon="10.83771">
        <ele>990.30</ele>
        <time>2009-06-03T11:31:55.000Z</time>
      </trkpt>
      <trkpt lat="47.47998" lon="10.83759">
        <ele>988.85</ele>
        <time>2009-06-03T11:31:58.000Z</time>
      </trkpt>
      <trkpt lat="47.48004" lon="10.83738">
        <ele>990.30</ele>
        <time>2009-06-03T11:32:04.000Z</time>
      </trkpt>
      <trkpt lat="47.48009" lon="10.83715">
        <ele>989.81</ele>
        <time>2009-06-03T11:32:10.000Z</time>
      </trkpt>
      <trkpt lat="47.48013" lon="10.83688">
        <ele>991.26</ele>
        <time>2009-06-03T11:32:25.000Z</time>
      </trkpt>
      <trkpt lat="47.48013" lon="10.83687">
        <ele>991.26</ele>
        <time>2009-06-03T11:32:30.000Z</time>
      </trkpt>
      <trkpt lat="47.48015" lon="10.83677">
        <ele>992.70</ele>
        <time>2009-06-03T11:32:35.000Z</time>
      </trkpt>
      <trkpt lat="47.48019" lon="10.83667">
        <ele>992.70</ele>
        <time>2009-06-03T11:32:38.000Z</time>
      </trkpt>
      <trkpt lat="47.48022" lon="10.83626">
        <ele>993.18</ele>
        <time>2009-06-03T11:32:48.000Z</time>
      </trkpt>
      <trkpt lat="47.48018" lon="10.83616">
        <ele>993.18</ele>
        <time>2009-06-03T11:32:51.000Z</time>
      </trkpt>
      <trkpt lat="47.48008" lon="10.83578">
        <ele>990.78</ele>
        <time>2009-06-03T11:32:59.000Z</time>
      </trkpt>
      <trkpt lat="47.48003" lon="10.83555">
        <ele>989.81</ele>
        <time>2009-06-03T11:33:03.000Z</time>
      </trkpt>
      <trkpt lat="47.47996" lon="10.83524">
        <ele>989.81</ele>
        <time>2009-06-03T11:33:10.000Z</time>
      </trkpt>
      <trkpt lat="47.47991" lon="10.83507">
        <ele>987.89</ele>
        <time>2009-06-03T11:33:13.000Z</time>
      </trkpt>
      <trkpt lat="47.47988" lon="10.83486">
        <ele>989.33</ele>
        <time>2009-06-03T11:33:17.000Z</time>
      </trkpt>
      <trkpt lat="47.47982" lon="10.83473">
        <ele>990.30</ele>
        <time>2009-06-03T11:33:21.000Z</time>
      </trkpt>
      <trkpt lat="47.47955" lon="10.83431">
        <ele>989.81</ele>
        <time>2009-06-03T11:33:34.000Z</time>
      </trkpt>
      <trkpt lat="47.47951" lon="10.83425">
        <ele>989.81</ele>
        <time>2009-06-03T11:33:36.000Z</time>
      </trkpt>
      <trkpt lat="47.47920" lon="10.83389">
        <ele>988.37</ele>
        <time>2009-06-03T11:33:47.000Z</time>
      </trkpt>
      <trkpt lat="47.47908" lon="10.83365">
        <ele>989.81</ele>
        <time>2009-06-03T11:33:57.000Z</time>
      </trkpt>
      <trkpt lat="47.47907" lon="10.83365">
        <ele>990.30</ele>
        <time>2009-06-03T11:33:58.000Z</time>
      </trkpt>
      <trkpt lat="47.47903" lon="10.83357">
        <ele>989.33</ele>
        <time>2009-06-03T11:34:05.000Z</time>
      </trkpt>
      <trkpt lat="47.47897" lon="10.83340">
        <ele>990.30</ele>
        <time>2009-06-03T11:34:11.000Z</time>
      </trkpt>
      <trkpt lat="47.47889" lon="10.83324">
        <ele>990.78</ele>
        <time>2009-06-03T11:34:17.000Z</time>
      </trkpt>
      <trkpt lat="47.47879" lon="10.83280">
        <ele>990.30</ele>
        <time>2009-06-03T11:34:29.000Z</time>
      </trkpt>
      <trkpt lat="47.47878" lon="10.83258">
        <ele>990.30</ele>
        <time>2009-06-03T11:34:33.000Z</time>
      </trkpt>
      <trkpt lat="47.47874" lon="10.83239">
        <ele>989.81</ele>
        <time>2009-06-03T11:34:38.000Z</time>
      </trkpt>
      <trkpt lat="47.47869" lon="10.83206">
        <ele>990.30</ele>
        <time>2009-06-03T11:34:48.000Z</time>
      </trkpt>
      <trkpt lat="47.47869" lon="10.83188">
        <ele>989.81</ele>
        <time>2009-06-03T11:34:53.000Z</time>
      </trkpt>
      <trkpt lat="47.47866" lon="10.83165">
        <ele>991.26</ele>
        <time>2009-06-03T11:35:00.000Z</time>
      </trkpt>
      <trkpt lat="47.47867" lon="10.83153">
        <ele>989.33</ele>
        <time>2009-06-03T11:35:03.000Z</time>
      </trkpt>
      <trkpt lat="47.47867" lon="10.83138">
        <ele>988.37</ele>
        <time>2009-06-03T11:35:05.000Z</time>
      </trkpt>
      <trkpt lat="47.47864" lon="10.83126">
        <ele>989.81</ele>
        <time>2009-06-03T11:35:08.000Z</time>
      </trkpt>
      <trkpt lat="47.47864" lon="10.83122">
        <ele>989.81</ele>
        <time>2009-06-03T11:35:09.000Z</time>
      </trkpt>
      <trkpt lat="47.47861" lon="10.83080">
        <ele>989.33</ele>
        <time>2009-06-03T11:35:20.000Z</time>
      </trkpt>
      <trkpt lat="47.47859" lon="10.83035">
        <ele>989.81</ele>
        <time>2009-06-03T11:35:30.000Z</time>
      </trkpt>
      <trkpt lat="47.47859" lon="10.83018">
        <ele>989.33</ele>
        <time>2009-06-03T11:35:35.000Z</time>
      </trkpt>
      <trkpt lat="47.47854" lon="10.83002">
        <ele>989.81</ele>
        <time>2009-06-03T11:35:39.000Z</time>
      </trkpt>
      <trkpt lat="47.47850" lon="10.82973">
        <ele>989.81</ele>
        <time>2009-06-03T11:35:45.000Z</time>
      </trkpt>
      <trkpt lat="47.47845" lon="10.82954">
        <ele>989.33</ele>
        <time>2009-06-03T11:35:50.000Z</time>
      </trkpt>
      <trkpt lat="47.47842" lon="10.82948">
        <ele>989.81</ele>
        <time>2009-06-03T11:35:54.000Z</time>
      </trkpt>
      <trkpt lat="47.47835" lon="10.82935">
        <ele>989.81</ele>
        <time>2009-06-03T11:36:02.000Z</time>
      </trkpt>
      <trkpt lat="47.47835" lon="10.82921">
        <ele>988.37</ele>
        <time>2009-06-03T11:36:06.000Z</time>
      </trkpt>
      <trkpt lat="47.47830" lon="10.82906">
        <ele>989.81</ele>
        <time>2009-06-03T11:36:09.000Z</time>
      </trkpt>
      <trkpt lat="47.47814" lon="10.82871">
        <ele>990.30</ele>
        <time>2009-06-03T11:36:18.000Z</time>
      </trkpt>
      <trkpt lat="47.47790" lon="10.82834">
        <ele>991.26</ele>
        <time>2009-06-03T11:36:30.000Z</time>
      </trkpt>
      <trkpt lat="47.47784" lon="10.82816">
        <ele>988.85</ele>
        <time>2009-06-03T11:36:33.000Z</time>
      </trkpt>
      <trkpt lat="47.47762" lon="10.82768">
        <ele>990.30</ele>
        <time>2009-06-03T11:36:42.000Z</time>
      </trkpt>
      <trkpt lat="47.47753" lon="10.82752">
        <ele>988.37</ele>
        <time>2009-06-03T11:36:45.000Z</time>
      </trkpt>
      <trkpt lat="47.47750" lon="10.82746">
        <ele>988.37</ele>
        <time>2009-06-03T11:36:46.000Z</time>
      </trkpt>
      <trkpt lat="47.47737" lon="10.82727">
        <ele>986.93</ele>
        <time>2009-06-03T11:36:50.000Z</time>
      </trkpt>
      <trkpt lat="47.47731" lon="10.82721">
        <ele>988.85</ele>
        <time>2009-06-03T11:36:52.000Z</time>
      </trkpt>
      <trkpt lat="47.47706" lon="10.82689">
        <ele>990.78</ele>
        <time>2009-06-03T11:37:02.000Z</time>
      </trkpt>
      <trkpt lat="47.47692" lon="10.82679">
        <ele>990.30</ele>
        <time>2009-06-03T11:37:07.000Z</time>
      </trkpt>
      <trkpt lat="47.47685" lon="10.82673">
        <ele>989.33</ele>
        <time>2009-06-03T11:37:09.000Z</time>
      </trkpt>
      <trkpt lat="47.47664" lon="10.82665">
        <ele>989.81</ele>
        <time>2009-06-03T11:37:15.000Z</time>
      </trkpt>
      <trkpt lat="47.47645" lon="10.82649">
        <ele>989.81</ele>
        <time>2009-06-03T11:37:22.000Z</time>
      </trkpt>
      <trkpt lat="47.47633" lon="10.82627">
        <ele>988.85</ele>
        <time>2009-06-03T11:37:26.000Z</time>
      </trkpt>
      <trkpt lat="47.47617" lon="10.82608">
        <ele>990.30</ele>
        <time>2009-06-03T11:37:32.000Z</time>
      </trkpt>
      <trkpt lat="47.47611" lon="10.82601">
        <ele>988.85</ele>
        <time>2009-06-03T11:37:35.000Z</time>
      </trkpt>
      <trkpt lat="47.47599" lon="10.82564">
        <ele>990.30</ele>
        <time>2009-06-03T11:37:45.000Z</time>
      </trkpt>
      <trkpt lat="47.47601" lon="10.82551">
        <ele>990.78</ele>
        <time>2009-06-03T11:39:01.000Z</time>
      </trkpt>
      <trkpt lat="47.47587" lon="10.82508">
        <ele>992.70</ele>
        <time>2009-06-03T11:39:11.000Z</time>
      </trkpt>
      <trkpt lat="47.47586" lon="10.82476">
        <ele>991.74</ele>
        <time>2009-06-03T11:39:21.000Z</time>
      </trkpt>
      <trkpt lat="47.47587" lon="10.82472">
        <ele>991.74</ele>
        <time>2009-06-03T11:39:22.000Z</time>
      </trkpt>
      <trkpt lat="47.47587" lon="10.82431">
        <ele>990.78</ele>
        <time>2009-06-03T11:39:29.000Z</time>
      </trkpt>
      <trkpt lat="47.47581" lon="10.82402">
        <ele>990.78</ele>
        <time>2009-06-03T11:39:34.000Z</time>
      </trkpt>
      <trkpt lat="47.47579" lon="10.82389">
        <ele>990.30</ele>
        <time>2009-06-03T11:39:36.000Z</time>
      </trkpt>
      <trkpt lat="47.47580" lon="10.82366">
        <ele>989.81</ele>
        <time>2009-06-03T11:39:40.000Z</time>
      </trkpt>
      <trkpt lat="47.47579" lon="10.82355">
        <ele>989.81</ele>
        <time>2009-06-03T11:39:42.000Z</time>
      </trkpt>
      <trkpt lat="47.47577" lon="10.82331">
        <ele>991.26</ele>
        <time>2009-06-03T11:39:46.000Z</time>
      </trkpt>
      <trkpt lat="47.47577" lon="10.82317">
        <ele>991.74</ele>
        <time>2009-06-03T11:39:49.000Z</time>
      </trkpt>
      <trkpt lat="47.47573" lon="10.82279">
        <ele>993.18</ele>
        <time>2009-06-03T11:39:58.000Z</time>
      </trkpt>
      <trkpt lat="47.47569" lon="10.82247">
        <ele>992.22</ele>
        <time>2009-06-03T11:40:08.000Z</time>
      </trkpt>
      <trkpt lat="47.47565" lon="10.82225">
        <ele>992.70</ele>
        <time>2009-06-03T11:40:13.000Z</time>
      </trkpt>
      <trkpt lat="47.47564" lon="10.82214">
        <ele>992.22</ele>
        <time>2009-06-03T11:40:16.000Z</time>
      </trkpt>
      <trkpt lat="47.47547" lon="10.82166">
        <ele>991.26</ele>
        <time>2009-06-03T11:40:27.000Z</time>
      </trkpt>
      <trkpt lat="47.47539" lon="10.82145">
        <ele>990.78</ele>
        <time>2009-06-03T11:40:33.000Z</time>
      </trkpt>
      <trkpt lat="47.47530" lon="10.82129">
        <ele>990.30</ele>
        <time>2009-06-03T11:40:37.000Z</time>
      </trkpt>
      <trkpt lat="47.47518" lon="10.82108">
        <ele>990.30</ele>
        <time>2009-06-03T11:40:42.000Z</time>
      </trkpt>
      <trkpt lat="47.47482" lon="10.82055">
        <ele>990.30</ele>
        <time>2009-06-03T11:40:56.000Z</time>
      </trkpt>
      <trkpt lat="47.47478" lon="10.82050">
        <ele>991.26</ele>
        <time>2009-06-03T11:40:58.000Z</time>
      </trkpt>
      <trkpt lat="47.47471" lon="10.82041">
        <ele>989.33</ele>
        <time>2009-06-03T11:41:01.000Z</time>
      </trkpt>
      <trkpt lat="47.47463" lon="10.82033">
        <ele>988.37</ele>
        <time>2009-06-03T11:41:03.000Z</time>
      </trkpt>
      <trkpt lat="47.47445" lon="10.82023">
        <ele>988.85</ele>
        <time>2009-06-03T11:41:08.000Z</time>
      </trkpt>
      <trkpt lat="47.47437" lon="10.82018">
        <ele>987.89</ele>
        <time>2009-06-03T11:41:10.000Z</time>
      </trkpt>
      <trkpt lat="47.47430" lon="10.82014">
        <ele>989.33</ele>
        <time>2009-06-03T11:41:12.000Z</time>
      </trkpt>
      <trkpt lat="47.47403" lon="10.81998">
        <ele>988.37</ele>
        <time>2009-06-03T11:41:20.000Z</time>
      </trkpt>
      <trkpt lat="47.47377" lon="10.81968">
        <ele>988.37</ele>
        <time>2009-06-03T11:41:30.000Z</time>
      </trkpt>
      <trkpt lat="47.47360" lon="10.81930">
        <ele>987.89</ele>
        <time>2009-06-03T11:41:39.000Z</time>
      </trkpt>
      <trkpt lat="47.47338" lon="10.81898">
        <ele>988.85</ele>
        <time>2009-06-03T11:41:49.000Z</time>
      </trkpt>
      <trkpt lat="47.47329" lon="10.81881">
        <ele>987.89</ele>
        <time>2009-06-03T11:41:53.000Z</time>
      </trkpt>
      <trkpt lat="47.47318" lon="10.81856">
        <ele>989.33</ele>
        <time>2009-06-03T11:41:58.000Z</time>
      </trkpt>
      <trkpt lat="47.47302" lon="10.81823">
        <ele>989.81</ele>
        <time>2009-06-03T11:42:06.000Z</time>
      </trkpt>
      <trkpt lat="47.47290" lon="10.81787">
        <ele>988.37</ele>
        <time>2009-06-03T11:42:13.000Z</time>
      </trkpt>
      <trkpt lat="47.47287" lon="10.81767">
        <ele>987.41</ele>
        <time>2009-06-03T11:42:20.000Z</time>
      </trkpt>
      <trkpt lat="47.47292" lon="10.81726">
        <ele>988.37</ele>
        <time>2009-06-03T11:42:30.000Z</time>
      </trkpt>
      <trkpt lat="47.47302" lon="10.81710">
        <ele>989.33</ele>
        <time>2009-06-03T11:42:34.000Z</time>
      </trkpt>
      <trkpt lat="47.47305" lon="10.81708">
        <ele>990.78</ele>
        <time>2009-06-03T11:42:35.000Z</time>
      </trkpt>
      <trkpt lat="47.47313" lon="10.81690">
        <ele>990.78</ele>
        <time>2009-06-03T11:42:40.000Z</time>
      </trkpt>
      <trkpt lat="47.47321" lon="10.81675">
        <ele>990.78</ele>
        <time>2009-06-03T11:42:45.000Z</time>
      </trkpt>
      <trkpt lat="47.47337" lon="10.81649">
        <ele>988.85</ele>
        <time>2009-06-03T11:42:52.000Z</time>
      </trkpt>
      <trkpt lat="47.47352" lon="10.81591">
        <ele>989.33</ele>
        <time>2009-06-03T11:43:04.000Z</time>
      </trkpt>
      <trkpt lat="47.47355" lon="10.81580">
        <ele>989.33</ele>
        <time>2009-06-03T11:43:07.000Z</time>
      </trkpt>
      <trkpt lat="47.47362" lon="10.81554">
        <ele>988.85</ele>
        <time>2009-06-03T11:43:13.000Z</time>
      </trkpt>
      <trkpt lat="47.47363" lon="10.81522">
        <ele>988.85</ele>
        <time>2009-06-03T11:43:22.000Z</time>
      </trkpt>
      <trkpt lat="47.47364" lon="10.81502">
        <ele>988.85</ele>
        <time>2009-06-03T11:43:33.000Z</time>
      </trkpt>
      <trkpt lat="47.47368" lon="10.81496">
        <ele>988.37</ele>
        <time>2009-06-03T11:44:02.000Z</time>
      </trkpt>
      <trkpt lat="47.47381" lon="10.81439">
        <ele>988.37</ele>
        <time>2009-06-03T11:44:15.000Z</time>
      </trkpt>
      <trkpt lat="47.47379" lon="10.81417">
        <ele>989.33</ele>
        <time>2009-06-03T11:44:19.000Z</time>
      </trkpt>
      <trkpt lat="47.47377" lon="10.81390">
        <ele>989.81</ele>
        <time>2009-06-03T11:44:25.000Z</time>
      </trkpt>
      <trkpt lat="47.47368" lon="10.81358">
        <ele>989.81</ele>
        <time>2009-06-03T11:44:34.000Z</time>
      </trkpt>
      <trkpt lat="47.47366" lon="10.81338">
        <ele>990.78</ele>
        <time>2009-06-03T11:44:47.000Z</time>
      </trkpt>
      <trkpt lat="47.47361" lon="10.81335">
        <ele>990.30</ele>
        <time>2009-06-03T11:44:54.000Z</time>
      </trkpt>
      <trkpt lat="47.47356" lon="10.81319">
        <ele>989.81</ele>
        <time>2009-06-03T11:45:10.000Z</time>
      </trkpt>
      <trkpt lat="47.47351" lon="10.81294">
        <ele>990.30</ele>
        <time>2009-06-03T11:45:18.000Z</time>
      </trkpt>
      <trkpt lat="47.47346" lon="10.81260">
        <ele>990.30</ele>
        <time>2009-06-03T11:45:30.000Z</time>
      </trkpt>
      <trkpt lat="47.47346" lon="10.81258">
        <ele>990.78</ele>
        <time>2009-06-03T11:45:34.000Z</time>
      </trkpt>
      <trkpt lat="47.47351" lon="10.81248">
        <ele>989.33</ele>
        <time>2009-06-03T11:45:53.000Z</time>
      </trkpt>
      <trkpt lat="47.47344" lon="10.81208">
        <ele>987.41</ele>
        <time>2009-06-03T11:46:05.000Z</time>
      </trkpt>
      <trkpt lat="47.47328" lon="10.81185">
        <ele>986.93</ele>
        <time>2009-06-03T11:46:12.000Z</time>
      </trkpt>
      <trkpt lat="47.47332" lon="10.81165">
        <ele>987.41</ele>
        <time>2009-06-03T11:46:23.000Z</time>
      </trkpt>
      <trkpt lat="47.47325" lon="10.81129">
        <ele>986.45</ele>
        <time>2009-06-03T11:46:39.000Z</time>
      </trkpt>
      <trkpt lat="47.47321" lon="10.81118">
        <ele>985.49</ele>
        <time>2009-06-03T11:46:41.000Z</time>
      </trkpt>
      <trkpt lat="47.47312" lon="10.81082">
        <ele>986.93</ele>
        <time>2009-06-03T11:46:48.000Z</time>
      </trkpt>
      <trkpt lat="47.47310" lon="10.81071">
        <ele>987.41</ele>
        <time>2009-06-03T11:46:51.000Z</time>
      </trkpt>
      <trkpt lat="47.47305" lon="10.81051">
        <ele>988.37</ele>
        <time>2009-06-03T11:47:02.000Z</time>
      </trkpt>
      <trkpt lat="47.47302" lon="10.81039">
        <ele>986.45</ele>
        <time>2009-06-03T11:47:07.000Z</time>
      </trkpt>
      <trkpt lat="47.47300" lon="10.81036">
        <ele>986.93</ele>
        <time>2009-06-03T11:47:08.000Z</time>
      </trkpt>
      <trkpt lat="47.47285" lon="10.81018">
        <ele>986.45</ele>
        <time>2009-06-03T11:47:16.000Z</time>
      </trkpt>
      <trkpt lat="47.47282" lon="10.81013">
        <ele>986.93</ele>
        <time>2009-06-03T11:47:18.000Z</time>
      </trkpt>
      <trkpt lat="47.47267" lon="10.80988">
        <ele>985.97</ele>
        <time>2009-06-03T11:47:28.000Z</time>
      </trkpt>
      <trkpt lat="47.47262" lon="10.80984">
        <ele>986.93</ele>
        <time>2009-06-03T11:47:31.000Z</time>
      </trkpt>
      <trkpt lat="47.47256" lon="10.80983">
        <ele>986.93</ele>
        <time>2009-06-03T11:47:35.000Z</time>
      </trkpt>
      <trkpt lat="47.47245" lon="10.80974">
        <ele>985.01</ele>
        <time>2009-06-03T11:47:46.000Z</time>
      </trkpt>
      <trkpt lat="47.47233" lon="10.80972">
        <ele>986.93</ele>
        <time>2009-06-03T11:47:58.000Z</time>
      </trkpt>
      <trkpt lat="47.47232" lon="10.80972">
        <ele>986.45</ele>
        <time>2009-06-03T11:47:59.000Z</time>
      </trkpt>
      <trkpt lat="47.47230" lon="10.80968">
        <ele>985.49</ele>
        <time>2009-06-03T11:48:01.000Z</time>
      </trkpt>
      <trkpt lat="47.47217" lon="10.80952">
        <ele>985.01</ele>
        <time>2009-06-03T11:48:06.000Z</time>
      </trkpt>
      <trkpt lat="47.47214" lon="10.80947">
        <ele>985.49</ele>
        <time>2009-06-03T11:48:08.000Z</time>
      </trkpt>
      <trkpt lat="47.47205" lon="10.80941">
        <ele>985.97</ele>
        <time>2009-06-03T11:48:13.000Z</time>
      </trkpt>
      <trkpt lat="47.47192" lon="10.80929">
        <ele>985.97</ele>
        <time>2009-06-03T11:48:19.000Z</time>
      </trkpt>
      <trkpt lat="47.47181" lon="10.80921">
        <ele>984.53</ele>
        <time>2009-06-03T11:48:24.000Z</time>
      </trkpt>
      <trkpt lat="47.47148" lon="10.80927">
        <ele>984.53</ele>
        <time>2009-06-03T11:48:35.000Z</time>
      </trkpt>
      <trkpt lat="47.47124" lon="10.80919">
        <ele>985.01</ele>
        <time>2009-06-03T11:59:39.000Z</time>
      </trkpt>
      <trkpt lat="47.47081" lon="10.80897">
        <ele>985.97</ele>
        <time>2009-06-03T11:59:54.000Z</time>
      </trkpt>
      <trkpt lat="47.47063" lon="10.80897">
        <ele>985.97</ele>
        <time>2009-06-03T12:00:02.000Z</time>
      </trkpt>
      <trkpt lat="47.47051" lon="10.80895">
        <ele>985.49</ele>
        <time>2009-06-03T12:00:06.000Z</time>
      </trkpt>
      <trkpt lat="47.47035" lon="10.80894">
        <ele>984.53</ele>
        <time>2009-06-03T12:00:10.000Z</time>
      </trkpt>
      <trkpt lat="47.46988" lon="10.80874">
        <ele>986.45</ele>
        <time>2009-06-03T12:00:24.000Z</time>
      </trkpt>
      <trkpt lat="47.46953" lon="10.80842">
        <ele>986.93</ele>
        <time>2009-06-03T12:00:36.000Z</time>
      </trkpt>
      <trkpt lat="47.46917" lon="10.80820">
        <ele>987.89</ele>
        <time>2009-06-03T12:00:48.000Z</time>
      </trkpt>
      <trkpt lat="47.46889" lon="10.80794">
        <ele>988.85</ele>
        <time>2009-06-03T12:01:01.000Z</time>
      </trkpt>
      <trkpt lat="47.46853" lon="10.80764">
        <ele>986.93</ele>
        <time>2009-06-03T12:01:12.000Z</time>
      </trkpt>
      <trkpt lat="47.46841" lon="10.80746">
        <ele>986.45</ele>
        <time>2009-06-03T12:01:16.000Z</time>
      </trkpt>
      <trkpt lat="47.46800" lon="10.80692">
        <ele>986.45</ele>
        <time>2009-06-03T12:01:25.000Z</time>
      </trkpt>
      <trkpt lat="47.46797" lon="10.80661">
        <ele>986.93</ele>
        <time>2009-06-03T12:01:30.000Z</time>
      </trkpt>
      <trkpt lat="47.46795" lon="10.80635">
        <ele>987.89</ele>
        <time>2009-06-03T12:01:34.000Z</time>
      </trkpt>
      <trkpt lat="47.46787" lon="10.80543">
        <ele>989.33</ele>
        <time>2009-06-03T12:01:48.000Z</time>
      </trkpt>
      <trkpt lat="47.46773" lon="10.80469">
        <ele>988.85</ele>
        <time>2009-06-03T12:02:00.000Z</time>
      </trkpt>
      <trkpt lat="47.46767" lon="10.80453">
        <ele>989.33</ele>
        <time>2009-06-03T12:02:03.000Z</time>
      </trkpt>
      <trkpt lat="47.46751" lon="10.80421">
        <ele>988.37</ele>
        <time>2009-06-03T12:02:09.000Z</time>
      </trkpt>
      <trkpt lat="47.46746" lon="10.80409">
        <ele>989.81</ele>
        <time>2009-06-03T12:02:11.000Z</time>
      </trkpt>
      <trkpt lat="47.46733" lon="10.80357">
        <ele>990.30</ele>
        <time>2009-06-03T12:02:18.000Z</time>
      </trkpt>
      <trkpt lat="47.46699" lon="10.80328">
        <ele>987.41</ele>
        <time>2009-06-03T12:02:26.000Z</time>
      </trkpt>
      <trkpt lat="47.46683" lon="10.80296">
        <ele>988.85</ele>
        <time>2009-06-03T12:02:31.000Z</time>
      </trkpt>
      <trkpt lat="47.46678" lon="10.80277">
        <ele>988.85</ele>
        <time>2009-06-03T12:02:34.000Z</time>
      </trkpt>
      <trkpt lat="47.46653" lon="10.80247">
        <ele>989.81</ele>
        <time>2009-06-03T12:02:43.000Z</time>
      </trkpt>
      <trkpt lat="47.46628" lon="10.80229">
        <ele>989.33</ele>
        <time>2009-06-03T12:02:52.000Z</time>
      </trkpt>
      <trkpt lat="47.46599" lon="10.80213">
        <ele>986.45</ele>
        <time>2009-06-03T12:02:58.000Z</time>
      </trkpt>
      <trkpt lat="47.46589" lon="10.80209">
        <ele>986.45</ele>
        <time>2009-06-03T12:03:00.000Z</time>
      </trkpt>
      <trkpt lat="47.46565" lon="10.80189">
        <ele>987.41</ele>
        <time>2009-06-03T12:03:05.000Z</time>
      </trkpt>
      <trkpt lat="47.46554" lon="10.80173">
        <ele>987.89</ele>
        <time>2009-06-03T12:03:08.000Z</time>
      </trkpt>
      <trkpt lat="47.46532" lon="10.80140">
        <ele>988.85</ele>
        <time>2009-06-03T12:03:15.000Z</time>
      </trkpt>
      <trkpt lat="47.46513" lon="10.80128">
        <ele>988.85</ele>
        <time>2009-06-03T12:03:20.000Z</time>
      </trkpt>
      <trkpt lat="47.46460" lon="10.80085">
        <ele>990.78</ele>
        <time>2009-06-03T12:03:34.000Z</time>
      </trkpt>
      <trkpt lat="47.46423" lon="10.80052">
        <ele>991.74</ele>
        <time>2009-06-03T12:03:45.000Z</time>
      </trkpt>
      <trkpt lat="47.46419" lon="10.80052">
        <ele>990.30</ele>
        <time>2009-06-03T12:03:46.000Z</time>
      </trkpt>
      <trkpt lat="47.46371" lon="10.80017">
        <ele>988.85</ele>
        <time>2009-06-03T12:03:57.000Z</time>
      </trkpt>
      <trkpt lat="47.46336" lon="10.80001">
        <ele>988.37</ele>
        <time>2009-06-03T12:04:04.000Z</time>
      </trkpt>
      <trkpt lat="47.46297" lon="10.79995">
        <ele>986.93</ele>
        <time>2009-06-03T12:04:11.000Z</time>
      </trkpt>
      <trkpt lat="47.46242" lon="10.79967">
        <ele>985.97</ele>
        <time>2009-06-03T12:04:23.000Z</time>
      </trkpt>
      <trkpt lat="47.46223" lon="10.79948">
        <ele>985.49</ele>
        <time>2009-06-03T12:04:27.000Z</time>
      </trkpt>
      <trkpt lat="47.46201" lon="10.79916">
        <ele>985.97</ele>
        <time>2009-06-03T12:04:32.000Z</time>
      </trkpt>
      <trkpt lat="47.46196" lon="10.79867">
        <ele>985.97</ele>
        <time>2009-06-03T12:04:42.000Z</time>
      </trkpt>
      <trkpt lat="47.46143" lon="10.79833">
        <ele>987.89</ele>
        <time>2009-06-03T12:08:47.000Z</time>
      </trkpt>
      <trkpt lat="47.46098" lon="10.79803">
        <ele>990.78</ele>
        <time>2009-06-03T12:09:00.000Z</time>
      </trkpt>
      <trkpt lat="47.46061" lon="10.79770">
        <ele>991.74</ele>
        <time>2009-06-03T12:09:12.000Z</time>
      </trkpt>
      <trkpt lat="47.46043" lon="10.79746">
        <ele>993.18</ele>
        <time>2009-06-03T12:09:26.000Z</time>
      </trkpt>
      <trkpt lat="47.46045" lon="10.79729">
        <ele>994.14</ele>
        <time>2009-06-03T12:10:01.000Z</time>
      </trkpt>
      <trkpt lat="47.46050" lon="10.79688">
        <ele>995.10</ele>
        <time>2009-06-03T12:10:39.000Z</time>
      </trkpt>
      <trkpt lat="47.46048" lon="10.79652">
        <ele>995.10</ele>
        <time>2009-06-03T12:10:45.000Z</time>
      </trkpt>
      <trkpt lat="47.46059" lon="10.79608">
        <ele>995.10</ele>
        <time>2009-06-03T12:10:53.000Z</time>
      </trkpt>
      <trkpt lat="47.46060" lon="10.79562">
        <ele>995.10</ele>
        <time>2009-06-03T12:11:00.000Z</time>
      </trkpt>
      <trkpt lat="47.46064" lon="10.79542">
        <ele>995.10</ele>
        <time>2009-06-03T12:11:03.000Z</time>
      </trkpt>
      <trkpt lat="47.46067" lon="10.79528">
        <ele>996.54</ele>
        <time>2009-06-03T12:11:05.000Z</time>
      </trkpt>
      <trkpt lat="47.46075" lon="10.79496">
        <ele>996.54</ele>
        <time>2009-06-03T12:11:10.000Z</time>
      </trkpt>
      <trkpt lat="47.46091" lon="10.79477">
        <ele>996.06</ele>
        <time>2009-06-03T12:11:14.000Z</time>
      </trkpt>
      <trkpt lat="47.46138" lon="10.79411">
        <ele>996.06</ele>
        <time>2009-06-03T12:11:25.000Z</time>
      </trkpt>
      <trkpt lat="47.46142" lon="10.79352">
        <ele>993.18</ele>
        <time>2009-06-03T12:11:33.000Z</time>
      </trkpt>
      <trkpt lat="47.46169" lon="10.79321">
        <ele>991.74</ele>
        <time>2009-06-03T12:11:39.000Z</time>
      </trkpt>
      <trkpt lat="47.46201" lon="10.79295">
        <ele>990.78</ele>
        <time>2009-06-03T12:11:45.000Z</time>
      </trkpt>
      <trkpt lat="47.46207" lon="10.79281">
        <ele>990.78</ele>
        <time>2009-06-03T12:11:47.000Z</time>
      </trkpt>
      <trkpt lat="47.46218" lon="10.79244">
        <ele>989.81</ele>
        <time>2009-06-03T12:11:52.000Z</time>
      </trkpt>
      <trkpt lat="47.46220" lon="10.79220">
        <ele>989.81</ele>
        <time>2009-06-03T12:11:55.000Z</time>
      </trkpt>
      <trkpt lat="47.46199" lon="10.79177">
        <ele>989.81</ele>
        <time>2009-06-03T12:12:01.000Z</time>
      </trkpt>
      <trkpt lat="47.46181" lon="10.79084">
        <ele>988.85</ele>
        <time>2009-06-03T12:12:13.000Z</time>
      </trkpt>
      <trkpt lat="47.46181" lon="10.79069">
        <ele>988.85</ele>
        <time>2009-06-03T12:12:15.000Z</time>
      </trkpt>
      <trkpt lat="47.46171" lon="10.79037">
        <ele>988.37</ele>
        <time>2009-06-03T12:12:20.000Z</time>
      </trkpt>
      <trkpt lat="47.46137" lon="10.78963">
        <ele>990.30</ele>
        <time>2009-06-03T12:12:37.000Z</time>
      </trkpt>
      <trkpt lat="47.46153" lon="10.78953">
        <ele>991.74</ele>
        <time>2009-06-03T12:14:44.000Z</time>
      </trkpt>
      <trkpt lat="47.46176" lon="10.78917">
        <ele>992.22</ele>
        <time>2009-06-03T12:15:00.000Z</time>
      </trkpt>
      <trkpt lat="47.46182" lon="10.78909">
        <ele>990.78</ele>
        <time>2009-06-03T12:15:04.000Z</time>
      </trkpt>
      <trkpt lat="47.46192" lon="10.78897">
        <ele>987.89</ele>
        <time>2009-06-03T12:15:09.000Z</time>
      </trkpt>
      <trkpt lat="47.46194" lon="10.78895">
        <ele>988.37</ele>
        <time>2009-06-03T12:15:10.000Z</time>
      </trkpt>
      <trkpt lat="47.46209" lon="10.78908">
        <ele>988.37</ele>
        <time>2009-06-03T12:15:17.000Z</time>
      </trkpt>
      <trkpt lat="47.46226" lon="10.78962">
        <ele>987.41</ele>
        <time>2009-06-03T12:15:28.000Z</time>
      </trkpt>
      <trkpt lat="47.46259" lon="10.79019">
        <ele>988.85</ele>
        <time>2009-06-03T12:15:43.000Z</time>
      </trkpt>
      <trkpt lat="47.46262" lon="10.79025">
        <ele>987.89</ele>
        <time>2009-06-03T12:15:44.000Z</time>
      </trkpt>
      <trkpt lat="47.46284" lon="10.79046">
        <ele>988.85</ele>
        <time>2009-06-03T12:15:50.000Z</time>
      </trkpt>
      <trkpt lat="47.46293" lon="10.79047">
        <ele>989.33</ele>
        <time>2009-06-03T12:15:52.000Z</time>
      </trkpt>
      <trkpt lat="47.46302" lon="10.79050">
        <ele>988.85</ele>
        <time>2009-06-03T12:15:54.000Z</time>
      </trkpt>
      <trkpt lat="47.46331" lon="10.79076">
        <ele>987.89</ele>
        <time>2009-06-03T12:16:04.000Z</time>
      </trkpt>
      <trkpt lat="47.46340" lon="10.79077">
        <ele>986.93</ele>
        <time>2009-06-03T12:16:06.000Z</time>
      </trkpt>
      <trkpt lat="47.46369" lon="10.79091">
        <ele>987.41</ele>
        <time>2009-06-03T12:16:14.000Z</time>
      </trkpt>
      <trkpt lat="47.46375" lon="10.79105">
        <ele>988.37</ele>
        <time>2009-06-03T12:16:17.000Z</time>
      </trkpt>
      <trkpt lat="47.46387" lon="10.79122">
        <ele>988.85</ele>
        <time>2009-06-03T12:16:21.000Z</time>
      </trkpt>
      <trkpt lat="47.46414" lon="10.79166">
        <ele>989.33</ele>
        <time>2009-06-03T12:16:32.000Z</time>
      </trkpt>
      <trkpt lat="47.46436" lon="10.79166">
        <ele>987.89</ele>
        <time>2009-06-03T12:16:39.000Z</time>
      </trkpt>
      <trkpt lat="47.46452" lon="10.79174">
        <ele>988.37</ele>
        <time>2009-06-03T12:16:44.000Z</time>
      </trkpt>
      <trkpt lat="47.46464" lon="10.79178">
        <ele>990.78</ele>
        <time>2009-06-03T12:16:48.000Z</time>
      </trkpt>
      <trkpt lat="47.46476" lon="10.79185">
        <ele>988.37</ele>
        <time>2009-06-03T12:16:51.000Z</time>
      </trkpt>
      <trkpt lat="47.46490" lon="10.79190">
        <ele>987.89</ele>
        <time>2009-06-03T12:16:54.000Z</time>
      </trkpt>
      <trkpt lat="47.46520" lon="10.79203">
        <ele>989.33</ele>
        <time>2009-06-03T12:17:02.000Z</time>
      </trkpt>
      <trkpt lat="47.46535" lon="10.79208">
        <ele>990.78</ele>
        <time>2009-06-03T12:17:06.000Z</time>
      </trkpt>
      <trkpt lat="47.46581" lon="10.79220">
        <ele>992.70</ele>
        <time>2009-06-03T12:17:21.000Z</time>
      </trkpt>
      <trkpt lat="47.46593" lon="10.79222">
        <ele>993.66</ele>
        <time>2009-06-03T12:17:25.000Z</time>
      </trkpt>
      <trkpt lat="47.46614" lon="10.79228">
        <ele>992.22</ele>
        <time>2009-06-03T12:17:31.000Z</time>
      </trkpt>
      <trkpt lat="47.46634" lon="10.79235">
        <ele>991.74</ele>
        <time>2009-06-03T12:17:35.000Z</time>
      </trkpt>
      <trkpt lat="47.46660" lon="10.79240">
        <ele>992.70</ele>
        <time>2009-06-03T12:17:42.000Z</time>
      </trkpt>
      <trkpt lat="47.46674" lon="10.79251">
        <ele>988.37</ele>
        <time>2009-06-03T12:17:45.000Z</time>
      </trkpt>
      <trkpt lat="47.46691" lon="10.79258">
        <ele>987.89</ele>
        <time>2009-06-03T12:17:49.000Z</time>
      </trkpt>
      <trkpt lat="47.46712" lon="10.79270">
        <ele>989.81</ele>
        <time>2009-06-03T12:17:55.000Z</time>
      </trkpt>
      <trkpt lat="47.46722" lon="10.79279">
        <ele>990.30</ele>
        <time>2009-06-03T12:18:00.000Z</time>
      </trkpt>
      <trkpt lat="47.46735" lon="10.79291">
        <ele>989.81</ele>
        <time>2009-06-03T12:18:04.000Z</time>
      </trkpt>
      <trkpt lat="47.46769" lon="10.79295">
        <ele>991.26</ele>
        <time>2009-06-03T12:18:14.000Z</time>
      </trkpt>
      <trkpt lat="47.46814" lon="10.79285">
        <ele>989.33</ele>
        <time>2009-06-03T12:18:25.000Z</time>
      </trkpt>
      <trkpt lat="47.46843" lon="10.79267">
        <ele>989.33</ele>
        <time>2009-06-03T12:18:33.000Z</time>
      </trkpt>
      <trkpt lat="47.46873" lon="10.79223">
        <ele>990.30</ele>
        <time>2009-06-03T12:18:45.000Z</time>
      </trkpt>
      <trkpt lat="47.46893" lon="10.79189">
        <ele>989.81</ele>
        <time>2009-06-03T12:18:52.000Z</time>
      </trkpt>
      <trkpt lat="47.46903" lon="10.79178">
        <ele>988.85</ele>
        <time>2009-06-03T12:18:54.000Z</time>
      </trkpt>
      <trkpt lat="47.46910" lon="10.79170">
        <ele>988.37</ele>
        <time>2009-06-03T12:18:56.000Z</time>
      </trkpt>
      <trkpt lat="47.46921" lon="10.79155">
        <ele>989.33</ele>
        <time>2009-06-03T12:18:59.000Z</time>
      </trkpt>
      <trkpt lat="47.46929" lon="10.79144">
        <ele>989.33</ele>
        <time>2009-06-03T12:19:01.000Z</time>
      </trkpt>
      <trkpt lat="47.46942" lon="10.79120">
        <ele>988.37</ele>
        <time>2009-06-03T12:19:05.000Z</time>
      </trkpt>
      <trkpt lat="47.46969" lon="10.79058">
        <ele>989.33</ele>
        <time>2009-06-03T12:19:17.000Z</time>
      </trkpt>
      <trkpt lat="47.46978" lon="10.79045">
        <ele>987.89</ele>
        <time>2009-06-03T12:19:19.000Z</time>
      </trkpt>
      <trkpt lat="47.46995" lon="10.79025">
        <ele>988.85</ele>
        <time>2009-06-03T12:19:23.000Z</time>
      </trkpt>
      <trkpt lat="47.47004" lon="10.79009">
        <ele>990.30</ele>
        <time>2009-06-03T12:19:27.000Z</time>
      </trkpt>
      <trkpt lat="47.47017" lon="10.78987">
        <ele>989.33</ele>
        <time>2009-06-03T12:19:33.000Z</time>
      </trkpt>
      <trkpt lat="47.47032" lon="10.78978">
        <ele>991.74</ele>
        <time>2009-06-03T12:19:38.000Z</time>
      </trkpt>
      <trkpt lat="47.47043" lon="10.78974">
        <ele>990.78</ele>
        <time>2009-06-03T12:19:41.000Z</time>
      </trkpt>
      <trkpt lat="47.47056" lon="10.78944">
        <ele>990.30</ele>
        <time>2009-06-03T12:19:47.000Z</time>
      </trkpt>
      <trkpt lat="47.47068" lon="10.78931">
        <ele>991.26</ele>
        <time>2009-06-03T12:19:52.000Z</time>
      </trkpt>
      <trkpt lat="47.47081" lon="10.78906">
        <ele>990.78</ele>
        <time>2009-06-03T12:19:58.000Z</time>
      </trkpt>
      <trkpt lat="47.47103" lon="10.78881">
        <ele>989.33</ele>
        <time>2009-06-03T12:20:05.000Z</time>
      </trkpt>
      <trkpt lat="47.47113" lon="10.78866">
        <ele>989.81</ele>
        <time>2009-06-03T12:20:08.000Z</time>
      </trkpt>
      <trkpt lat="47.47144" lon="10.78812">
        <ele>990.78</ele>
        <time>2009-06-03T12:20:19.000Z</time>
      </trkpt>
      <trkpt lat="47.47155" lon="10.78792">
        <ele>989.81</ele>
        <time>2009-06-03T12:20:22.000Z</time>
      </trkpt>
      <trkpt lat="47.47167" lon="10.78768">
        <ele>990.30</ele>
        <time>2009-06-03T12:20:26.000Z</time>
      </trkpt>
      <trkpt lat="47.47179" lon="10.78747">
        <ele>991.74</ele>
        <time>2009-06-03T12:20:31.000Z</time>
      </trkpt>
      <trkpt lat="47.47187" lon="10.78727">
        <ele>989.81</ele>
        <time>2009-06-03T12:20:34.000Z</time>
      </trkpt>
      <trkpt lat="47.47190" lon="10.78718">
        <ele>988.85</ele>
        <time>2009-06-03T12:20:35.000Z</time>
      </trkpt>
      <trkpt lat="47.47200" lon="10.78698">
        <ele>989.33</ele>
        <time>2009-06-03T12:20:38.000Z</time>
      </trkpt>
      <trkpt lat="47.47224" lon="10.78648">
        <ele>987.89</ele>
        <time>2009-06-03T12:20:46.000Z</time>
      </trkpt>
      <trkpt lat="47.47234" lon="10.78624">
        <ele>989.81</ele>
        <time>2009-06-03T12:20:50.000Z</time>
      </trkpt>
      <trkpt lat="47.47249" lon="10.78600">
        <ele>988.37</ele>
        <time>2009-06-03T12:20:55.000Z</time>
      </trkpt>
      <trkpt lat="47.47283" lon="10.78561">
        <ele>988.37</ele>
        <time>2009-06-03T12:21:03.000Z</time>
      </trkpt>
      <trkpt lat="47.47292" lon="10.78551">
        <ele>988.37</ele>
        <time>2009-06-03T12:21:05.000Z</time>
      </trkpt>
      <trkpt lat="47.47328" lon="10.78492">
        <ele>989.33</ele>
        <time>2009-06-03T12:21:18.000Z</time>
      </trkpt>
      <trkpt lat="47.47342" lon="10.78464">
        <ele>990.78</ele>
        <time>2009-06-03T12:21:31.000Z</time>
      </trkpt>
      <trkpt lat="47.47367" lon="10.78391">
        <ele>989.81</ele>
        <time>2009-06-03T12:23:30.000Z</time>
      </trkpt>
      <trkpt lat="47.47391" lon="10.78293">
        <ele>990.30</ele>
        <time>2009-06-03T12:23:47.000Z</time>
      </trkpt>
      <trkpt lat="47.47392" lon="10.78287">
        <ele>990.30</ele>
        <time>2009-06-03T12:23:48.000Z</time>
      </trkpt>
      <trkpt lat="47.47392" lon="10.78275">
        <ele>990.30</ele>
        <time>2009-06-03T12:23:50.000Z</time>
      </trkpt>
      <trkpt lat="47.47402" lon="10.78221">
        <ele>989.33</ele>
        <time>2009-06-03T12:23:59.000Z</time>
      </trkpt>
      <trkpt lat="47.47406" lon="10.78177">
        <ele>988.85</ele>
        <time>2009-06-03T12:24:05.000Z</time>
      </trkpt>
      <trkpt lat="47.47428" lon="10.78052">
        <ele>988.85</ele>
        <time>2009-06-03T12:24:23.000Z</time>
      </trkpt>
      <trkpt lat="47.47438" lon="10.78007">
        <ele>990.30</ele>
        <time>2009-06-03T12:24:30.000Z</time>
      </trkpt>
      <trkpt lat="47.47452" lon="10.77975">
        <ele>990.78</ele>
        <time>2009-06-03T12:24:36.000Z</time>
      </trkpt>
      <trkpt lat="47.47475" lon="10.77927">
        <ele>991.74</ele>
        <time>2009-06-03T12:24:45.000Z</time>
      </trkpt>
      <trkpt lat="47.47480" lon="10.77903">
        <ele>991.26</ele>
        <time>2009-06-03T12:24:49.000Z</time>
      </trkpt>
      <trkpt lat="47.47482" lon="10.77889">
        <ele>991.26</ele>
        <time>2009-06-03T12:24:51.000Z</time>
      </trkpt>
      <trkpt lat="47.47506" lon="10.77831">
        <ele>992.22</ele>
        <time>2009-06-03T12:25:02.000Z</time>
      </trkpt>
      <trkpt lat="47.47518" lon="10.77795">
        <ele>992.22</ele>
        <time>2009-06-03T12:25:08.000Z</time>
      </trkpt>
      <trkpt lat="47.47521" lon="10.77757">
        <ele>991.26</ele>
        <time>2009-06-03T12:25:13.000Z</time>
      </trkpt>
      <trkpt lat="47.47544" lon="10.77672">
        <ele>992.22</ele>
        <time>2009-06-03T12:25:27.000Z</time>
      </trkpt>
      <trkpt lat="47.47564" lon="10.77638">
        <ele>991.74</ele>
        <time>2009-06-03T12:25:33.000Z</time>
      </trkpt>
      <trkpt lat="47.47589" lon="10.77601">
        <ele>991.74</ele>
        <time>2009-06-03T12:25:40.000Z</time>
      </trkpt>
      <trkpt lat="47.47603" lon="10.77560">
        <ele>993.18</ele>
        <time>2009-06-03T12:25:46.000Z</time>
      </trkpt>
      <trkpt lat="47.47617" lon="10.77537">
        <ele>993.18</ele>
        <time>2009-06-03T12:25:51.000Z</time>
      </trkpt>
      <trkpt lat="47.47651" lon="10.77506">
        <ele>993.18</ele>
        <time>2009-06-03T12:26:01.000Z</time>
      </trkpt>
      <trkpt lat="47.47689" lon="10.77449">
        <ele>993.66</ele>
        <time>2009-06-03T12:26:11.000Z</time>
      </trkpt>
      <trkpt lat="47.47715" lon="10.77416">
        <ele>993.66</ele>
        <time>2009-06-03T12:26:18.000Z</time>
      </trkpt>
      <trkpt lat="47.47730" lon="10.77389">
        <ele>994.62</ele>
        <time>2009-06-03T12:26:23.000Z</time>
      </trkpt>
      <trkpt lat="47.47737" lon="10.77372">
        <ele>994.14</ele>
        <time>2009-06-03T12:26:26.000Z</time>
      </trkpt>
      <trkpt lat="47.47743" lon="10.77362">
        <ele>992.70</ele>
        <time>2009-06-03T12:26:28.000Z</time>
      </trkpt>
      <trkpt lat="47.47773" lon="10.77341">
        <ele>989.81</ele>
        <time>2009-06-03T12:26:33.000Z</time>
      </trkpt>
      <trkpt lat="47.47800" lon="10.77320">
        <ele>988.85</ele>
        <time>2009-06-03T12:26:37.000Z</time>
      </trkpt>
      <trkpt lat="47.47826" lon="10.77313">
        <ele>989.81</ele>
        <time>2009-06-03T12:26:41.000Z</time>
      </trkpt>
      <trkpt lat="47.47842" lon="10.77311">
        <ele>991.26</ele>
        <time>2009-06-03T12:26:44.000Z</time>
      </trkpt>
      <trkpt lat="47.47850" lon="10.77306">
        <ele>992.22</ele>
        <time>2009-06-03T12:26:46.000Z</time>
      </trkpt>
      <trkpt lat="47.47899" lon="10.77271">
        <ele>995.10</ele>
        <time>2009-06-03T12:27:00.000Z</time>
      </trkpt>
      <trkpt lat="47.47919" lon="10.77266">
        <ele>996.06</ele>
        <time>2009-06-03T12:27:07.000Z</time>
      </trkpt>
      <trkpt lat="47.47933" lon="10.77248">
        <ele>994.14</ele>
        <time>2009-06-03T12:27:11.000Z</time>
      </trkpt>
      <trkpt lat="47.47947" lon="10.77225">
        <ele>990.30</ele>
        <time>2009-06-03T12:27:14.000Z</time>
      </trkpt>
      <trkpt lat="47.47972" lon="10.77193">
        <ele>985.49</ele>
        <time>2009-06-03T12:27:18.000Z</time>
      </trkpt>
      <trkpt lat="47.47978" lon="10.77184">
        <ele>985.97</ele>
        <time>2009-06-03T12:27:19.000Z</time>
      </trkpt>
      <trkpt lat="47.47992" lon="10.77154">
        <ele>985.49</ele>
        <time>2009-06-03T12:27:22.000Z</time>
      </trkpt>
      <trkpt lat="47.48017" lon="10.77071">
        <ele>985.49</ele>
        <time>2009-06-03T12:27:30.000Z</time>
      </trkpt>
      <trkpt lat="47.48036" lon="10.77039">
        <ele>985.97</ele>
        <time>2009-06-03T12:27:34.000Z</time>
      </trkpt>
      <trkpt lat="47.48060" lon="10.77006">
        <ele>985.97</ele>
        <time>2009-06-03T12:27:39.000Z</time>
      </trkpt>
      <trkpt lat="47.48093" lon="10.76990">
        <ele>985.49</ele>
        <time>2009-06-03T12:27:46.000Z</time>
      </trkpt>
      <trkpt lat="47.48108" lon="10.76993">
        <ele>985.97</ele>
        <time>2009-06-03T12:27:51.000Z</time>
      </trkpt>
      <trkpt lat="47.48110" lon="10.76992">
        <ele>985.97</ele>
        <time>2009-06-03T12:27:53.000Z</time>
      </trkpt>
      <trkpt lat="47.48126" lon="10.76988">
        <ele>987.41</ele>
        <time>2009-06-03T12:28:02.000Z</time>
      </trkpt>
      <trkpt lat="47.48138" lon="10.76981">
        <ele>986.45</ele>
        <time>2009-06-03T12:28:18.000Z</time>
      </trkpt>
      <trkpt lat="47.48146" lon="10.76970">
        <ele>986.45</ele>
        <time>2009-06-03T12:29:28.000Z</time>
      </trkpt>
      <trkpt lat="47.48155" lon="10.76953">
        <ele>987.41</ele>
        <time>2009-06-03T12:29:33.000Z</time>
      </trkpt>
      <trkpt lat="47.48166" lon="10.76939">
        <ele>987.41</ele>
        <time>2009-06-03T12:29:38.000Z</time>
      </trkpt>
      <trkpt lat="47.48188" lon="10.76904">
        <ele>985.49</ele>
        <time>2009-06-03T12:29:47.000Z</time>
      </trkpt>
      <trkpt lat="47.48194" lon="10.76883">
        <ele>981.64</ele>
        <time>2009-06-03T12:29:50.000Z</time>
      </trkpt>
      <trkpt lat="47.48197" lon="10.76863">
        <ele>981.16</ele>
        <time>2009-06-03T12:29:52.000Z</time>
      </trkpt>
      <trkpt lat="47.48198" lon="10.76811">
        <ele>983.09</ele>
        <time>2009-06-03T12:30:01.000Z</time>
      </trkpt>
      <trkpt lat="47.48198" lon="10.76800">
        <ele>982.12</ele>
        <time>2009-06-03T12:30:03.000Z</time>
      </trkpt>
      <trkpt lat="47.48219" lon="10.76747">
        <ele>982.60</ele>
        <time>2009-06-03T12:30:17.000Z</time>
      </trkpt>
      <trkpt lat="47.48228" lon="10.76736">
        <ele>983.09</ele>
        <time>2009-06-03T12:30:25.000Z</time>
      </trkpt>
      <trkpt lat="47.48245" lon="10.76722">
        <ele>981.64</ele>
        <time>2009-06-03T12:30:40.000Z</time>
      </trkpt>
      <trkpt lat="47.48250" lon="10.76720">
        <ele>982.12</ele>
        <time>2009-06-03T12:32:18.000Z</time>
      </trkpt>
      <trkpt lat="47.48259" lon="10.76662">
        <ele>981.64</ele>
        <time>2009-06-03T12:32:31.000Z</time>
      </trkpt>
      <trkpt lat="47.48284" lon="10.76617">
        <ele>981.64</ele>
        <time>2009-06-03T12:32:41.000Z</time>
      </trkpt>
      <trkpt lat="47.48297" lon="10.76587">
        <ele>982.12</ele>
        <time>2009-06-03T12:32:46.000Z</time>
      </trkpt>
      <trkpt lat="47.48338" lon="10.76515">
        <ele>982.12</ele>
        <time>2009-06-03T12:33:01.000Z</time>
      </trkpt>
      <trkpt lat="47.48383" lon="10.76478">
        <ele>982.12</ele>
        <time>2009-06-03T12:33:16.000Z</time>
      </trkpt>
      <trkpt lat="47.48389" lon="10.76470">
        <ele>982.60</ele>
        <time>2009-06-03T12:33:31.000Z</time>
      </trkpt>
      <trkpt lat="47.48395" lon="10.76460">
        <ele>983.57</ele>
        <time>2009-06-03T12:34:32.000Z</time>
      </trkpt>
      <trkpt lat="47.48398" lon="10.76453">
        <ele>985.01</ele>
        <time>2009-06-03T12:34:35.000Z</time>
      </trkpt>
      <trkpt lat="47.48399" lon="10.76451">
        <ele>985.49</ele>
        <time>2009-06-03T12:34:36.000Z</time>
      </trkpt>
      <trkpt lat="47.48417" lon="10.76434">
        <ele>988.85</ele>
        <time>2009-06-03T12:34:50.000Z</time>
      </trkpt>
      <trkpt lat="47.48422" lon="10.76426">
        <ele>990.30</ele>
        <time>2009-06-03T12:34:54.000Z</time>
      </trkpt>
      <trkpt lat="47.48444" lon="10.76395">
        <ele>990.78</ele>
        <time>2009-06-03T12:35:08.000Z</time>
      </trkpt>
      <trkpt lat="47.48460" lon="10.76378">
        <ele>992.70</ele>
        <time>2009-06-03T12:35:16.000Z</time>
      </trkpt>
      <trkpt lat="47.48467" lon="10.76358">
        <ele>992.70</ele>
        <time>2009-06-03T12:35:22.000Z</time>
      </trkpt>
      <trkpt lat="47.48482" lon="10.76322">
        <ele>992.22</ele>
        <time>2009-06-03T12:35:34.000Z</time>
      </trkpt>
      <trkpt lat="47.48494" lon="10.76301">
        <ele>992.22</ele>
        <time>2009-06-03T12:35:44.000Z</time>
      </trkpt>
      <trkpt lat="47.48498" lon="10.76299">
        <ele>993.66</ele>
        <time>2009-06-03T12:36:11.000Z</time>
      </trkpt>
      <trkpt lat="47.48500" lon="10.76296">
        <ele>993.18</ele>
        <time>2009-06-03T12:36:23.000Z</time>
      </trkpt>
      <trkpt lat="47.48513" lon="10.76272">
        <ele>993.66</ele>
        <time>2009-06-03T12:36:31.000Z</time>
      </trkpt>
      <trkpt lat="47.48520" lon="10.76259">
        <ele>995.10</ele>
        <time>2009-06-03T12:36:35.000Z</time>
      </trkpt>
      <trkpt lat="47.48522" lon="10.76256">
        <ele>995.58</ele>
        <time>2009-06-03T12:36:36.000Z</time>
      </trkpt>
      <trkpt lat="47.48540" lon="10.76227">
        <ele>997.51</ele>
        <time>2009-06-03T12:36:46.000Z</time>
      </trkpt>
      <trkpt lat="47.48543" lon="10.76216">
        <ele>996.54</ele>
        <time>2009-06-03T12:36:49.000Z</time>
      </trkpt>
      <trkpt lat="47.48550" lon="10.76199">
        <ele>994.62</ele>
        <time>2009-06-03T12:36:53.000Z</time>
      </trkpt>
      <trkpt lat="47.48556" lon="10.76177">
        <ele>992.22</ele>
        <time>2009-06-03T12:36:58.000Z</time>
      </trkpt>
      <trkpt lat="47.48560" lon="10.76153">
        <ele>988.37</ele>
        <time>2009-06-03T12:37:04.000Z</time>
      </trkpt>
      <trkpt lat="47.48561" lon="10.76130">
        <ele>984.53</ele>
        <time>2009-06-03T12:37:09.000Z</time>
      </trkpt>
      <trkpt lat="47.48566" lon="10.76109">
        <ele>980.68</ele>
        <time>2009-06-03T12:37:14.000Z</time>
      </trkpt>
      <trkpt lat="47.48569" lon="10.76084">
        <ele>976.84</ele>
        <time>2009-06-03T12:37:19.000Z</time>
      </trkpt>
      <trkpt lat="47.48571" lon="10.76064">
        <ele>972.99</ele>
        <time>2009-06-03T12:37:23.000Z</time>
      </trkpt>
      <trkpt lat="47.48572" lon="10.76050">
        <ele>970.11</ele>
        <time>2009-06-03T12:37:26.000Z</time>
      </trkpt>
      <trkpt lat="47.48582" lon="10.76067">
        <ele>967.22</ele>
        <time>2009-06-03T12:37:33.000Z</time>
      </trkpt>
      <trkpt lat="47.48584" lon="10.76071">
        <ele>967.70</ele>
        <time>2009-06-03T12:37:34.000Z</time>
      </trkpt>
      <trkpt lat="47.48594" lon="10.76078">
        <ele>963.86</ele>
        <time>2009-06-03T12:37:37.000Z</time>
      </trkpt>
      <trkpt lat="47.48598" lon="10.76076">
        <ele>964.34</ele>
        <time>2009-06-03T12:37:38.000Z</time>
      </trkpt>
      <trkpt lat="47.48619" lon="10.76063">
        <ele>960.98</ele>
        <time>2009-06-03T12:37:45.000Z</time>
      </trkpt>
      <trkpt lat="47.48627" lon="10.76063">
        <ele>958.57</ele>
        <time>2009-06-03T12:37:49.000Z</time>
      </trkpt>
      <trkpt lat="47.48625" lon="10.76060">
        <ele>957.61</ele>
        <time>2009-06-03T12:37:51.000Z</time>
      </trkpt>
      <trkpt lat="47.48614" lon="10.76052">
        <ele>955.69</ele>
        <time>2009-06-03T12:37:56.000Z</time>
      </trkpt>
      <trkpt lat="47.48603" lon="10.76034">
        <ele>951.84</ele>
        <time>2009-06-03T12:38:01.000Z</time>
      </trkpt>
      <trkpt lat="47.48594" lon="10.76005">
        <ele>948.00</ele>
        <time>2009-06-03T12:38:06.000Z</time>
      </trkpt>
      <trkpt lat="47.48581" lon="10.75970">
        <ele>945.59</ele>
        <time>2009-06-03T12:38:12.000Z</time>
      </trkpt>
      <trkpt lat="47.48589" lon="10.75956">
        <ele>941.75</ele>
        <time>2009-06-03T12:38:16.000Z</time>
      </trkpt>
      <trkpt lat="47.48594" lon="10.75954">
        <ele>941.27</ele>
        <time>2009-06-03T12:38:17.000Z</time>
      </trkpt>
      <trkpt lat="47.48617" lon="10.75949">
        <ele>936.94</ele>
        <time>2009-06-03T12:38:21.000Z</time>
      </trkpt>
      <trkpt lat="47.48638" lon="10.75949">
        <ele>933.10</ele>
        <time>2009-06-03T12:38:26.000Z</time>
      </trkpt>
      <trkpt lat="47.48640" lon="10.75937">
        <ele>932.14</ele>
        <time>2009-06-03T12:38:28.000Z</time>
      </trkpt>
      <trkpt lat="47.48652" lon="10.75908">
        <ele>927.81</ele>
        <time>2009-06-03T12:38:34.000Z</time>
      </trkpt>
      <trkpt lat="47.48670" lon="10.75922">
        <ele>924.93</ele>
        <time>2009-06-03T12:38:39.000Z</time>
      </trkpt>
      <trkpt lat="47.48680" lon="10.75935">
        <ele>921.08</ele>
        <time>2009-06-03T12:38:43.000Z</time>
      </trkpt>
      <trkpt lat="47.48687" lon="10.75942">
        <ele>920.12</ele>
        <time>2009-06-03T12:38:56.000Z</time>
      </trkpt>
      <trkpt lat="47.48701" lon="10.75941">
        <ele>921.08</ele>
        <time>2009-06-03T12:40:04.000Z</time>
      </trkpt>
      <trkpt lat="47.48706" lon="10.75916">
        <ele>918.68</ele>
        <time>2009-06-03T12:40:12.000Z</time>
      </trkpt>
      <trkpt lat="47.48707" lon="10.75884">
        <ele>918.68</ele>
        <time>2009-06-03T12:40:17.000Z</time>
      </trkpt>
      <trkpt lat="47.48708" lon="10.75853">
        <ele>918.20</ele>
        <time>2009-06-03T12:40:21.000Z</time>
      </trkpt>
      <trkpt lat="47.48711" lon="10.75821">
        <ele>916.27</ele>
        <time>2009-06-03T12:40:25.000Z</time>
      </trkpt>
      <trkpt lat="47.48715" lon="10.75777">
        <ele>912.91</ele>
        <time>2009-06-03T12:40:30.000Z</time>
      </trkpt>
      <trkpt lat="47.48715" lon="10.75767">
        <ele>911.47</ele>
        <time>2009-06-03T12:40:31.000Z</time>
      </trkpt>
      <trkpt lat="47.48710" lon="10.75720">
        <ele>909.06</ele>
        <time>2009-06-03T12:40:36.000Z</time>
      </trkpt>
      <trkpt lat="47.48707" lon="10.75675">
        <ele>907.14</ele>
        <time>2009-06-03T12:40:40.000Z</time>
      </trkpt>
      <trkpt lat="47.48692" lon="10.75577">
        <ele>910.03</ele>
        <time>2009-06-03T12:40:51.000Z</time>
      </trkpt>
      <trkpt lat="47.48685" lon="10.75536">
        <ele>909.54</ele>
        <time>2009-06-03T12:40:57.000Z</time>
      </trkpt>
      <trkpt lat="47.48682" lon="10.75500">
        <ele>907.14</ele>
        <time>2009-06-03T12:41:01.000Z</time>
      </trkpt>
      <trkpt lat="47.48691" lon="10.75451">
        <ele>907.62</ele>
        <time>2009-06-03T12:41:07.000Z</time>
      </trkpt>
      <trkpt lat="47.48713" lon="10.75417">
        <ele>906.66</ele>
        <time>2009-06-03T12:41:13.000Z</time>
      </trkpt>
      <trkpt lat="47.48743" lon="10.75391">
        <ele>906.18</ele>
        <time>2009-06-03T12:41:19.000Z</time>
      </trkpt>
      <trkpt lat="47.48792" lon="10.75377">
        <ele>905.70</ele>
        <time>2009-06-03T12:41:29.000Z</time>
      </trkpt>
      <trkpt lat="47.48835" lon="10.75399">
        <ele>906.18</ele>
        <time>2009-06-03T12:41:37.000Z</time>
      </trkpt>
      <trkpt lat="47.48865" lon="10.75411">
        <ele>906.66</ele>
        <time>2009-06-03T12:41:48.000Z</time>
      </trkpt>
      <trkpt lat="47.48897" lon="10.75406">
        <ele>905.70</ele>
        <time>2009-06-03T12:43:11.000Z</time>
      </trkpt>
      <trkpt lat="47.48900" lon="10.75403">
        <ele>906.18</ele>
        <time>2009-06-03T12:43:12.000Z</time>
      </trkpt>
      <trkpt lat="47.48908" lon="10.75398">
        <ele>905.70</ele>
        <time>2009-06-03T12:43:14.000Z</time>
      </trkpt>
      <trkpt lat="47.48954" lon="10.75368">
        <ele>906.18</ele>
        <time>2009-06-03T12:43:26.000Z</time>
      </trkpt>
      <trkpt lat="47.48972" lon="10.75361">
        <ele>906.18</ele>
        <time>2009-06-03T12:43:31.000Z</time>
      </trkpt>
      <trkpt lat="47.48993" lon="10.75347">
        <ele>905.22</ele>
        <time>2009-06-03T12:43:36.000Z</time>
      </trkpt>
      <trkpt lat="47.49010" lon="10.75330">
        <ele>904.74</ele>
        <time>2009-06-03T12:43:41.000Z</time>
      </trkpt>
      <trkpt lat="47.49039" lon="10.75291">
        <ele>904.74</ele>
        <time>2009-06-03T12:43:53.000Z</time>
      </trkpt>
      <trkpt lat="47.49043" lon="10.75280">
        <ele>903.78</ele>
        <time>2009-06-03T12:43:55.000Z</time>
      </trkpt>
      <trkpt lat="47.49058" lon="10.75251">
        <ele>902.33</ele>
        <time>2009-06-03T12:44:00.000Z</time>
      </trkpt>
      <trkpt lat="47.49068" lon="10.75237">
        <ele>903.30</ele>
        <time>2009-06-03T12:44:04.000Z</time>
      </trkpt>
      <trkpt lat="47.49072" lon="10.75229">
        <ele>905.22</ele>
        <time>2009-06-03T12:44:08.000Z</time>
      </trkpt>
      <trkpt lat="47.49081" lon="10.75220">
        <ele>907.62</ele>
        <time>2009-06-03T12:44:13.000Z</time>
      </trkpt>
      <trkpt lat="47.49094" lon="10.75212">
        <ele>910.03</ele>
        <time>2009-06-03T12:44:22.000Z</time>
      </trkpt>
      <trkpt lat="47.49119" lon="10.75199">
        <ele>907.14</ele>
        <time>2009-06-03T12:44:31.000Z</time>
      </trkpt>
      <trkpt lat="47.49132" lon="10.75193">
        <ele>906.18</ele>
        <time>2009-06-03T12:44:33.000Z</time>
      </trkpt>
      <trkpt lat="47.49160" lon="10.75181">
        <ele>902.33</ele>
        <time>2009-06-03T12:44:40.000Z</time>
      </trkpt>
      <trkpt lat="47.49165" lon="10.75178">
        <ele>900.89</ele>
        <time>2009-06-03T12:44:43.000Z</time>
      </trkpt>
      <trkpt lat="47.49179" lon="10.75165">
        <ele>900.89</ele>
        <time>2009-06-03T12:44:54.000Z</time>
      </trkpt>
      <trkpt lat="47.49184" lon="10.75157">
        <ele>902.33</ele>
        <time>2009-06-03T12:45:08.000Z</time>
      </trkpt>
      <trkpt lat="47.49190" lon="10.75142">
        <ele>898.97</ele>
        <time>2009-06-03T12:45:28.000Z</time>
      </trkpt>
      <trkpt lat="47.49193" lon="10.75127">
        <ele>896.09</ele>
        <time>2009-06-03T12:45:40.000Z</time>
      </trkpt>
      <trkpt lat="47.49203" lon="10.75134">
        <ele>890.80</ele>
        <time>2009-06-03T12:46:15.000Z</time>
      </trkpt>
      <trkpt lat="47.49228" lon="10.75135">
        <ele>888.88</ele>
        <time>2009-06-03T12:46:26.000Z</time>
      </trkpt>
      <trkpt lat="47.49241" lon="10.75132">
        <ele>887.91</ele>
        <time>2009-06-03T12:46:41.000Z</time>
      </trkpt>
      <trkpt lat="47.49260" lon="10.75126">
        <ele>884.07</ele>
        <time>2009-06-03T12:47:04.000Z</time>
      </trkpt>
      <trkpt lat="47.49285" lon="10.75140">
        <ele>885.03</ele>
        <time>2009-06-03T12:47:16.000Z</time>
      </trkpt>
      <trkpt lat="47.49286" lon="10.75133">
        <ele>884.07</ele>
        <time>2009-06-03T12:47:20.000Z</time>
      </trkpt>
      <trkpt lat="47.49282" lon="10.75120">
        <ele>885.51</ele>
        <time>2009-06-03T12:47:35.000Z</time>
      </trkpt>
      <trkpt lat="47.49278" lon="10.75106">
        <ele>884.55</ele>
        <time>2009-06-03T12:47:52.000Z</time>
      </trkpt>
      <trkpt lat="47.49288" lon="10.75085">
        <ele>884.07</ele>
        <time>2009-06-03T12:47:57.000Z</time>
      </trkpt>
      <trkpt lat="47.49305" lon="10.75067">
        <ele>881.67</ele>
        <time>2009-06-03T12:48:10.000Z</time>
      </trkpt>
      <trkpt lat="47.49315" lon="10.75053">
        <ele>881.19</ele>
        <time>2009-06-03T12:48:13.000Z</time>
      </trkpt>
      <trkpt lat="47.49332" lon="10.75007">
        <ele>880.71</ele>
        <time>2009-06-03T12:48:24.000Z</time>
      </trkpt>
      <trkpt lat="47.49330" lon="10.74990">
        <ele>880.71</ele>
        <time>2009-06-03T12:48:27.000Z</time>
      </trkpt>
      <trkpt lat="47.49326" lon="10.74965">
        <ele>880.22</ele>
        <time>2009-06-03T12:48:31.000Z</time>
      </trkpt>
      <trkpt lat="47.49329" lon="10.74939">
        <ele>880.71</ele>
        <time>2009-06-03T12:48:35.000Z</time>
      </trkpt>
      <trkpt lat="47.49341" lon="10.74908">
        <ele>880.22</ele>
        <time>2009-06-03T12:48:40.000Z</time>
      </trkpt>
      <trkpt lat="47.49350" lon="10.74805">
        <ele>879.74</ele>
        <time>2009-06-03T12:48:55.000Z</time>
      </trkpt>
      <trkpt lat="47.49375" lon="10.74760">
        <ele>880.22</ele>
        <time>2009-06-03T12:49:07.000Z</time>
      </trkpt>
      <trkpt lat="47.49407" lon="10.74739">
        <ele>880.22</ele>
        <time>2009-06-03T12:49:16.000Z</time>
      </trkpt>
      <trkpt lat="47.49412" lon="10.74731">
        <ele>880.22</ele>
        <time>2009-06-03T12:49:18.000Z</time>
      </trkpt>
      <trkpt lat="47.49429" lon="10.74716">
        <ele>880.22</ele>
        <time>2009-06-03T12:49:38.000Z</time>
      </trkpt>
      <trkpt lat="47.49431" lon="10.74769">
        <ele>879.74</ele>
        <time>2009-06-03T12:50:57.000Z</time>
      </trkpt>
      <trkpt lat="47.49447" lon="10.74843">
        <ele>881.19</ele>
        <time>2009-06-03T12:51:15.000Z</time>
      </trkpt>
      <trkpt lat="47.49475" lon="10.74844">
        <ele>881.67</ele>
        <time>2009-06-03T12:51:25.000Z</time>
      </trkpt>
      <trkpt lat="47.49482" lon="10.74828">
        <ele>880.71</ele>
        <time>2009-06-03T12:51:30.000Z</time>
      </trkpt>
      <trkpt lat="47.49498" lon="10.74754">
        <ele>879.26</ele>
        <time>2009-06-03T12:51:41.000Z</time>
      </trkpt>
      <trkpt lat="47.49550" lon="10.74615">
        <ele>878.78</ele>
        <time>2009-06-03T12:52:02.000Z</time>
      </trkpt>
      <trkpt lat="47.49560" lon="10.74557">
        <ele>878.30</ele>
        <time>2009-06-03T12:52:10.000Z</time>
      </trkpt>
      <trkpt lat="47.49581" lon="10.74458">
        <ele>876.38</ele>
        <time>2009-06-03T12:52:21.000Z</time>
      </trkpt>
      <trkpt lat="47.49614" lon="10.74316">
        <ele>876.86</ele>
        <time>2009-06-03T12:52:38.000Z</time>
      </trkpt>
      <trkpt lat="47.49619" lon="10.74293">
        <ele>876.86</ele>
        <time>2009-06-03T12:52:41.000Z</time>
      </trkpt>
      <trkpt lat="47.49633" lon="10.74228">
        <ele>875.90</ele>
        <time>2009-06-03T12:52:49.000Z</time>
      </trkpt>
      <trkpt lat="47.49637" lon="10.74197">
        <ele>875.90</ele>
        <time>2009-06-03T12:52:53.000Z</time>
      </trkpt>
      <trkpt lat="47.49624" lon="10.74108">
        <ele>874.94</ele>
        <time>2009-06-03T12:53:04.000Z</time>
      </trkpt>
      <trkpt lat="47.49619" lon="10.74063">
        <ele>875.42</ele>
        <time>2009-06-03T12:53:09.000Z</time>
      </trkpt>
      <trkpt lat="47.49590" lon="10.73958">
        <ele>873.50</ele>
        <time>2009-06-03T12:53:28.000Z</time>
      </trkpt>
      <trkpt lat="47.49579" lon="10.73886">
        <ele>877.34</ele>
        <time>2009-06-03T12:55:18.000Z</time>
      </trkpt>
      <trkpt lat="47.49579" lon="10.73885">
        <ele>877.34</ele>
        <time>2009-06-03T12:55:21.000Z</time>
      </trkpt>
      <trkpt lat="47.49585" lon="10.73839">
        <ele>878.30</ele>
        <time>2009-06-03T12:55:38.000Z</time>
      </trkpt>
      <trkpt lat="47.49590" lon="10.73822">
        <ele>880.22</ele>
        <time>2009-06-03T12:55:44.000Z</time>
      </trkpt>
      <trkpt lat="47.49616" lon="10.73775">
        <ele>882.63</ele>
        <time>2009-06-03T12:56:01.000Z</time>
      </trkpt>
      <trkpt lat="47.49664" lon="10.73727">
        <ele>882.63</ele>
        <time>2009-06-03T12:56:18.000Z</time>
      </trkpt>
      <trkpt lat="47.49725" lon="10.73694">
        <ele>882.63</ele>
        <time>2009-06-03T12:56:34.000Z</time>
      </trkpt>
      <trkpt lat="47.49738" lon="10.73683">
        <ele>883.59</ele>
        <time>2009-06-03T12:56:39.000Z</time>
      </trkpt>
      <trkpt lat="47.49746" lon="10.73682">
        <ele>884.07</ele>
        <time>2009-06-03T12:56:58.000Z</time>
      </trkpt>
      <trkpt lat="47.49750" lon="10.73698">
        <ele>885.03</ele>
        <time>2009-06-03T12:57:58.000Z</time>
      </trkpt>
      <trkpt lat="47.49769" lon="10.73736">
        <ele>889.84</ele>
        <time>2009-06-03T12:58:16.000Z</time>
      </trkpt>
      <trkpt lat="47.49773" lon="10.73758">
        <ele>892.72</ele>
        <time>2009-06-03T12:58:25.000Z</time>
      </trkpt>
      <trkpt lat="47.49775" lon="10.73771">
        <ele>894.16</ele>
        <time>2009-06-03T12:58:31.000Z</time>
      </trkpt>
      <trkpt lat="47.49774" lon="10.73796">
        <ele>897.53</ele>
        <time>2009-06-03T12:58:42.000Z</time>
      </trkpt>
      <trkpt lat="47.49775" lon="10.73832">
        <ele>900.89</ele>
        <time>2009-06-03T12:58:59.000Z</time>
      </trkpt>
      <trkpt lat="47.49784" lon="10.73861">
        <ele>904.26</ele>
        <time>2009-06-03T12:59:15.000Z</time>
      </trkpt>
      <trkpt lat="47.49811" lon="10.73886">
        <ele>907.14</ele>
        <time>2009-06-03T12:59:37.000Z</time>
      </trkpt>
      <trkpt lat="47.49844" lon="10.73885">
        <ele>910.51</ele>
        <time>2009-06-03T12:59:52.000Z</time>
      </trkpt>
      <trkpt lat="47.49866" lon="10.73889">
        <ele>916.75</ele>
        <time>2009-06-03T13:00:25.000Z</time>
      </trkpt>
      <trkpt lat="47.49892" lon="10.73902">
        <ele>918.68</ele>
        <time>2009-06-03T13:00:30.000Z</time>
      </trkpt>
      <trkpt lat="47.49898" lon="10.73906">
        <ele>919.64</ele>
        <time>2009-06-03T13:00:38.000Z</time>
      </trkpt>
      <trkpt lat="47.49916" lon="10.73897">
        <ele>923.00</ele>
        <time>2009-06-03T13:00:53.000Z</time>
      </trkpt>
      <trkpt lat="47.49929" lon="10.73868">
        <ele>926.37</ele>
        <time>2009-06-03T13:01:10.000Z</time>
      </trkpt>
      <trkpt lat="47.49963" lon="10.73831">
        <ele>927.33</ele>
        <time>2009-06-03T13:01:29.000Z</time>
      </trkpt>
      <trkpt lat="47.49991" lon="10.73812">
        <ele>930.21</ele>
        <time>2009-06-03T13:01:45.000Z</time>
      </trkpt>
      <trkpt lat="47.49998" lon="10.73812">
        <ele>931.65</ele>
        <time>2009-06-03T13:01:49.000Z</time>
      </trkpt>
      <trkpt lat="47.50017" lon="10.73813">
        <ele>933.58</ele>
        <time>2009-06-03T13:02:00.000Z</time>
      </trkpt>
      <trkpt lat="47.50023" lon="10.73815">
        <ele>935.02</ele>
        <time>2009-06-03T13:02:04.000Z</time>
      </trkpt>
      <trkpt lat="47.50040" lon="10.73821">
        <ele>937.90</ele>
        <time>2009-06-03T13:02:15.000Z</time>
      </trkpt>
      <trkpt lat="47.50058" lon="10.73828">
        <ele>941.27</ele>
        <time>2009-06-03T13:02:28.000Z</time>
      </trkpt>
      <trkpt lat="47.50069" lon="10.73805">
        <ele>940.31</ele>
        <time>2009-06-03T13:04:25.000Z</time>
      </trkpt>
      <trkpt lat="47.50090" lon="10.73800">
        <ele>940.31</ele>
        <time>2009-06-03T13:04:42.000Z</time>
      </trkpt>
      <trkpt lat="47.50135" lon="10.73788">
        <ele>942.71</ele>
        <time>2009-06-03T13:05:00.000Z</time>
      </trkpt>
      <trkpt lat="47.50138" lon="10.73787">
        <ele>942.23</ele>
        <time>2009-06-03T13:05:01.000Z</time>
      </trkpt>
      <trkpt lat="47.50160" lon="10.73775">
        <ele>939.83</ele>
        <time>2009-06-03T13:05:06.000Z</time>
      </trkpt>
      <trkpt lat="47.50166" lon="10.73760">
        <ele>939.83</ele>
        <time>2009-06-03T13:05:08.000Z</time>
      </trkpt>
      <trkpt lat="47.50172" lon="10.73744">
        <ele>938.38</ele>
        <time>2009-06-03T13:05:10.000Z</time>
      </trkpt>
      <trkpt lat="47.50180" lon="10.73728">
        <ele>936.46</ele>
        <time>2009-06-03T13:05:12.000Z</time>
      </trkpt>
      <trkpt lat="47.50200" lon="10.73705">
        <ele>937.90</ele>
        <time>2009-06-03T13:05:17.000Z</time>
      </trkpt>
      <trkpt lat="47.50209" lon="10.73703">
        <ele>939.35</ele>
        <time>2009-06-03T13:05:20.000Z</time>
      </trkpt>
      <trkpt lat="47.50239" lon="10.73694">
        <ele>942.71</ele>
        <time>2009-06-03T13:05:36.000Z</time>
      </trkpt>
      <trkpt lat="47.50270" lon="10.73701">
        <ele>946.56</ele>
        <time>2009-06-03T13:05:53.000Z</time>
      </trkpt>
      <trkpt lat="47.50310" lon="10.73698">
        <ele>948.48</ele>
        <time>2009-06-03T13:06:14.000Z</time>
      </trkpt>
      <trkpt lat="47.50348" lon="10.73685">
        <ele>952.80</ele>
        <time>2009-06-03T13:06:31.000Z</time>
      </trkpt>
      <trkpt lat="47.50350" lon="10.73684">
        <ele>952.32</ele>
        <time>2009-06-03T13:06:32.000Z</time>
      </trkpt>
      <trkpt lat="47.50391" lon="10.73682">
        <ele>955.21</ele>
        <time>2009-06-03T13:06:52.000Z</time>
      </trkpt>
      <trkpt lat="47.50422" lon="10.73683">
        <ele>958.09</ele>
        <time>2009-06-03T13:07:10.000Z</time>
      </trkpt>
      <trkpt lat="47.50430" lon="10.73690">
        <ele>958.09</ele>
        <time>2009-06-03T13:07:15.000Z</time>
      </trkpt>
      <trkpt lat="47.50449" lon="10.73689">
        <ele>958.09</ele>
        <time>2009-06-03T13:07:23.000Z</time>
      </trkpt>
      <trkpt lat="47.50459" lon="10.73685">
        <ele>960.01</ele>
        <time>2009-06-03T13:07:28.000Z</time>
      </trkpt>
      <trkpt lat="47.50470" lon="10.73685">
        <ele>960.98</ele>
        <time>2009-06-03T13:07:46.000Z</time>
      </trkpt>
      <trkpt lat="47.50473" lon="10.73676">
        <ele>961.46</ele>
        <time>2009-06-03T13:09:10.000Z</time>
      </trkpt>
      <trkpt lat="47.50479" lon="10.73676">
        <ele>960.01</ele>
        <time>2009-06-03T13:09:15.000Z</time>
      </trkpt>
      <trkpt lat="47.50497" lon="10.73666">
        <ele>958.09</ele>
        <time>2009-06-03T13:09:25.000Z</time>
      </trkpt>
      <trkpt lat="47.50510" lon="10.73663">
        <ele>954.73</ele>
        <time>2009-06-03T13:09:28.000Z</time>
      </trkpt>
      <trkpt lat="47.50514" lon="10.73666">
        <ele>953.77</ele>
        <time>2009-06-03T13:09:29.000Z</time>
      </trkpt>
      <trkpt lat="47.50522" lon="10.73671">
        <ele>953.28</ele>
        <time>2009-06-03T13:09:31.000Z</time>
      </trkpt>
      <trkpt lat="47.50527" lon="10.73673">
        <ele>952.80</ele>
        <time>2009-06-03T13:09:32.000Z</time>
      </trkpt>
      <trkpt lat="47.50537" lon="10.73681">
        <ele>951.36</ele>
        <time>2009-06-03T13:09:34.000Z</time>
      </trkpt>
      <trkpt lat="47.50565" lon="10.73695">
        <ele>949.92</ele>
        <time>2009-06-03T13:09:41.000Z</time>
      </trkpt>
      <trkpt lat="47.50579" lon="10.73693">
        <ele>947.52</ele>
        <time>2009-06-03T13:09:47.000Z</time>
      </trkpt>
      <trkpt lat="47.50584" lon="10.73691">
        <ele>947.52</ele>
        <time>2009-06-03T13:09:49.000Z</time>
      </trkpt>
      <trkpt lat="47.50608" lon="10.73669">
        <ele>945.11</ele>
        <time>2009-06-03T13:09:59.000Z</time>
      </trkpt>
      <trkpt lat="47.50617" lon="10.73670">
        <ele>944.63</ele>
        <time>2009-06-03T13:10:05.000Z</time>
      </trkpt>
      <trkpt lat="47.50641" lon="10.73661">
        <ele>943.67</ele>
        <time>2009-06-03T13:10:16.000Z</time>
      </trkpt>
      <trkpt lat="47.50654" lon="10.73656">
        <ele>943.19</ele>
        <time>2009-06-03T13:10:23.000Z</time>
      </trkpt>
      <trkpt lat="47.50662" lon="10.73651">
        <ele>943.19</ele>
        <time>2009-06-03T13:10:28.000Z</time>
      </trkpt>
      <trkpt lat="47.50686" lon="10.73643">
        <ele>940.31</ele>
        <time>2009-06-03T13:10:40.000Z</time>
      </trkpt>
      <trkpt lat="47.50704" lon="10.73642">
        <ele>939.35</ele>
        <time>2009-06-03T13:10:52.000Z</time>
      </trkpt>
      <trkpt lat="47.50719" lon="10.73639">
        <ele>940.31</ele>
        <time>2009-06-03T13:11:13.000Z</time>
      </trkpt>
      <trkpt lat="47.50736" lon="10.73625">
        <ele>936.46</ele>
        <time>2009-06-03T13:11:25.000Z</time>
      </trkpt>
      <trkpt lat="47.50740" lon="10.73620">
        <ele>935.98</ele>
        <time>2009-06-03T13:11:27.000Z</time>
      </trkpt>
      <trkpt lat="47.50783" lon="10.73603">
        <ele>933.10</ele>
        <time>2009-06-03T13:11:39.000Z</time>
      </trkpt>
      <trkpt lat="47.50807" lon="10.73598">
        <ele>932.14</ele>
        <time>2009-06-03T13:11:46.000Z</time>
      </trkpt>
      <trkpt lat="47.50839" lon="10.73590">
        <ele>929.25</ele>
        <time>2009-06-03T13:11:59.000Z</time>
      </trkpt>
      <trkpt lat="47.50864" lon="10.73568">
        <ele>926.37</ele>
        <time>2009-06-03T13:12:08.000Z</time>
      </trkpt>
      <trkpt lat="47.50885" lon="10.73554">
        <ele>923.96</ele>
        <time>2009-06-03T13:12:12.000Z</time>
      </trkpt>
      <trkpt lat="47.50894" lon="10.73540">
        <ele>923.00</ele>
        <time>2009-06-03T13:12:14.000Z</time>
      </trkpt>
      <trkpt lat="47.50920" lon="10.73497">
        <ele>919.64</ele>
        <time>2009-06-03T13:12:20.000Z</time>
      </trkpt>
      <trkpt lat="47.50927" lon="10.73479">
        <ele>918.68</ele>
        <time>2009-06-03T13:12:22.000Z</time>
      </trkpt>
      <trkpt lat="47.50935" lon="10.73460">
        <ele>915.31</ele>
        <time>2009-06-03T13:12:24.000Z</time>
      </trkpt>
      <trkpt lat="47.50942" lon="10.73442">
        <ele>913.87</ele>
        <time>2009-06-03T13:12:26.000Z</time>
      </trkpt>
      <trkpt lat="47.50949" lon="10.73427">
        <ele>912.43</ele>
        <time>2009-06-03T13:12:28.000Z</time>
      </trkpt>
      <trkpt lat="47.50969" lon="10.73398">
        <ele>908.10</ele>
        <time>2009-06-03T13:12:33.000Z</time>
      </trkpt>
      <trkpt lat="47.50974" lon="10.73392">
        <ele>908.58</ele>
        <time>2009-06-03T13:12:34.000Z</time>
      </trkpt>
      <trkpt lat="47.51007" lon="10.73358">
        <ele>904.74</ele>
        <time>2009-06-03T13:12:40.000Z</time>
      </trkpt>
      <trkpt lat="47.51021" lon="10.73325">
        <ele>902.82</ele>
        <time>2009-06-03T13:12:46.000Z</time>
      </trkpt>
      <trkpt lat="47.51031" lon="10.73311">
        <ele>900.89</ele>
        <time>2009-06-03T13:13:18.000Z</time>
      </trkpt>
      <trkpt lat="47.51039" lon="10.73308">
        <ele>899.45</ele>
        <time>2009-06-03T13:13:20.000Z</time>
      </trkpt>
      <trkpt lat="47.51050" lon="10.73304">
        <ele>897.53</ele>
        <time>2009-06-03T13:13:22.000Z</time>
      </trkpt>
      <trkpt lat="47.51078" lon="10.73308">
        <ele>893.68</ele>
        <time>2009-06-03T13:13:26.000Z</time>
      </trkpt>
      <trkpt lat="47.51098" lon="10.73314">
        <ele>892.24</ele>
        <time>2009-06-03T13:13:29.000Z</time>
      </trkpt>
      <trkpt lat="47.51114" lon="10.73305">
        <ele>890.80</ele>
        <time>2009-06-03T13:16:31.000Z</time>
      </trkpt>
      <trkpt lat="47.51117" lon="10.73290">
        <ele>888.88</ele>
        <time>2009-06-03T13:16:36.000Z</time>
      </trkpt>
      <trkpt lat="47.51152" lon="10.73244">
        <ele>892.72</ele>
        <time>2009-06-03T13:16:50.000Z</time>
      </trkpt>
      <trkpt lat="47.51191" lon="10.73218">
        <ele>889.84</ele>
        <time>2009-06-03T13:17:01.000Z</time>
      </trkpt>
      <trkpt lat="47.51213" lon="10.73205">
        <ele>889.36</ele>
        <time>2009-06-03T13:17:06.000Z</time>
      </trkpt>
      <trkpt lat="47.51223" lon="10.73201">
        <ele>889.36</ele>
        <time>2009-06-03T13:17:08.000Z</time>
      </trkpt>
      <trkpt lat="47.51263" lon="10.73174">
        <ele>886.47</ele>
        <time>2009-06-03T13:17:17.000Z</time>
      </trkpt>
      <trkpt lat="47.51325" lon="10.73134">
        <ele>885.03</ele>
        <time>2009-06-03T13:17:30.000Z</time>
      </trkpt>
      <trkpt lat="47.51352" lon="10.73107">
        <ele>885.51</ele>
        <time>2009-06-03T13:17:36.000Z</time>
      </trkpt>
      <trkpt lat="47.51385" lon="10.73062">
        <ele>889.36</ele>
        <time>2009-06-03T13:17:47.000Z</time>
      </trkpt>
      <trkpt lat="47.51441" lon="10.73009">
        <ele>887.91</ele>
        <time>2009-06-03T13:18:02.000Z</time>
      </trkpt>
      <trkpt lat="47.51496" lon="10.72954">
        <ele>884.55</ele>
        <time>2009-06-03T13:18:14.000Z</time>
      </trkpt>
      <trkpt lat="47.51523" lon="10.72927">
        <ele>883.11</ele>
        <time>2009-06-03T13:18:20.000Z</time>
      </trkpt>
      <trkpt lat="47.51533" lon="10.72920">
        <ele>882.15</ele>
        <time>2009-06-03T13:18:22.000Z</time>
      </trkpt>
      <trkpt lat="47.51544" lon="10.72898">
        <ele>878.30</ele>
        <time>2009-06-03T13:18:27.000Z</time>
      </trkpt>
      <trkpt lat="47.51563" lon="10.72893">
        <ele>878.78</ele>
        <time>2009-06-03T13:18:36.000Z</time>
      </trkpt>
      <trkpt lat="47.51567" lon="10.72885">
        <ele>880.71</ele>
        <time>2009-06-03T13:18:38.000Z</time>
      </trkpt>
      <trkpt lat="47.51571" lon="10.72879">
        <ele>881.67</ele>
        <time>2009-06-03T13:18:40.000Z</time>
      </trkpt>
      <trkpt lat="47.51580" lon="10.72886">
        <ele>883.11</ele>
        <time>2009-06-03T13:18:46.000Z</time>
      </trkpt>
      <trkpt lat="47.51581" lon="10.72899">
        <ele>885.03</ele>
        <time>2009-06-03T13:18:51.000Z</time>
      </trkpt>
      <trkpt lat="47.51586" lon="10.72927">
        <ele>888.88</ele>
        <time>2009-06-03T13:19:04.000Z</time>
      </trkpt>
      <trkpt lat="47.51600" lon="10.72953">
        <ele>892.24</ele>
        <time>2009-06-03T13:19:18.000Z</time>
      </trkpt>
      <trkpt lat="47.51617" lon="10.72986">
        <ele>894.64</ele>
        <time>2009-06-03T13:19:35.000Z</time>
      </trkpt>
      <trkpt lat="47.51622" lon="10.72970">
        <ele>896.09</ele>
        <time>2009-06-03T13:19:42.000Z</time>
      </trkpt>
      <trkpt lat="47.51617" lon="10.72950">
        <ele>897.05</ele>
        <time>2009-06-03T13:19:49.000Z</time>
      </trkpt>
      <trkpt lat="47.51628" lon="10.72909">
        <ele>899.45</ele>
        <time>2009-06-03T13:20:08.000Z</time>
      </trkpt>
      <trkpt lat="47.51666" lon="10.72880">
        <ele>898.01</ele>
        <time>2009-06-03T13:20:24.000Z</time>
      </trkpt>
      <trkpt lat="47.51668" lon="10.72878">
        <ele>897.53</ele>
        <time>2009-06-03T13:20:26.000Z</time>
      </trkpt>
      <trkpt lat="47.51663" lon="10.72850">
        <ele>896.09</ele>
        <time>2009-06-03T13:20:33.000Z</time>
      </trkpt>
      <trkpt lat="47.51668" lon="10.72804">
        <ele>891.76</ele>
        <time>2009-06-03T13:20:39.000Z</time>
      </trkpt>
      <trkpt lat="47.51679" lon="10.72781">
        <ele>891.28</ele>
        <time>2009-06-03T13:20:49.000Z</time>
      </trkpt>
      <trkpt lat="47.51686" lon="10.72772">
        <ele>890.32</ele>
        <time>2009-06-03T13:21:34.000Z</time>
      </trkpt>
      <trkpt lat="47.51693" lon="10.72761">
        <ele>889.36</ele>
        <time>2009-06-03T13:22:12.000Z</time>
      </trkpt>
      <trkpt lat="47.51699" lon="10.72752">
        <ele>888.40</ele>
        <time>2009-06-03T13:22:14.000Z</time>
      </trkpt>
      <trkpt lat="47.51708" lon="10.72735">
        <ele>887.43</ele>
        <time>2009-06-03T13:22:17.000Z</time>
      </trkpt>
      <trkpt lat="47.51720" lon="10.72714">
        <ele>885.51</ele>
        <time>2009-06-03T13:22:20.000Z</time>
      </trkpt>
      <trkpt lat="47.51740" lon="10.72679">
        <ele>880.22</ele>
        <time>2009-06-03T13:22:24.000Z</time>
      </trkpt>
      <trkpt lat="47.51766" lon="10.72636">
        <ele>877.34</ele>
        <time>2009-06-03T13:22:28.000Z</time>
      </trkpt>
      <trkpt lat="47.51772" lon="10.72624">
        <ele>876.86</ele>
        <time>2009-06-03T13:22:29.000Z</time>
      </trkpt>
      <trkpt lat="47.51796" lon="10.72580">
        <ele>873.50</ele>
        <time>2009-06-03T13:22:33.000Z</time>
      </trkpt>
      <trkpt lat="47.51802" lon="10.72569">
        <ele>873.50</ele>
        <time>2009-06-03T13:22:34.000Z</time>
      </trkpt>
      <trkpt lat="47.51819" lon="10.72534">
        <ele>870.13</ele>
        <time>2009-06-03T13:22:37.000Z</time>
      </trkpt>
      <trkpt lat="47.51839" lon="10.72497">
        <ele>866.29</ele>
        <time>2009-06-03T13:22:40.000Z</time>
      </trkpt>
      <trkpt lat="47.51867" lon="10.72444">
        <ele>861.96</ele>
        <time>2009-06-03T13:22:44.000Z</time>
      </trkpt>
      <trkpt lat="47.51882" lon="10.72418">
        <ele>859.08</ele>
        <time>2009-06-03T13:22:46.000Z</time>
      </trkpt>
      <trkpt lat="47.51924" lon="10.72323">
        <ele>859.08</ele>
        <time>2009-06-03T13:22:55.000Z</time>
      </trkpt>
      <trkpt lat="47.51981" lon="10.72179">
        <ele>856.19</ele>
        <time>2009-06-03T13:23:11.000Z</time>
      </trkpt>
      <trkpt lat="47.51985" lon="10.72170">
        <ele>856.19</ele>
        <time>2009-06-03T13:23:12.000Z</time>
      </trkpt>
      <trkpt lat="47.52015" lon="10.72088">
        <ele>854.75</ele>
        <time>2009-06-03T13:23:21.000Z</time>
      </trkpt>
      <trkpt lat="47.52060" lon="10.71934">
        <ele>853.31</ele>
        <time>2009-06-03T13:23:38.000Z</time>
      </trkpt>
      <trkpt lat="47.52109" lon="10.71757">
        <ele>852.35</ele>
        <time>2009-06-03T13:23:58.000Z</time>
      </trkpt>
      <trkpt lat="47.52121" lon="10.71718">
        <ele>851.87</ele>
        <time>2009-06-03T13:24:03.000Z</time>
      </trkpt>
      <trkpt lat="47.52134" lon="10.71650">
        <ele>853.79</ele>
        <time>2009-06-03T13:24:13.000Z</time>
      </trkpt>
      <trkpt lat="47.52159" lon="10.71546">
        <ele>856.67</ele>
        <time>2009-06-03T13:24:33.000Z</time>
      </trkpt>
      <trkpt lat="47.52186" lon="10.71431">
        <ele>858.11</ele>
        <time>2009-06-03T13:24:56.000Z</time>
      </trkpt>
      <trkpt lat="47.52216" lon="10.71325">
        <ele>858.59</ele>
        <time>2009-06-03T13:25:17.000Z</time>
      </trkpt>
      <trkpt lat="47.52227" lon="10.71291">
        <ele>855.23</ele>
        <time>2009-06-03T13:25:27.000Z</time>
      </trkpt>
      <trkpt lat="47.52237" lon="10.71264">
        <ele>853.79</ele>
        <time>2009-06-03T13:25:31.000Z</time>
      </trkpt>
      <trkpt lat="47.52243" lon="10.71252">
        <ele>853.79</ele>
        <time>2009-06-03T13:25:33.000Z</time>
      </trkpt>
      <trkpt lat="47.52259" lon="10.71187">
        <ele>856.19</ele>
        <time>2009-06-03T13:25:45.000Z</time>
      </trkpt>
      <trkpt lat="47.52273" lon="10.71146">
        <ele>859.56</ele>
        <time>2009-06-03T13:25:56.000Z</time>
      </trkpt>
      <trkpt lat="47.52297" lon="10.71115">
        <ele>863.40</ele>
        <time>2009-06-03T13:26:11.000Z</time>
      </trkpt>
      <trkpt lat="47.52298" lon="10.71113">
        <ele>862.92</ele>
        <time>2009-06-03T13:26:12.000Z</time>
      </trkpt>
      <trkpt lat="47.52331" lon="10.71074">
        <ele>866.77</ele>
        <time>2009-06-03T13:26:33.000Z</time>
      </trkpt>
      <trkpt lat="47.52342" lon="10.71060">
        <ele>870.13</ele>
        <time>2009-06-03T13:26:40.000Z</time>
      </trkpt>
      <trkpt lat="47.52369" lon="10.71030">
        <ele>873.01</ele>
        <time>2009-06-03T13:26:56.000Z</time>
      </trkpt>
      <trkpt lat="47.52372" lon="10.71027">
        <ele>873.50</ele>
        <time>2009-06-03T13:26:58.000Z</time>
      </trkpt>
      <trkpt lat="47.52411" lon="10.71023">
        <ele>876.86</ele>
        <time>2009-06-03T13:27:16.000Z</time>
      </trkpt>
      <trkpt lat="47.52449" lon="10.71051">
        <ele>878.78</ele>
        <time>2009-06-03T13:27:34.000Z</time>
      </trkpt>
      <trkpt lat="47.52487" lon="10.71075">
        <ele>879.26</ele>
        <time>2009-06-03T13:27:49.000Z</time>
      </trkpt>
      <trkpt lat="47.52547" lon="10.71055">
        <ele>880.71</ele>
        <time>2009-06-03T13:28:07.000Z</time>
      </trkpt>
      <trkpt lat="47.52612" lon="10.70984">
        <ele>882.15</ele>
        <time>2009-06-03T13:28:27.000Z</time>
      </trkpt>
      <trkpt lat="47.52655" lon="10.70920">
        <ele>881.67</ele>
        <time>2009-06-03T13:28:41.000Z</time>
      </trkpt>
      <trkpt lat="47.52657" lon="10.70787">
        <ele>883.11</ele>
        <time>2009-06-03T13:28:59.000Z</time>
      </trkpt>
      <trkpt lat="47.52651" lon="10.70752">
        <ele>880.71</ele>
        <time>2009-06-03T13:29:03.000Z</time>
      </trkpt>
      <trkpt lat="47.52645" lon="10.70706">
        <ele>879.26</ele>
        <time>2009-06-03T13:29:08.000Z</time>
      </trkpt>
      <trkpt lat="47.52623" lon="10.70490">
        <ele>877.34</ele>
        <time>2009-06-03T13:29:32.000Z</time>
      </trkpt>
      <trkpt lat="47.52622" lon="10.70470">
        <ele>876.38</ele>
        <time>2009-06-03T13:29:34.000Z</time>
      </trkpt>
      <trkpt lat="47.52621" lon="10.70416">
        <ele>872.53</ele>
        <time>2009-06-03T13:29:39.000Z</time>
      </trkpt>
      <trkpt lat="47.52624" lon="10.70392">
        <ele>870.61</ele>
        <time>2009-06-03T13:29:41.000Z</time>
      </trkpt>
      <trkpt lat="47.52634" lon="10.70354">
        <ele>866.77</ele>
        <time>2009-06-03T13:29:44.000Z</time>
      </trkpt>
      <trkpt lat="47.52648" lon="10.70330">
        <ele>863.40</ele>
        <time>2009-06-03T13:29:46.000Z</time>
      </trkpt>
      <trkpt lat="47.52670" lon="10.70314">
        <ele>858.59</ele>
        <time>2009-06-03T13:29:48.000Z</time>
      </trkpt>
      <trkpt lat="47.52695" lon="10.70312">
        <ele>855.23</ele>
        <time>2009-06-03T13:29:50.000Z</time>
      </trkpt>
      <trkpt lat="47.52707" lon="10.70314">
        <ele>854.27</ele>
        <time>2009-06-03T13:29:51.000Z</time>
      </trkpt>
      <trkpt lat="47.52745" lon="10.70317">
        <ele>851.87</ele>
        <time>2009-06-03T13:29:54.000Z</time>
      </trkpt>
      <trkpt lat="47.52785" lon="10.70321">
        <ele>848.02</ele>
        <time>2009-06-03T13:29:57.000Z</time>
      </trkpt>
      <trkpt lat="47.52813" lon="10.70321">
        <ele>843.69</ele>
        <time>2009-06-03T13:29:59.000Z</time>
      </trkpt>
      <trkpt lat="47.52827" lon="10.70319">
        <ele>843.21</ele>
        <time>2009-06-03T13:30:00.000Z</time>
      </trkpt>
      <trkpt lat="47.52856" lon="10.70308">
        <ele>840.81</ele>
        <time>2009-06-03T13:30:02.000Z</time>
      </trkpt>
      <trkpt lat="47.52878" lon="10.70284">
        <ele>836.48</ele>
        <time>2009-06-03T13:30:04.000Z</time>
      </trkpt>
      <trkpt lat="47.52887" lon="10.70268">
        <ele>836.48</ele>
        <time>2009-06-03T13:30:05.000Z</time>
      </trkpt>
      <trkpt lat="47.52901" lon="10.70235">
        <ele>836.00</ele>
        <time>2009-06-03T13:30:07.000Z</time>
      </trkpt>
      <trkpt lat="47.52936" lon="10.70122">
        <ele>837.93</ele>
        <time>2009-06-03T13:30:15.000Z</time>
      </trkpt>
      <trkpt lat="47.53002" lon="10.70020">
        <ele>839.37</ele>
        <time>2009-06-03T13:30:28.000Z</time>
      </trkpt>
      <trkpt lat="47.53018" lon="10.70005">
        <ele>837.45</ele>
        <time>2009-06-03T13:30:31.000Z</time>
      </trkpt>
      <trkpt lat="47.53044" lon="10.69985">
        <ele>838.89</ele>
        <time>2009-06-03T13:30:36.000Z</time>
      </trkpt>
      <trkpt lat="47.53054" lon="10.69980">
        <ele>839.37</ele>
        <time>2009-06-03T13:30:38.000Z</time>
      </trkpt>
      <trkpt lat="47.53145" lon="10.69891">
        <ele>836.96</ele>
        <time>2009-06-03T13:30:59.000Z</time>
      </trkpt>
      <trkpt lat="47.53241" lon="10.69770">
        <ele>836.96</ele>
        <time>2009-06-03T13:31:24.000Z</time>
      </trkpt>
      <trkpt lat="47.53343" lon="10.69667">
        <ele>834.08</ele>
        <time>2009-06-03T13:31:47.000Z</time>
      </trkpt>
      <trkpt lat="47.53433" lon="10.69564">
        <ele>833.12</ele>
        <time>2009-06-03T13:32:08.000Z</time>
      </trkpt>
      <trkpt lat="47.53443" lon="10.69538">
        <ele>834.08</ele>
        <time>2009-06-03T13:32:12.000Z</time>
      </trkpt>
      <trkpt lat="47.53496" lon="10.69388">
        <ele>833.60</ele>
        <time>2009-06-03T13:32:34.000Z</time>
      </trkpt>
      <trkpt lat="47.53595" lon="10.69255">
        <ele>833.12</ele>
        <time>2009-06-03T13:33:00.000Z</time>
      </trkpt>
      <trkpt lat="47.53615" lon="10.69231">
        <ele>834.08</ele>
        <time>2009-06-03T13:33:05.000Z</time>
      </trkpt>
      <trkpt lat="47.53699" lon="10.69143">
        <ele>833.60</ele>
        <time>2009-06-03T13:33:25.000Z</time>
      </trkpt>
      <trkpt lat="47.53727" lon="10.69095">
        <ele>833.60</ele>
        <time>2009-06-03T13:33:33.000Z</time>
      </trkpt>
      <trkpt lat="47.53766" lon="10.69021">
        <ele>833.12</ele>
        <time>2009-06-03T13:33:44.000Z</time>
      </trkpt>
      <trkpt lat="47.53862" lon="10.68960">
        <ele>833.60</ele>
        <time>2009-06-03T13:34:02.000Z</time>
      </trkpt>
      <trkpt lat="47.53885" lon="10.68952">
        <ele>830.72</ele>
        <time>2009-06-03T13:34:06.000Z</time>
      </trkpt>
      <trkpt lat="47.53966" lon="10.68871">
        <ele>832.16</ele>
        <time>2009-06-03T13:34:24.000Z</time>
      </trkpt>
      <trkpt lat="47.54033" lon="10.68750">
        <ele>830.24</ele>
        <time>2009-06-03T13:34:45.000Z</time>
      </trkpt>
      <trkpt lat="47.54093" lon="10.68650">
        <ele>829.27</ele>
        <time>2009-06-03T13:35:04.000Z</time>
      </trkpt>
      <trkpt lat="47.54151" lon="10.68561">
        <ele>829.27</ele>
        <time>2009-06-03T13:35:21.000Z</time>
      </trkpt>
      <trkpt lat="47.54166" lon="10.68537">
        <ele>827.35</ele>
        <time>2009-06-03T13:35:25.000Z</time>
      </trkpt>
      <trkpt lat="47.54234" lon="10.68424">
        <ele>828.79</ele>
        <time>2009-06-03T13:35:45.000Z</time>
      </trkpt>
      <trkpt lat="47.54255" lon="10.68393">
        <ele>830.24</ele>
        <time>2009-06-03T13:35:51.000Z</time>
      </trkpt>
      <trkpt lat="47.54273" lon="10.68376">
        <ele>829.76</ele>
        <time>2009-06-03T13:35:55.000Z</time>
      </trkpt>
      <trkpt lat="47.54302" lon="10.68376">
        <ele>830.72</ele>
        <time>2009-06-03T13:36:04.000Z</time>
      </trkpt>
      <trkpt lat="47.54338" lon="10.68380">
        <ele>832.64</ele>
        <time>2009-06-03T14:35:33.000Z</time>
      </trkpt>
      <trkpt lat="47.54362" lon="10.68375">
        <ele>834.08</ele>
        <time>2009-06-03T14:37:09.000Z</time>
      </trkpt>
      <trkpt lat="47.54379" lon="10.68362">
        <ele>834.08</ele>
        <time>2009-06-03T14:37:18.000Z</time>
      </trkpt>
      <trkpt lat="47.54389" lon="10.68352">
        <ele>833.60</ele>
        <time>2009-06-03T14:37:22.000Z</time>
      </trkpt>
      <trkpt lat="47.54405" lon="10.68322">
        <ele>834.56</ele>
        <time>2009-06-03T14:37:38.000Z</time>
      </trkpt>
      <trkpt lat="47.54410" lon="10.68314">
        <ele>833.12</ele>
        <time>2009-06-03T14:38:30.000Z</time>
      </trkpt>
      <trkpt lat="47.54419" lon="10.68300">
        <ele>833.60</ele>
        <time>2009-06-03T14:38:37.000Z</time>
      </trkpt>
      <trkpt lat="47.54466" lon="10.68234">
        <ele>833.60</ele>
        <time>2009-06-03T14:38:55.000Z</time>
      </trkpt>
      <trkpt lat="47.54479" lon="10.68218">
        <ele>834.56</ele>
        <time>2009-06-03T14:39:00.000Z</time>
      </trkpt>
      <trkpt lat="47.54488" lon="10.68206">
        <ele>834.08</ele>
        <time>2009-06-03T14:39:12.000Z</time>
      </trkpt>
      <trkpt lat="47.54493" lon="10.68202">
        <ele>833.12</ele>
        <time>2009-06-03T14:39:29.000Z</time>
      </trkpt>
      <trkpt lat="47.54524" lon="10.68164">
        <ele>833.60</ele>
        <time>2009-06-03T14:39:41.000Z</time>
      </trkpt>
      <trkpt lat="47.54546" lon="10.68133">
        <ele>831.68</ele>
        <time>2009-06-03T14:39:49.000Z</time>
      </trkpt>
      <trkpt lat="47.54573" lon="10.68069">
        <ele>833.60</ele>
        <time>2009-06-03T14:40:02.000Z</time>
      </trkpt>
      <trkpt lat="47.54595" lon="10.67969">
        <ele>832.64</ele>
        <time>2009-06-03T14:40:21.000Z</time>
      </trkpt>
      <trkpt lat="47.54603" lon="10.67941">
        <ele>832.16</ele>
        <time>2009-06-03T14:40:26.000Z</time>
      </trkpt>
      <trkpt lat="47.54614" lon="10.67862">
        <ele>832.64</ele>
        <time>2009-06-03T14:40:40.000Z</time>
      </trkpt>
      <trkpt lat="47.54616" lon="10.67774">
        <ele>833.12</ele>
        <time>2009-06-03T14:40:57.000Z</time>
      </trkpt>
      <trkpt lat="47.54625" lon="10.67704">
        <ele>832.16</ele>
        <time>2009-06-03T14:41:10.000Z</time>
      </trkpt>
      <trkpt lat="47.54627" lon="10.67683">
        <ele>833.12</ele>
        <time>2009-06-03T14:41:14.000Z</time>
      </trkpt>
      <trkpt lat="47.54632" lon="10.67627">
        <ele>831.20</ele>
        <time>2009-06-03T14:41:24.000Z</time>
      </trkpt>
      <trkpt lat="47.54642" lon="10.67605">
        <ele>831.20</ele>
        <time>2009-06-03T14:41:28.000Z</time>
      </trkpt>
      <trkpt lat="47.54649" lon="10.67597">
        <ele>831.68</ele>
        <time>2009-06-03T14:41:30.000Z</time>
      </trkpt>
      <trkpt lat="47.54657" lon="10.67591">
        <ele>831.68</ele>
        <time>2009-06-03T14:41:32.000Z</time>
      </trkpt>
      <trkpt lat="47.54679" lon="10.67593">
        <ele>831.68</ele>
        <time>2009-06-03T14:41:37.000Z</time>
      </trkpt>
      <trkpt lat="47.54687" lon="10.67598">
        <ele>831.68</ele>
        <time>2009-06-03T14:41:39.000Z</time>
      </trkpt>
      <trkpt lat="47.54705" lon="10.67600">
        <ele>832.16</ele>
        <time>2009-06-03T14:41:43.000Z</time>
      </trkpt>
      <trkpt lat="47.54718" lon="10.67595">
        <ele>832.16</ele>
        <time>2009-06-03T14:41:46.000Z</time>
      </trkpt>
      <trkpt lat="47.54733" lon="10.67581">
        <ele>830.72</ele>
        <time>2009-06-03T14:41:50.000Z</time>
      </trkpt>
      <trkpt lat="47.54778" lon="10.67506">
        <ele>832.64</ele>
        <time>2009-06-03T14:42:08.000Z</time>
      </trkpt>
      <trkpt lat="47.54795" lon="10.67465">
        <ele>832.64</ele>
        <time>2009-06-03T14:42:23.000Z</time>
      </trkpt>
      <trkpt lat="47.54798" lon="10.67460">
        <ele>832.64</ele>
        <time>2009-06-03T14:43:47.000Z</time>
      </trkpt>
      <trkpt lat="47.54801" lon="10.67444">
        <ele>834.08</ele>
        <time>2009-06-03T14:45:50.000Z</time>
      </trkpt>
      <trkpt lat="47.54807" lon="10.67443">
        <ele>834.56</ele>
        <time>2009-06-03T14:45:56.000Z</time>
      </trkpt>
      <trkpt lat="47.54821" lon="10.67426">
        <ele>838.41</ele>
        <time>2009-06-03T14:46:12.000Z</time>
      </trkpt>
      <trkpt lat="47.54835" lon="10.67404">
        <ele>841.77</ele>
        <time>2009-06-03T14:46:26.000Z</time>
      </trkpt>
      <trkpt lat="47.54837" lon="10.67402">
        <ele>843.21</ele>
        <time>2009-06-03T14:46:33.000Z</time>
      </trkpt>
      <trkpt lat="47.54842" lon="10.67398">
        <ele>844.18</ele>
        <time>2009-06-03T14:46:37.000Z</time>
      </trkpt>
      <trkpt lat="47.54849" lon="10.67394">
        <ele>845.14</ele>
        <time>2009-06-03T14:46:48.000Z</time>
      </trkpt>
      <trkpt lat="47.54854" lon="10.67385">
        <ele>846.10</ele>
        <time>2009-06-03T14:46:59.000Z</time>
      </trkpt>
      <trkpt lat="47.54854" lon="10.67374">
        <ele>849.46</ele>
        <time>2009-06-03T14:47:11.000Z</time>
      </trkpt>
      <trkpt lat="47.54857" lon="10.67364">
        <ele>849.46</ele>
        <time>2009-06-03T14:47:20.000Z</time>
      </trkpt>
      <trkpt lat="47.54859" lon="10.67363">
        <ele>850.42</ele>
        <time>2009-06-03T14:47:22.000Z</time>
      </trkpt>
      <trkpt lat="47.54871" lon="10.67341">
        <ele>853.79</ele>
        <time>2009-06-03T14:47:42.000Z</time>
      </trkpt>
      <trkpt lat="47.54880" lon="10.67331">
        <ele>856.67</ele>
        <time>2009-06-03T14:47:55.000Z</time>
      </trkpt>
      <trkpt lat="47.54886" lon="10.67332">
        <ele>857.15</ele>
        <time>2009-06-03T14:47:58.000Z</time>
      </trkpt>
      <trkpt lat="47.54895" lon="10.67318">
        <ele>860.52</ele>
        <time>2009-06-03T14:48:14.000Z</time>
      </trkpt>
      <trkpt lat="47.54907" lon="10.67309">
        <ele>863.40</ele>
        <time>2009-06-03T14:48:29.000Z</time>
      </trkpt>
      <trkpt lat="47.54913" lon="10.67294">
        <ele>865.80</ele>
        <time>2009-06-03T14:48:43.000Z</time>
      </trkpt>
      <trkpt lat="47.54933" lon="10.67282">
        <ele>867.73</ele>
        <time>2009-06-03T14:49:03.000Z</time>
      </trkpt>
      <trkpt lat="47.54958" lon="10.67285">
        <ele>868.21</ele>
        <time>2009-06-03T14:49:18.000Z</time>
      </trkpt>
      <trkpt lat="47.55006" lon="10.67296">
        <ele>868.69</ele>
        <time>2009-06-03T14:49:30.000Z</time>
      </trkpt>
      <trkpt lat="47.55028" lon="10.67304">
        <ele>868.69</ele>
        <time>2009-06-03T14:49:34.000Z</time>
      </trkpt>
      <trkpt lat="47.55041" lon="10.67306">
        <ele>869.17</ele>
        <time>2009-06-03T14:49:36.000Z</time>
      </trkpt>
      <trkpt lat="47.55069" lon="10.67324">
        <ele>869.17</ele>
        <time>2009-06-03T14:49:48.000Z</time>
      </trkpt>
      <trkpt lat="47.55086" lon="10.67373">
        <ele>872.05</ele>
        <time>2009-06-03T14:50:03.000Z</time>
      </trkpt>
      <trkpt lat="47.55089" lon="10.67413">
        <ele>872.53</ele>
        <time>2009-06-03T14:50:12.000Z</time>
      </trkpt>
      <trkpt lat="47.55091" lon="10.67454">
        <ele>868.21</ele>
        <time>2009-06-03T14:50:17.000Z</time>
      </trkpt>
      <trkpt lat="47.55091" lon="10.67477">
        <ele>866.29</ele>
        <time>2009-06-03T14:50:19.000Z</time>
      </trkpt>
      <trkpt lat="47.55096" lon="10.67514">
        <ele>862.92</ele>
        <time>2009-06-03T14:50:22.000Z</time>
      </trkpt>
      <trkpt lat="47.55100" lon="10.67526">
        <ele>862.44</ele>
        <time>2009-06-03T14:50:23.000Z</time>
      </trkpt>
      <trkpt lat="47.55111" lon="10.67580">
        <ele>858.11</ele>
        <time>2009-06-03T14:50:27.000Z</time>
      </trkpt>
      <trkpt lat="47.55114" lon="10.67594">
        <ele>857.15</ele>
        <time>2009-06-03T14:50:28.000Z</time>
      </trkpt>
      <trkpt lat="47.55123" lon="10.67622">
        <ele>856.19</ele>
        <time>2009-06-03T14:50:30.000Z</time>
      </trkpt>
      <trkpt lat="47.55132" lon="10.67685">
        <ele>849.94</ele>
        <time>2009-06-03T14:50:34.000Z</time>
      </trkpt>
      <trkpt lat="47.55138" lon="10.67732">
        <ele>846.58</ele>
        <time>2009-06-03T14:50:37.000Z</time>
      </trkpt>
      <trkpt lat="47.55144" lon="10.67778">
        <ele>842.73</ele>
        <time>2009-06-03T14:50:40.000Z</time>
      </trkpt>
      <trkpt lat="47.55154" lon="10.67837">
        <ele>837.93</ele>
        <time>2009-06-03T14:50:44.000Z</time>
      </trkpt>
      <trkpt lat="47.55158" lon="10.67863">
        <ele>834.56</ele>
        <time>2009-06-03T14:50:46.000Z</time>
      </trkpt>
      <trkpt lat="47.55161" lon="10.67873">
        <ele>834.08</ele>
        <time>2009-06-03T14:50:47.000Z</time>
      </trkpt>
      <trkpt lat="47.55189" lon="10.67894">
        <ele>830.72</ele>
        <time>2009-06-03T14:50:51.000Z</time>
      </trkpt>
      <trkpt lat="47.55212" lon="10.67915">
        <ele>826.39</ele>
        <time>2009-06-03T14:50:54.000Z</time>
      </trkpt>
      <trkpt lat="47.55229" lon="10.67934">
        <ele>823.99</ele>
        <time>2009-06-03T14:50:57.000Z</time>
      </trkpt>
      <trkpt lat="47.55240" lon="10.67937">
        <ele>823.03</ele>
        <time>2009-06-03T14:50:59.000Z</time>
      </trkpt>
      <trkpt lat="47.55271" lon="10.67959">
        <ele>821.58</ele>
        <time>2009-06-03T14:51:04.000Z</time>
      </trkpt>
      <trkpt lat="47.55303" lon="10.67976">
        <ele>822.06</ele>
        <time>2009-06-03T14:51:11.000Z</time>
      </trkpt>
      <trkpt lat="47.55311" lon="10.67974">
        <ele>821.58</ele>
        <time>2009-06-03T14:51:14.000Z</time>
      </trkpt>
      <trkpt lat="47.55331" lon="10.67960">
        <ele>822.55</ele>
        <time>2009-06-03T14:51:27.000Z</time>
      </trkpt>
      <trkpt lat="47.55336" lon="10.67959">
        <ele>822.06</ele>
        <time>2009-06-03T14:52:45.000Z</time>
      </trkpt>
      <trkpt lat="47.55351" lon="10.67985">
        <ele>821.58</ele>
        <time>2009-06-03T14:52:52.000Z</time>
      </trkpt>
      <trkpt lat="47.55370" lon="10.68038">
        <ele>822.55</ele>
        <time>2009-06-03T14:53:01.000Z</time>
      </trkpt>
      <trkpt lat="47.55389" lon="10.68110">
        <ele>821.58</ele>
        <time>2009-06-03T14:53:12.000Z</time>
      </trkpt>
      <trkpt lat="47.55412" lon="10.68142">
        <ele>817.74</ele>
        <time>2009-06-03T14:53:17.000Z</time>
      </trkpt>
      <trkpt lat="47.55423" lon="10.68158">
        <ele>816.30</ele>
        <time>2009-06-03T14:53:19.000Z</time>
      </trkpt>
      <trkpt lat="47.55436" lon="10.68181">
        <ele>818.70</ele>
        <time>2009-06-03T14:53:22.000Z</time>
      </trkpt>
      <trkpt lat="47.55461" lon="10.68213">
        <ele>816.78</ele>
        <time>2009-06-03T14:53:27.000Z</time>
      </trkpt>
      <trkpt lat="47.55535" lon="10.68344">
        <ele>816.78</ele>
        <time>2009-06-03T14:53:43.000Z</time>
      </trkpt>
      <trkpt lat="47.55561" lon="10.68416">
        <ele>817.26</ele>
        <time>2009-06-03T14:53:51.000Z</time>
      </trkpt>
      <trkpt lat="47.55571" lon="10.68504">
        <ele>816.30</ele>
        <time>2009-06-03T14:54:00.000Z</time>
      </trkpt>
      <trkpt lat="47.55566" lon="10.68554">
        <ele>818.70</ele>
        <time>2009-06-03T14:54:06.000Z</time>
      </trkpt>
      <trkpt lat="47.55570" lon="10.68573">
        <ele>819.18</ele>
        <time>2009-06-03T14:54:09.000Z</time>
      </trkpt>
      <trkpt lat="47.55604" lon="10.68642">
        <ele>820.62</ele>
        <time>2009-06-03T14:54:21.000Z</time>
      </trkpt>
      <trkpt lat="47.55611" lon="10.68668">
        <ele>820.62</ele>
        <time>2009-06-03T14:54:25.000Z</time>
      </trkpt>
      <trkpt lat="47.55651" lon="10.68744">
        <ele>820.62</ele>
        <time>2009-06-03T14:54:38.000Z</time>
      </trkpt>
      <trkpt lat="47.55696" lon="10.68867">
        <ele>822.06</ele>
        <time>2009-06-03T14:54:57.000Z</time>
      </trkpt>
      <trkpt lat="47.55701" lon="10.68877">
        <ele>822.06</ele>
        <time>2009-06-03T14:54:59.000Z</time>
      </trkpt>
      <trkpt lat="47.55725" lon="10.68963">
        <ele>823.03</ele>
        <time>2009-06-03T14:55:15.000Z</time>
      </trkpt>
      <trkpt lat="47.55730" lon="10.68975">
        <ele>822.06</ele>
        <time>2009-06-03T14:55:17.000Z</time>
      </trkpt>
      <trkpt lat="47.55736" lon="10.69010">
        <ele>819.66</ele>
        <time>2009-06-03T14:55:22.000Z</time>
      </trkpt>
      <trkpt lat="47.55740" lon="10.69033">
        <ele>818.22</ele>
        <time>2009-06-03T14:55:25.000Z</time>
      </trkpt>
      <trkpt lat="47.55746" lon="10.69092">
        <ele>818.22</ele>
        <time>2009-06-03T14:55:26.000Z</time>
      </trkpt>
      <trkpt lat="47.55751" lon="10.69146">
        <ele>819.18</ele>
        <time>2009-06-03T14:55:37.000Z</time>
      </trkpt>
      <trkpt lat="47.55746" lon="10.69175">
        <ele>820.62</ele>
        <time>2009-06-03T14:55:41.000Z</time>
      </trkpt>
      <trkpt lat="47.55744" lon="10.69202">
        <ele>821.58</ele>
        <time>2009-06-03T14:55:46.000Z</time>
      </trkpt>
      <trkpt lat="47.55781" lon="10.69309">
        <ele>820.14</ele>
        <time>2009-06-03T14:56:06.000Z</time>
      </trkpt>
      <trkpt lat="47.55783" lon="10.69315">
        <ele>820.14</ele>
        <time>2009-06-03T14:56:07.000Z</time>
      </trkpt>
      <trkpt lat="47.55790" lon="10.69329">
        <ele>820.62</ele>
        <time>2009-06-03T14:56:10.000Z</time>
      </trkpt>
      <trkpt lat="47.55829" lon="10.69445">
        <ele>820.62</ele>
        <time>2009-06-03T14:56:30.000Z</time>
      </trkpt>
      <trkpt lat="47.55857" lon="10.69480">
        <ele>820.14</ele>
        <time>2009-06-03T14:56:38.000Z</time>
      </trkpt>
      <trkpt lat="47.55872" lon="10.69488">
        <ele>820.14</ele>
        <time>2009-06-03T14:56:41.000Z</time>
      </trkpt>
      <trkpt lat="47.55951" lon="10.69582">
        <ele>818.22</ele>
        <time>2009-06-03T14:57:00.000Z</time>
      </trkpt>
      <trkpt lat="47.56020" lon="10.69639">
        <ele>814.85</ele>
        <time>2009-06-03T14:57:13.000Z</time>
      </trkpt>
      <trkpt lat="47.56026" lon="10.69642">
        <ele>815.34</ele>
        <time>2009-06-03T14:57:14.000Z</time>
      </trkpt>
      <trkpt lat="47.56057" lon="10.69651">
        <ele>814.85</ele>
        <time>2009-06-03T14:57:19.000Z</time>
      </trkpt>
      <trkpt lat="47.56068" lon="10.69650">
        <ele>814.85</ele>
        <time>2009-06-03T14:57:21.000Z</time>
      </trkpt>
      <trkpt lat="47.56085" lon="10.69634">
        <ele>816.78</ele>
        <time>2009-06-03T14:57:25.000Z</time>
      </trkpt>
      <trkpt lat="47.56088" lon="10.69628">
        <ele>817.74</ele>
        <time>2009-06-03T14:57:26.000Z</time>
      </trkpt>
      <trkpt lat="47.56103" lon="10.69591">
        <ele>820.14</ele>
        <time>2009-06-03T14:57:34.000Z</time>
      </trkpt>
      <trkpt lat="47.56152" lon="10.69568">
        <ele>822.06</ele>
        <time>2009-06-03T14:57:48.000Z</time>
      </trkpt>
      <trkpt lat="47.56249" lon="10.69517">
        <ele>824.47</ele>
        <time>2009-06-03T14:58:18.000Z</time>
      </trkpt>
      <trkpt lat="47.56271" lon="10.69511">
        <ele>823.03</ele>
        <time>2009-06-03T14:58:23.000Z</time>
      </trkpt>
      <trkpt lat="47.56290" lon="10.69523">
        <ele>822.06</ele>
        <time>2009-06-03T14:58:28.000Z</time>
      </trkpt>
      <trkpt lat="47.56309" lon="10.69568">
        <ele>819.18</ele>
        <time>2009-06-03T14:58:34.000Z</time>
      </trkpt>
      <trkpt lat="47.56307" lon="10.69591">
        <ele>819.18</ele>
        <time>2009-06-03T14:58:36.000Z</time>
      </trkpt>
      <trkpt lat="47.56303" lon="10.69615">
        <ele>817.26</ele>
        <time>2009-06-03T14:58:38.000Z</time>
      </trkpt>
      <trkpt lat="47.56314" lon="10.69665">
        <ele>815.82</ele>
        <time>2009-06-03T14:58:43.000Z</time>
      </trkpt>
      <trkpt lat="47.56373" lon="10.69774">
        <ele>817.26</ele>
        <time>2009-06-03T14:59:00.000Z</time>
      </trkpt>
      <trkpt lat="47.56411" lon="10.69853">
        <ele>815.34</ele>
        <time>2009-06-03T14:59:13.000Z</time>
      </trkpt>
      <trkpt lat="47.56462" lon="10.69929">
        <ele>812.45</ele>
        <time>2009-06-03T14:59:26.000Z</time>
      </trkpt>
      <trkpt lat="47.56504" lon="10.69992">
        <ele>809.09</ele>
        <time>2009-06-03T14:59:35.000Z</time>
      </trkpt>
      <trkpt lat="47.56512" lon="10.70005">
        <ele>808.13</ele>
        <time>2009-06-03T14:59:37.000Z</time>
      </trkpt>
      <trkpt lat="47.56535" lon="10.70045">
        <ele>808.61</ele>
        <time>2009-06-03T14:59:48.000Z</time>
      </trkpt>
      <trkpt lat="47.56541" lon="10.70042">
        <ele>808.61</ele>
        <time>2009-06-03T15:01:31.000Z</time>
      </trkpt>
      <trkpt lat="47.56580" lon="10.70024">
        <ele>809.09</ele>
        <time>2009-06-03T15:01:49.000Z</time>
      </trkpt>
      <trkpt lat="47.56622" lon="10.70016">
        <ele>808.13</ele>
        <time>2009-06-03T15:02:07.000Z</time>
      </trkpt>
      <trkpt lat="47.56658" lon="10.70031">
        <ele>810.53</ele>
        <time>2009-06-03T15:02:22.000Z</time>
      </trkpt>
      <trkpt lat="47.56693" lon="10.70016">
        <ele>812.93</ele>
        <time>2009-06-03T15:02:37.000Z</time>
      </trkpt>
      <trkpt lat="47.56720" lon="10.69981">
        <ele>816.30</ele>
        <time>2009-06-03T15:02:53.000Z</time>
      </trkpt>
      <trkpt lat="47.56728" lon="10.69961">
        <ele>816.30</ele>
        <time>2009-06-03T15:02:54.000Z</time>
      </trkpt>
      <trkpt lat="47.56748" lon="10.69952">
        <ele>817.74</ele>
        <time>2009-06-03T15:03:09.000Z</time>
      </trkpt>
      <trkpt lat="47.56770" lon="10.69911">
        <ele>815.82</ele>
        <time>2009-06-03T15:03:24.000Z</time>
      </trkpt>
      <trkpt lat="47.56773" lon="10.69838">
        <ele>814.85</ele>
        <time>2009-06-03T15:03:38.000Z</time>
      </trkpt>
      <trkpt lat="47.56769" lon="10.69766">
        <ele>811.97</ele>
        <time>2009-06-03T15:03:51.000Z</time>
      </trkpt>
      <trkpt lat="47.56778" lon="10.69694">
        <ele>812.93</ele>
        <time>2009-06-03T15:04:04.000Z</time>
      </trkpt>
      <trkpt lat="47.56778" lon="10.69616">
        <ele>811.49</ele>
        <time>2009-06-03T15:04:16.000Z</time>
      </trkpt>
      <trkpt lat="47.56779" lon="10.69603">
        <ele>811.97</ele>
        <time>2009-06-03T15:04:18.000Z</time>
      </trkpt>
      <trkpt lat="47.56778" lon="10.69590">
        <ele>811.49</ele>
        <time>2009-06-03T15:04:20.000Z</time>
      </trkpt>
      <trkpt lat="47.56780" lon="10.69557">
        <ele>811.01</ele>
        <time>2009-06-03T15:04:25.000Z</time>
      </trkpt>
      <trkpt lat="47.56766" lon="10.69513">
        <ele>811.97</ele>
        <time>2009-06-03T15:04:35.000Z</time>
      </trkpt>
      <trkpt lat="47.56759" lon="10.69495">
        <ele>811.97</ele>
        <time>2009-06-03T15:04:41.000Z</time>
      </trkpt>
      <trkpt lat="47.56754" lon="10.69494">
        <ele>811.01</ele>
        <time>2009-06-03T15:05:01.000Z</time>
      </trkpt>
    </trkseg>
  </trk>
</gpx>
